[[{"header":{"parameterUnit":"m.s-1","parameterCategory":1,"la1":30.6,"la2":29.2853,"lo1":-89.7004,"lo2":-87.6739,"dy":0.0162,"dx":0.0183,"nx":112,"ny":82,"refTime":"2026-03-06T12:00:00:Z","depth":0,"parameterNumber":2,"parameterNumberName":"U-component_of_WINDS"},"data":[0.0,0.0,0.0,0.0,0.0,0.0,0.0,0.0,0.0,0.0,0.0,0.0,0.0,0.0,0.0,0.0,0.0,0.0,0.0,0.0,0.0,0.0,0.0,0.0,0.0,0.0,0.0,0.0,0.0,0.0,0.0,0.0,0.0,0.0,0.0,0.0,0.0,0.0,0.0,0.0,0.0,0.0,0.0,0.0,0.0,0.0,0.0,0.0,0.0,0.0,0.0,0.0,0.0,0.0,0.0,0.0,0.0,0.0,0.0,0.0,0.0,0.0,0.0,0.0,0.0,0.0,0.0,0.0,0.0,0.0,0.0,0.0,0.0,0.0,0.0,0.0,0.0,0.0,0.0,0.0,0.0,0.0,0.0,0.0,0.0,0.0,0.0,0.0,0.0,0.0,0.0,-3.7367,-4.1148,-4.4176,-4.5773,-4.3888,-4.0525,-3.5526,0.0,0.0,0.0,0.0,0.0,0.0,0.0,0.0,0.0,0.0,0.0,0.0,0.0,0.0,0.0,0.0,0.0,0.0,0.0,0.0,0.0,0.0,0.0,0.0,0.0,0.0,0.0,0.0,0.0,0.0,0.0,0.0,0.0,0.0,0.0,0.0,0.0,0.0,0.0,0.0,0.0,0.0,0.0,0.0,0.0,0.0,0.0,0.0,0.0,0.0,0.0,0.0,0.0,0.0,0.0,0.0,0.0,0.0,0.0,0.0,0.0,0.0,0.0,0.0,0.0,0.0,0.0,0.0,0.0,0.0,0.0,0.0,0.0,0.0,0.0,0.0,0.0,0.0,0.0,0.0,0.0,0.0,0.0,0.0,0.0,0.0,0.0,0.0,0.0,0.0,0.0,0.0,0.0,0.0,0.0,0.0,0.0,0.0,0.0,0.0,0.0,0.0,0.0,0.0,-3.5665,-4.269,-4.3461,-4.4176,-4.5773,-4.3721,-4.0553,-3.6376,0.0,0.0,0.0,0.0,0.0,0.0,0.0,0.0,0.0,0.0,0.0,0.0,0.0,0.0,0.0,0.0,0.0,0.0,0.0,0.0,0.0,0.0,0.0,0.0,0.0,0.0,0.0,0.0,0.0,0.0,0.0,0.0,0.0,0.0,0.0,0.0,0.0,0.0,0.0,0.0,0.0,0.0,0.0,0.0,0.0,0.0,0.0,0.0,0.0,0.0,0.0,0.0,0.0,0.0,0.0,0.0,0.0,0.0,0.0,0.0,0.0,0.0,0.0,0.0,0.0,0.0,0.0,0.0,0.0,0.0,0.0,0.0,0.0,0.0,0.0,0.0,0.0,0.0,0.0,0.0,0.0,0.0,0.0,0.0,0.0,0.0,0.0,0.0,0.0,0.0,0.0,0.0,0.0,0.0,0.0,0.0,0.0,0.0,0.0,0.0,0.0,0.0,0.0,-3.4174,-3.7221,-4.3957,-4.3975,-4.385,-4.4763,-4.3078,-4.0257,-3.6095,-3.3749,0.0,0.0,0.0,0.0,0.0,0.0,0.0,0.0,0.0,0.0,0.0,0.0,0.0,0.0,0.0,0.0,0.0,0.0,0.0,0.0,0.0,0.0,0.0,0.0,0.0,0.0,0.0,0.0,0.0,0.0,0.0,0.0,0.0,0.0,0.0,0.0,0.0,0.0,0.0,0.0,0.0,0.0,0.0,0.0,0.0,0.0,0.0,0.0,0.0,0.0,0.0,0.0,0.0,0.0,0.0,0.0,0.0,0.0,0.0,0.0,0.0,0.0,0.0,0.0,0.0,0.0,0.0,0.0,0.0,0.0,0.0,0.0,0.0,0.0,0.0,0.0,0.0,0.0,0.0,0.0,0.0,0.0,0.0,0.0,0.0,0.0,0.0,0.0,0.0,0.0,0.0,0.0,0.0,0.0,0.0,0.0,0.0,0.0,0.0,0.0,0.0,0.0,-3.7257,-3.9496,-4.4177,-4.3975,-4.365,-4.4046,-4.221,-3.9512,-3.5849,-3.2873,0.0,0.0,0.0,0.0,0.0,0.0,0.0,0.0,0.0,0.0,0.0,0.0,0.0,0.0,0.0,0.0,0.0,0.0,0.0,0.0,0.0,0.0,0.0,0.0,0.0,0.0,0.0,0.0,0.0,0.0,0.0,0.0,0.0,0.0,0.0,0.0,0.0,0.0,0.0,0.0,0.0,0.0,0.0,0.0,0.0,0.0,0.0,0.0,0.0,0.0,0.0,0.0,0.0,0.0,0.0,0.0,0.0,0.0,0.0,0.0,0.0,0.0,0.0,0.0,0.0,0.0,0.0,0.0,0.0,0.0,0.0,0.0,0.0,0.0,0.0,0.0,0.0,0.0,0.0,0.0,0.0,0.0,0.0,0.0,0.0,0.0,0.0,0.0,0.0,0.0,0.0,0.0,0.0,0.0,0.0,0.0,0.0,0.0,0.0,0.0,0.0,0.0,-3.8652,-4.2616,-4.4525,-4.3975,-4.3828,-4.4582,-4.1139,-3.8156,-3.6369,-3.1547,0.0,0.0,0.0,0.0,0.0,0.0,0.0,0.0,0.0,0.0,0.0,0.0,0.0,0.0,0.0,0.0,0.0,0.0,0.0,0.0,0.0,0.0,0.0,0.0,0.0,0.0,0.0,0.0,0.0,0.0,0.0,0.0,0.0,0.0,0.0,0.0,0.0,0.0,0.0,0.0,0.0,0.0,0.0,0.0,0.0,0.0,0.0,0.0,0.0,0.0,0.0,0.0,0.0,0.0,0.0,0.0,0.0,0.0,0.0,0.0,0.0,0.0,0.0,0.0,0.0,0.0,0.0,0.0,0.0,0.0,0.0,0.0,0.0,0.0,0.0,0.0,0.0,0.0,0.0,0.0,0.0,0.0,0.0,0.0,0.0,0.0,0.0,0.0,0.0,0.0,0.0,0.0,0.0,0.0,0.0,0.0,0.0,0.0,0.0,0.0,0.0,0.0,-3.7477,-4.1075,0.0,-4.3378,-4.2955,-4.2897,-4.1156,-3.838,-3.4428,0.0,0.0,0.0,0.0,0.0,0.0,0.0,0.0,0.0,0.0,0.0,0.0,0.0,0.0,0.0,0.0,0.0,0.0,0.0,0.0,0.0,0.0,0.0,0.0,0.0,0.0,0.0,0.0,0.0,0.0,0.0,0.0,0.0,0.0,0.0,0.0,0.0,0.0,0.0,0.0,0.0,0.0,0.0,0.0,0.0,0.0,0.0,0.0,0.0,0.0,0.0,0.0,0.0,0.0,0.0,0.0,0.0,0.0,0.0,0.0,0.0,0.0,0.0,0.0,0.0,0.0,0.0,0.0,0.0,0.0,0.0,0.0,0.0,0.0,0.0,0.0,0.0,0.0,0.0,0.0,0.0,0.0,0.0,0.0,0.0,0.0,0.0,0.0,0.0,0.0,0.0,0.0,0.0,0.0,0.0,0.0,0.0,0.0,0.0,0.0,0.0,0.0,-3.3513,-3.7551,-4.0989,0.0,-4.2939,-4.237,-4.1519,-4.0157,-3.7436,-3.3101,0.0,0.0,0.0,0.0,0.0,0.0,0.0,0.0,0.0,0.0,0.0,0.0,0.0,0.0,0.0,0.0,0.0,0.0,0.0,0.0,0.0,0.0,0.0,0.0,0.0,0.0,0.0,0.0,0.0,0.0,0.0,0.0,0.0,0.0,0.0,0.0,0.0,0.0,0.0,0.0,0.0,0.0,0.0,0.0,0.0,0.0,0.0,0.0,0.0,0.0,0.0,0.0,0.0,0.0,0.0,0.0,0.0,0.0,0.0,0.0,0.0,0.0,0.0,0.0,0.0,0.0,0.0,0.0,0.0,0.0,0.0,0.0,0.0,0.0,0.0,0.0,0.0,0.0,0.0,0.0,0.0,0.0,0.0,0.0,0.0,0.0,0.0,0.0,0.0,0.0,0.0,0.0,0.0,0.0,0.0,0.0,0.0,0.0,0.0,0.0,0.0,0.0,-3.3793,-3.946,-4.3286,-4.2751,-4.2674,-4.2119,-4.0816,-3.7768,-3.4959,0.0,0.0,0.0,0.0,0.0,0.0,0.0,0.0,0.0,0.0,0.0,0.0,0.0,0.0,0.0,0.0,0.0,0.0,0.0,0.0,0.0,0.0,0.0,0.0,0.0,0.0,0.0,0.0,0.0,0.0,0.0,0.0,0.0,0.0,0.0,0.0,0.0,0.0,0.0,0.0,0.0,0.0,0.0,0.0,0.0,0.0,0.0,0.0,0.0,0.0,0.0,0.0,0.0,0.0,0.0,0.0,0.0,0.0,0.0,0.0,0.0,0.0,0.0,0.0,0.0,0.0,0.0,0.0,0.0,0.0,0.0,0.0,0.0,0.0,0.0,0.0,0.0,0.0,0.0,0.0,0.0,0.0,0.0,0.0,0.0,0.0,0.0,0.0,0.0,0.0,0.0,0.0,0.0,0.0,0.0,0.0,0.0,0.0,0.0,0.0,0.0,0.0,0.0,-3.3284,-3.8915,-4.2901,-4.2713,-4.1937,-4.1221,-4.0719,-3.909,-3.6015,-3.1155,0.0,0.0,0.0,0.0,0.0,0.0,0.0,0.0,0.0,0.0,0.0,0.0,0.0,0.0,0.0,0.0,0.0,0.0,0.0,0.0,0.0,0.0,0.0,0.0,0.0,0.0,0.0,0.0,0.0,0.0,0.0,0.0,0.0,0.0,0.0,0.0,0.0,0.0,0.0,0.0,0.0,0.0,0.0,0.0,0.0,0.0,0.0,0.0,0.0,0.0,0.0,0.0,0.0,0.0,0.0,0.0,0.0,0.0,0.0,0.0,0.0,0.0,0.0,0.0,0.0,0.0,0.0,0.0,0.0,0.0,0.0,0.0,0.0,0.0,0.0,0.0,0.0,0.0,0.0,0.0,0.0,0.0,0.0,0.0,0.0,0.0,0.0,0.0,0.0,0.0,0.0,0.0,0.0,0.0,0.0,0.0,0.0,0.0,0.0,0.0,0.0,0.0,-3.3075,-3.8689,-4.2537,-4.2021,-4.1318,-4.0538,-3.9652,-3.8699,-3.5825,-3.0446,0.0,0.0,0.0,0.0,0.0,0.0,0.0,0.0,0.0,0.0,0.0,0.0,0.0,0.0,0.0,0.0,0.0,0.0,0.0,0.0,0.0,0.0,0.0,0.0,0.0,0.0,0.0,0.0,0.0,0.0,0.0,0.0,0.0,0.0,0.0,0.0,0.0,0.0,0.0,0.0,0.0,0.0,0.0,0.0,0.0,0.0,0.0,0.0,0.0,0.0,0.0,0.0,0.0,0.0,0.0,0.0,0.0,0.0,0.0,0.0,0.0,0.0,0.0,0.0,0.0,0.0,0.0,0.0,0.0,0.0,0.0,0.0,0.0,0.0,0.0,0.0,0.0,0.0,0.0,0.0,0.0,0.0,0.0,0.0,0.0,0.0,0.0,0.0,0.0,0.0,0.0,0.0,0.0,0.0,0.0,0.0,0.0,0.0,0.0,0.0,0.0,0.0,-3.2999,-3.8546,-4.2103,-4.1036,-4.0874,-4.0087,-3.8211,-3.736,-3.5013,-3.0581,0.0,0.0,0.0,0.0,0.0,0.0,0.0,0.0,0.0,0.0,0.0,0.0,0.0,0.0,0.0,0.0,0.0,0.0,0.0,0.0,0.0,0.0,0.0,0.0,0.0,0.0,0.0,0.0,0.0,0.0,0.0,0.0,0.0,0.0,0.0,0.0,0.0,0.0,0.0,0.0,0.0,0.0,0.0,0.0,0.0,0.0,0.0,0.0,0.0,0.0,0.0,0.0,0.0,0.0,0.0,0.0,0.0,0.0,0.0,0.0,-3.7415,0.0,0.0,0.0,0.0,0.0,0.0,0.0,0.0,0.0,0.0,0.0,0.0,0.0,0.0,0.0,0.0,0.0,0.0,0.0,0.0,0.0,0.0,0.0,0.0,0.0,0.0,0.0,0.0,0.0,0.0,0.0,0.0,0.0,0.0,0.0,0.0,0.0,0.0,0.0,0.0,0.0,-3.2366,-3.7577,-4.1183,-4.0909,-4.0504,-4.0017,-3.9445,-3.8308,-3.5994,-3.209,-2.9296,0.0,0.0,0.0,0.0,0.0,0.0,0.0,0.0,0.0,0.0,0.0,0.0,0.0,0.0,0.0,0.0,0.0,0.0,0.0,0.0,0.0,0.0,0.0,0.0,0.0,0.0,0.0,0.0,0.0,0.0,0.0,0.0,0.0,0.0,0.0,0.0,0.0,0.0,0.0,0.0,0.0,0.0,0.0,0.0,0.0,0.0,0.0,0.0,0.0,0.0,0.0,0.0,0.0,0.0,0.0,0.0,0.0,0.0,0.0,0.0,-3.9174,0.0,0.0,0.0,0.0,0.0,0.0,0.0,0.0,0.0,0.0,0.0,0.0,0.0,0.0,0.0,0.0,0.0,0.0,0.0,0.0,0.0,0.0,0.0,0.0,0.0,0.0,0.0,0.0,0.0,0.0,0.0,0.0,0.0,0.0,0.0,0.0,0.0,0.0,0.0,0.0,-3.2704,-3.7478,-4.0803,-4.0528,-4.0279,-3.9898,-3.9453,-3.8169,-3.6062,-3.3017,-3.0378,0.0,0.0,0.0,0.0,0.0,0.0,0.0,0.0,0.0,0.0,0.0,0.0,0.0,0.0,0.0,0.0,0.0,0.0,0.0,0.0,0.0,0.0,0.0,0.0,0.0,0.0,0.0,0.0,0.0,0.0,0.0,0.0,0.0,0.0,0.0,0.0,0.0,0.0,0.0,0.0,0.0,0.0,0.0,0.0,0.0,0.0,0.0,0.0,0.0,0.0,0.0,0.0,0.0,-4.6278,-4.7492,-4.8545,-4.9052,-4.9661,-5.0168,-4.6447,-4.4587,-4.3984,0.0,0.0,0.0,0.0,0.0,0.0,0.0,0.0,0.0,0.0,0.0,0.0,0.0,0.0,0.0,0.0,0.0,0.0,0.0,0.0,0.0,0.0,0.0,0.0,0.0,-3.8627,-3.7897,0.0,0.0,0.0,0.0,0.0,0.0,0.0,0.0,0.0,0.0,0.0,0.0,-3.3351,-3.7615,-4.0463,-4.0129,-4.0113,-3.9876,-3.9242,-3.7821,-3.6129,-3.4134,-3.1664,-2.9194,0.0,0.0,0.0,0.0,0.0,0.0,0.0,0.0,0.0,0.0,0.0,0.0,0.0,0.0,0.0,0.0,0.0,0.0,0.0,0.0,0.0,0.0,0.0,0.0,0.0,0.0,0.0,0.0,0.0,0.0,0.0,0.0,-3.3254,-3.4822,0.0,0.0,0.0,0.0,0.0,0.0,0.0,0.0,0.0,0.0,0.0,0.0,0.0,-4.3572,-4.5737,-4.983,-5.1623,-5.1183,-5.4532,-5.5886,-5.548,-5.4938,-5.5074,-5.575,-5.5141,0.0,-4.7162,-4.55,0.0,0.0,0.0,0.0,0.0,0.0,0.0,0.0,0.0,0.0,0.0,0.0,0.0,0.0,0.0,0.0,0.0,0.0,0.0,0.0,0.0,0.0,-4.3071,-4.2649,-4.263,-4.1993,0.0,-3.5732,-3.2301,-2.9839,0.0,0.0,0.0,0.0,0.0,0.0,0.0,0.0,-3.3578,-3.7012,-3.9476,-4.0045,-4.0113,-4.0079,-3.9977,-3.8599,-3.7347,-3.6423,-3.3038,-3.0886,-3.048,-2.6539,0.0,0.0,0.0,0.0,0.0,0.0,0.0,0.0,0.0,0.0,0.0,0.0,0.0,0.0,0.0,0.0,0.0,0.0,0.0,0.0,0.0,0.0,0.0,0.0,0.0,0.0,0.0,0.0,0.0,-3.2882,-3.5859,-3.5633,-3.6468,-3.5926,0.0,0.0,0.0,0.0,0.0,0.0,0.0,0.0,0.0,-4.753,-4.7767,-4.8883,-5.115,-5.3957,-5.5378,-5.548,-5.7543,-5.8558,-5.8626,-5.8321,-5.8592,-5.9302,-5.8863,-5.7171,-5.4465,-5.0439,-4.6853,-4.3606,0.0,0.0,0.0,0.0,-4.0087,-4.0933,-4.3031,-4.3707,0.0,0.0,0.0,0.0,0.0,0.0,0.0,0.0,0.0,0.0,0.0,0.0,0.0,-4.4485,-4.4384,-4.3673,-4.226,-3.9715,-3.6638,0.0,-3.2563,-3.1734,-2.8159,0.0,0.0,0.0,0.0,0.0,-3.56,-3.8046,-3.974,-4.0079,-4.0113,-4.0113,-4.0113,-3.8734,-3.7584,-3.6863,-3.4438,-3.251,-3.1258,-2.9314,-2.7097,0.0,0.0,0.0,0.0,0.0,0.0,0.0,0.0,0.0,0.0,0.0,0.0,0.0,0.0,0.0,0.0,0.0,0.0,0.0,0.0,0.0,0.0,0.0,0.0,0.0,0.0,0.0,0.0,-3.5791,-3.8193,-3.6648,-3.8802,-3.8937,0.0,0.0,0.0,0.0,0.0,0.0,-4.5466,-4.6244,-4.8372,-5.2232,-5.2739,-5.3923,-5.5987,-5.7306,-5.8321,-5.9032,-5.981,-6.0554,-6.1264,-6.1264,-6.1467,-6.1839,-6.1231,-6.0757,-6.0013,-5.4803,-5.1014,-4.8308,-4.621,-4.4823,-4.4147,-4.5297,-4.5867,-4.6443,-4.9357,-5.0033,-4.9357,-4.8105,0.0,-4.3031,-3.9285,0.0,0.0,0.0,0.0,-4.0079,-4.32,-4.4147,-4.4722,-4.6413,-4.6244,-4.5399,-4.4248,-4.3098,-4.0873,0.0,-3.6146,-3.5494,-3.0921,0.0,0.0,0.0,0.0,-3.5379,-3.7237,-3.885,-3.991,-4.0079,-4.0113,-4.0113,-4.0113,-3.8734,-3.7686,-3.7134,-3.5453,-3.3761,-3.2104,-3.1495,-2.9803,-2.681,0.0,0.0,0.0,0.0,0.0,0.0,0.0,0.0,0.0,0.0,0.0,0.0,0.0,0.0,0.0,0.0,0.0,0.0,0.0,0.0,0.0,0.0,0.0,0.0,0.0,0.0,0.0,0.0,0.0,-3.9005,-4.2016,0.0,0.0,0.0,0.0,-4.2834,-4.4451,-4.7225,-5.1623,-5.1928,-5.3991,-5.8423,-5.7915,-5.8287,-5.981,-6.0655,-6.1434,-6.2178,-6.2922,-6.3666,-6.4377,-6.4377,-6.4005,-6.3396,-6.3362,-6.255,-6.0994,-5.7814,-5.5209,-5.301,-5.142,-4.9932,-4.868,-4.8748,-4.9221,-4.9932,-5.0845,-5.115,-5.1319,-5.2672,-5.0642,-4.7297,-4.5703,-4.4147,0.0,0.0,-4.4587,-4.665,-4.824,-4.9187,-4.9729,-4.983,-4.9323,-4.8206,-4.6041,-4.5391,-4.3907,0.0,-3.7689,-3.6151,-3.4086,0.0,-3.2953,-3.3682,-3.3879,-3.4898,-3.7519,-3.8556,-3.9309,-4.0045,-4.0113,-4.0113,-4.0113,-3.8734,-3.7889,-3.7855,-3.5723,-3.4438,-3.4336,-3.2307,-3.0784,-2.9886,-2.6302,0.0,0.0,0.0,0.0,0.0,0.0,0.0,0.0,0.0,0.0,0.0,0.0,0.0,0.0,0.0,0.0,0.0,0.0,0.0,0.0,0.0,0.0,0.0,0.0,0.0,0.0,0.0,0.0,-4.3369,-4.6583,0.0,-4.4993,-4.4964,-4.6012,-4.8244,-4.9864,-5.2232,-5.5716,-5.6393,-5.7814,-6.0419,-6.0689,-6.1264,-6.2279,-6.3057,-6.3565,-6.3802,-6.4072,-6.4343,-6.4613,-6.4613,-6.4478,-6.4174,-6.3734,-6.3226,-6.2618,-6.1028,-5.9066,-5.6934,-5.5919,-5.4905,-5.4025,-5.4025,-5.4194,-5.4431,-5.4702,-5.4803,-5.4566,-5.3179,-5.1522,-4.963,-4.7733,-4.6722,-4.6384,-4.6887,-4.7597,-4.8443,-4.9458,-4.956,-4.9255,-4.8815,-4.7767,-4.665,-4.5872,-4.4856,-4.3673,-4.211,-4.0948,-3.942,-3.6945,-3.6661,-3.6593,-3.59,-3.6593,-3.7715,-3.9131,-3.9571,-3.9808,-4.0079,-4.0113,-4.0113,-4.0113,-3.8734,-3.7922,-3.7922,-3.5757,-3.4269,-3.3795,-3.3491,-3.2307,-3.0142,-2.8789,-2.6387,0.0,0.0,0.0,0.0,0.0,0.0,0.0,0.0,0.0,0.0,0.0,0.0,0.0,0.0,0.0,0.0,0.0,0.0,0.0,0.0,0.0,0.0,0.0,0.0,0.0,0.0,-4.709,-4.6853,-5.0541,-5.2131,-4.9627,-5.0101,-5.1352,-5.3315,-5.4634,-5.6427,-5.8896,-5.9505,-6.0486,-6.2009,-6.2516,-6.3125,-6.3869,-6.4377,-6.4715,-6.4952,-6.4952,-6.5087,-6.5358,-6.5358,-6.5222,-6.4918,-6.4208,-6.3734,-6.3463,-6.2685,-6.1501,-6.008,-5.9336,-5.8592,-5.7915,-5.7915,-5.778,-5.7509,-5.7273,-5.7002,-5.6461,-5.4465,-5.3315,-5.2367,-5.0405,-4.9965,-5.0101,-4.983,-4.9932,-5.0168,-5.0405,-5.0101,-4.956,-4.8815,-4.7733,-4.6684,-4.6177,-4.5094,-4.4113,-4.3842,-4.2901,-4.1405,-3.9044,-3.9039,-3.8937,-3.7743,-3.8362,-3.9276,-4.0011,-4.0113,-4.0113,-4.0113,-4.0113,-4.0011,-3.9774,-3.8599,-3.7787,-3.755,-3.5622,-3.4167,-3.3423,-3.3626,-3.2713,-3.0514,-2.9465,-2.7469,-2.4474,0.0,0.0,0.0,0.0,0.0,0.0,0.0,0.0,0.0,0.0,0.0,0.0,0.0,0.0,0.0,0.0,0.0,0.0,0.0,0.0,0.0,0.0,0.0,-4.1339,-4.6481,-4.9999,-4.9323,-5.3788,-5.575,-5.2875,-5.4566,-5.6461,-5.7881,-5.866,-5.9742,-6.1298,-6.1366,-6.2042,-6.3497,-6.3565,-6.3903,-6.4613,-6.4647,-6.5019,-6.573,-6.573,-6.6102,-6.6812,-6.6812,-6.6406,-6.5662,-6.4918,-6.4208,-6.3497,-6.2719,-6.2381,-6.2313,-6.1603,-6.0858,-6.0148,-6.0148,-5.9674,-5.8896,-5.8186,-5.7442,-5.6833,-5.6799,-5.6325,-5.548,-5.3991,-5.4025,-5.4126,-5.1894,-5.1758,-5.2131,-5.1386,-5.1183,-5.098,-5.0236,-4.9492,-4.8578,-4.7124,-4.6244,-4.55,-4.4784,-4.343,-4.1914,-4.0451,-4.0155,-3.9893,-3.9174,-3.9039,0.0,-4.0011,-4.0113,-4.0113,-4.0113,-4.0113,-3.9808,-3.9073,-3.8362,-3.7618,-3.6897,-3.5374,-3.4167,-3.3457,-3.2733,-3.1989,-3.1292,-2.8315,-2.6099,-2.4609,0.0,0.0,0.0,0.0,0.0,0.0,0.0,0.0,0.0,0.0,0.0,0.0,0.0,0.0,0.0,0.0,0.0,0.0,0.0,0.0,0.0,-4.2219,-4.506,-4.4553,-4.9593,-5.3687,-5.4566,-5.734,-5.9099,-5.8863,-5.8863,-5.9302,-6.0283,-6.0554,-6.1332,-6.2821,-6.2922,-6.3328,-6.4275,-6.4816,-6.5189,-6.5392,-6.5933,-6.6305,-6.6508,-6.6508,-6.6609,-6.6812,-6.6812,-6.6711,-6.644,-6.5155,-6.4478,-6.4208,-6.2922,-6.2381,-6.2381,-6.2178,-6.1637,-6.096,-6.096,-6.0148,-5.8998,-5.8795,-5.822,-5.7509,-5.6968,-5.6664,-5.6224,-5.4735,-5.4431,-5.4228,-5.2503,-5.2131,-5.1995,-5.0744,-5.0405,-5.0202,-4.9492,-4.8748,-4.8075,-4.7699,-4.6616,-4.5635,-4.5432,-4.4621,-4.3639,-4.2658,-4.161,-4.0832,-4.0629,-4.0121,0.0,-4.0079,-4.0113,-4.0113,-4.0113,-4.0113,-4.0011,-3.9808,-3.9106,-3.8396,-3.7652,-3.5656,-3.4404,-3.4201,-3.3491,-3.3017,-3.2814,-3.0412,-2.8416,0.0,0.0,0.0,0.0,0.0,0.0,0.0,0.0,0.0,0.0,0.0,0.0,0.0,0.0,0.0,0.0,0.0,0.0,0.0,0.0,0.0,0.0,-4.6481,-4.9796,-5.027,-5.3585,-5.663,-5.8457,-6.008,-6.1231,-6.1704,-6.1332,-6.1264,-6.1738,-6.2042,-6.2618,-6.3463,-6.3802,-6.4309,-6.5019,-6.5459,-6.5831,-6.617,-6.6609,-6.6812,-6.6812,-6.6812,-6.6812,-6.6812,-6.6812,-6.6812,0.0,-6.4918,-6.4309,-6.4478,-6.2685,-6.211,0.0,0.0,0.0,0.0,0.0,-6.0723,-5.9877,-5.9235,-5.8727,-5.8254,-5.7509,-5.7273,-5.6968,-5.5513,-5.5074,-5.4668,-5.2807,-5.2097,-5.1589,-5.0405,-4.9864,-4.9526,-4.912,-4.868,-4.8277,-4.7973,-4.6989,-4.6075,-4.5771,0.0,0.0,-4.3978,-4.2929,-4.2016,-4.1711,-4.1035,-4.0561,-4.0561,-4.0282,-4.0113,-4.0113,-4.0113,-3.9977,-3.9673,-3.9266,0.0,0.0,0.0,-3.4675,-3.4066,-3.3626,0.0,0.0,0.0,0.0,0.0,0.0,0.0,0.0,-2.6184,-2.5947,0.0,0.0,0.0,0.0,0.0,0.0,0.0,0.0,0.0,0.0,0.0,0.0,0.0,0.0,0.0,0.0,-5.0642,-5.4668,-5.7002,-5.7881,-5.9032,-6.1061,-6.2009,-6.2516,-6.2516,-6.2584,-6.2651,-6.2651,-6.326,-6.3666,-6.3768,0.0,0.0,0.0,0.0,-6.6136,-6.6812,-6.6812,-6.6812,-6.6812,-6.6745,-6.6677,-6.6677,-6.6677,-6.6643,-6.644,-6.441,-6.3835,-6.4174,-6.2042,-6.1535,-6.2144,-6.2313,-6.2381,-6.2313,-6.167,-6.1366,0.0,0.0,0.0,0.0,-5.8118,-5.7814,-5.7476,-5.6021,-5.5581,-5.5141,-5.2909,-5.1826,-5.115,-5.0304,-4.9593,-4.912,-4.9018,-4.9018,-4.8815,-4.8173,-4.7428,-4.6718,-4.5974,-4.5229,-4.4716,-4.4615,-4.3944,-4.32,-4.2523,-4.1813,-4.1339,-4.1339,-4.0663,-4.0214,-4.0214,0.0,0.0,-3.9174,-3.9106,-3.8464,-3.7032,-3.6096,-3.4991,-3.3694,-3.366,-3.366,-3.366,-3.2916,-3.2835,-3.3423,-3.2747,-3.2462,-3.2462,-2.9044,-2.8146,0.0,0.0,0.0,0.0,0.0,0.0,0.0,0.0,0.0,0.0,0.0,0.0,0.0,0.0,0.0,-5.027,-5.3923,-5.7171,-6.0047,-6.0554,-6.0825,-6.1264,-6.2482,-6.3294,-6.3294,-6.3835,-6.4174,-6.4174,-6.4309,-6.4647,-6.5222,-6.5392,0.0,-6.6576,-6.6609,-6.6677,-6.6812,-6.6812,-6.6812,-6.6812,0.0,0.0,-6.5899,-6.5899,-6.5595,-6.4986,-6.3971,-6.326,-6.2685,-6.1028,-6.0419,-6.0655,-6.1907,-6.2381,-6.2381,-6.2245,-6.1806,-6.1264,-6.096,-6.0047,-5.8896,-5.8118,-5.7476,-5.6731,-5.5243,-5.4803,0.0,-5.2773,-5.2198,-5.1792,-5.0439,-4.9965,-4.9729,-4.9154,-4.9018,-4.8951,-4.8815,-4.8206,-4.7496,-4.6718,-4.5974,-4.5297,-4.4716,-4.3944,-4.3341,-4.3206,-4.2557,-4.2083,-4.2083,-4.1441,-4.1001,-4.1001,-4.0426,-4.0045,-3.991,-3.991,-3.9242,-3.7787,-3.6377,-3.5464,-3.5194,-3.516,-3.516,-3.516,-3.4438,-3.3829,-3.3423,-3.3254,-3.3491,-3.4032,-3.2713,-3.1935,0.0,0.0,0.0,0.0,0.0,0.0,0.0,0.0,0.0,0.0,0.0,-3.9518,-4.3314,0.0,-5.0236,-5.3957,-5.6765,-5.9133,-6.1028,-6.1603,-6.1839,-6.1839,-6.2482,-6.2956,-6.2956,-6.3632,-6.4072,-6.4072,-6.4715,-6.529,-6.5662,-6.6034,-6.644,-6.6812,-6.6812,-6.6812,-6.6812,-6.644,-6.6237,-6.6237,-6.5493,-6.5155,-6.5155,-6.5155,-6.4952,-6.4512,-6.3057,-6.2415,-6.2279,-6.0723,-6.0114,-6.0182,-6.096,-6.1501,-6.1839,-6.1839,-6.1839,-6.1806,-6.1434,-6.0791,-5.9911,-5.8389,-5.7645,-5.7002,-5.5141,-5.46,-5.4363,-5.3213,-5.2604,-5.2131,-5.1386,-5.0642,-4.9999,-4.9627,-4.9255,-4.9018,-4.9018,-4.8443,-4.777,-4.7428,-4.6481,-4.5602,-4.5196,-4.4519,-4.4012,-4.4012,-4.3335,-4.2861,-4.2861,-4.2219,-4.161,-4.1238,-4.0865,-4.0493,-4.0146,-3.9774,-3.9242,-3.8497,-3.7381,-3.6749,-3.6749,-3.6749,-3.6749,-3.6749,-3.6028,-3.5656,-3.5656,-3.5284,-3.5487,-3.6197,-3.5825,-3.4844,0.0,0.0,0.0,0.0,0.0,0.0,0.0,0.0,-3.5643,-3.9334,-4.2161,-4.5024,-4.8379,-5.1319,-5.4126,-5.6799,-5.8964,-6.0622,-6.14,-6.2009,-6.2381,-6.2381,-6.2516,-6.2618,-6.2618,-6.3294,-6.3768,-6.3937,-6.5019,-6.5764,-6.5899,-6.6474,-6.6812,-6.6812,-6.6677,-6.6609,-6.6609,-6.5831,-6.5493,-6.5459,-6.4749,-6.4377,-6.4377,-6.4377,-6.4309,-6.4072,-6.1975,-6.1231,-6.1434,-6.0182,-5.9674,-5.9674,-5.9674,-6.0148,-6.0892,-6.1028,-6.1434,-6.1873,-6.1264,-6.096,-6.052,-5.8389,-5.7577,-5.707,-5.5006,-5.4397,-5.4262,-5.3687,-5.3044,-5.2503,-5.2334,-5.142,-5.0473,-5.0338,-4.9763,-4.9221,-4.9221,-4.8646,-4.8041,-4.7906,-4.6955,-4.6075,-4.594,-4.5297,-4.4784,-4.4615,-4.4045,-4.3639,-4.3639,-4.2997,-4.2286,-4.1711,-4.1508,-4.1102,-4.0383,-3.9648,-3.914,-3.9005,-3.8294,-3.7956,-3.8125,-3.799,-3.799,-3.8125,-3.7381,-3.7313,-3.7922,-3.728,-3.7313,-3.7922,-3.7922,-3.6907,-3.2616,-2.9496,-2.8419,-3.1446,-3.1868,-3.3334,0.0,0.0,-4.2447,-4.6084,-4.8564,-5.0658,-5.2539,-5.4769,-5.6833,-5.849,-6.0114,-6.1434,-6.2178,-6.2347,-6.2381,-6.2381,-6.299,-6.3396,-6.3396,-6.4038,-6.4749,-6.5392,-6.5595,-6.5967,-6.6643,-6.6779,-6.6812,-6.6812,-6.617,-6.5797,-6.5797,-6.5087,-6.4715,-6.4715,-6.4005,-6.3632,-6.3632,-6.3632,-6.326,-6.255,-6.0926,-5.9539,-5.8389,-5.822,-5.8152,-5.8152,-5.8152,-5.8592,-5.9336,-6.0013,-6.0283,-6.0351,-6.025,-5.981,-5.8998,-5.7442,-5.6494,-5.5683,-5.4093,-5.3619,-5.3619,-5.3518,-5.345,-5.3213,-5.2503,-5.2198,-5.1894,-5.1251,-5.0507,-4.9965,-4.9965,-4.939,-4.868,-4.8007,-4.777,-4.7462,-4.6786,-4.6075,-4.5365,-4.4716,-4.4513,-4.4479,-4.4479,-4.3775,-4.3267,-4.3139,-4.2557,-4.188,-4.1136,-4.0426,-3.9715,-3.9039,-3.8294,-3.8193,-3.8836,-3.8261,-3.8227,-3.887,-3.8159,-3.7821,-3.7922,-3.7821,-3.7821,-3.7922,-3.7922,-3.7753,-3.6197,-3.3995,-3.3456,-3.6345,-3.7735,-3.9629,-4.4364,-4.6192,-4.7737,-5.056,-5.2571,-5.4117,-5.5207,-5.7239,-5.893,0.0,-6.0926,-6.2042,-6.2347,-6.2381,-6.2245,-6.1806,-6.2415,-6.2854,-6.2854,-6.3531,-6.4106,-6.441,-6.5222,-6.5831,-6.6136,-6.6576,-6.6609,-6.617,-6.5865,-6.5493,-6.5053,-6.4343,-6.3971,-6.3971,-6.3226,-6.2854,-6.2854,-6.2854,-6.2448,-6.1704,-6.0588,-5.9505,-5.8524,-5.8084,-5.7881,-5.7881,-5.7881,-5.8084,-5.8457,-5.9201,-5.9742,-6.0114,-6.0114,-5.9911,-5.9404,-5.7915,-5.6934,-5.6055,-5.46,-5.3856,-5.3518,-5.3518,-5.3518,-5.3416,-5.3078,-5.2638,-5.2232,-5.1928,-5.1285,-5.0608,-5.0168,-4.9864,-4.9424,-4.868,-4.8176,-4.7804,-4.7496,-4.6819,-4.6075,-4.5331,-4.4886,-4.4615,-4.4615,-4.431,-4.391,-4.3443,-4.2726,-4.2185,-4.188,-4.1576,-4.1068,-4.0324,-3.9986,-3.9783,-3.9673,-3.9343,-3.9309,-3.9639,-3.9334,-3.9174,-3.9174,-3.9174,-3.9174,-3.9174,-3.9174,-3.9174,-3.8279,-3.7869,-3.8673,-4.1334,-4.3491,-4.5674,-4.8398,-5.0393,-5.2165,-5.4024,-5.5412,-5.6461,-5.7002,-5.8592,-5.9877,-6.008,-6.1231,-6.2144,-6.2347,-6.2212,-6.1806,-6.1061,-6.1264,-6.1467,-6.1467,-6.2516,-6.3294,-6.3497,-6.4681,-6.5493,-6.5662,-6.6203,-6.6237,-6.5696,-6.529,-6.485,-6.4309,-6.3565,-6.3193,-6.3193,-6.2651,-6.2381,-6.2381,-6.2381,-6.2009,-6.1264,-6.0452,-5.9674,-5.8964,-5.8186,-5.7881,-5.7881,-5.7881,-5.7881,-5.7949,-5.849,-5.9032,-5.9471,-5.9471,-5.9471,-5.9268,-5.8017,-5.7239,-5.6528,-5.504,-5.4228,-5.3754,-5.3551,-5.3518,-5.3518,-5.3518,-5.3078,-5.2638,-5.2638,-5.2063,-5.1352,-5.0811,-5.0371,-4.9932,-4.939,-4.8714,-4.8176,-4.8176,-4.7597,-4.6921,-4.6413,-4.5669,-4.5055,-4.4649,-4.4615,-4.4378,-4.3809,-4.3234,-4.2828,-4.2625,-4.2591,-4.2286,-4.1542,-4.1508,-4.1271,-4.0722,-4.0722,-4.0722,-4.0722,-4.0519,-4.0417,-4.0417,-4.0417,-4.0417,-4.0417,-4.0417,-4.0519,-3.8187,-3.9955,-4.2813,-4.5983,-4.8331,-5.0657,-5.3685,-5.4971,-5.5749,-5.6562,-5.7306,-5.7814,-5.7848,-5.8524,-5.9268,-5.9979,-6.0791,-6.1569,-6.2279,-6.1772,-6.1028,-6.0216,-5.9539,-5.9133,0.0,-6.1129,-6.2719,-6.3463,-6.4208,-6.4952,-6.5662,-6.5696,-6.5696,-6.5696,-6.4309,-6.3565,-6.3531,-6.2787,-6.2415,-6.2415,-6.2415,-6.2381,-6.2381,-6.2381,-6.2009,-6.1264,-6.0452,-5.9674,-5.8964,-5.8186,-5.7881,-5.7881,-5.7881,-5.7881,-5.7881,-5.7915,-5.7949,-5.7949,-5.7949,-5.7949,-5.7814,-5.707,-5.6833,-5.6528,-5.504,-5.4566,-5.4397,-5.3687,-5.3518,-5.3518,-5.3518,-5.3484,-5.345,-5.345,-5.2841,-5.2266,-5.2232,-5.1116,-5.0067,-5.0067,-4.9458,-4.8984,-4.8984,-4.8376,-4.7838,-4.7838,-4.7225,-4.621,-4.4784,-4.4615,-4.4615,-4.4581,-4.4547,-4.4215,-4.3409,-4.3375,-4.3064,-4.2286,-4.2252,-4.2252,-4.2219,-4.2219,-4.2219,-4.2219,-4.1542,-4.117,-4.117,-4.117,-4.117,-4.117,-4.117,-4.1542,-4.1814,-4.3683,-4.5992,-4.9624,-5.1728,-5.3446,-5.5574,-5.663,-5.7103,-5.6867,-5.6224,-5.5547,-5.5074,-5.5581,-5.6494,-5.7712,-5.937,-6.096,-6.2212,-6.2178,-6.1366,-5.9573,-6.0047,0.0,0.0,0.0,0.0,-6.1941,-6.2279,-6.2956,-6.4174,-6.4241,-6.4241,-6.4241,-6.3768,-6.3294,-6.2753,-6.2516,-6.2381,-6.2381,-6.2381,-6.2381,-6.2381,-6.2381,-6.2245,-6.1941,-6.0655,-5.9945,-5.9641,-5.8389,-5.7881,-5.7881,-5.7881,-5.7881,-5.7881,-5.7881,-5.7881,-5.7881,-5.7881,-5.7881,-5.7848,-5.7611,-5.7205,-5.6697,-5.6224,-5.5716,-5.5175,-5.4431,-5.4228,-5.4126,-5.3619,-5.3518,-5.3518,-5.3518,-5.3281,-5.2942,-5.2435,-5.1894,-5.1251,-5.027,-4.9898,-4.956,-4.9086,-4.8815,-4.8477,-4.7973,-4.6853,-4.5906,-4.5399,-4.4919,-4.4615,-4.4615,-4.4615,-4.4513,-4.4215,-4.4181,-4.3842,-4.3098,-4.3031,-4.2828,-4.232,-4.2286,-4.2286,-4.2286,-4.2049,-4.1914,-4.1914,-4.1914,-4.1914,-4.1914,-4.1914,-4.2049,-4.5607,-4.7968,-5.025,-5.3482,-5.5158,-5.6278,-5.733,-5.7543,-5.7306,-5.6562,-5.5006,-5.3551,-5.2807,-5.2638,-5.3348,-5.5649,-5.7442,-5.9336,-6.167,-6.1738,-6.0926,-5.9235,-5.9641,-5.9505,0.0,0.0,0.0,-6.1163,-6.1535,-6.2212,-6.3463,-6.326,-6.3226,-6.3497,-6.326,-6.2888,-6.2381,-6.2381,-6.2381,-6.2381,-6.2381,-6.2381,-6.2381,-6.2381,-6.2245,-6.1941,-6.0655,-5.9945,-5.9607,-5.8389,-5.7881,-5.7881,-5.7881,-5.7881,-5.7881,-5.7881,-5.7881,-5.7881,-5.7881,-5.7881,-5.7881,-5.7881,-5.7577,-5.7137,-5.6867,-5.6461,-5.5953,-5.5209,-5.4803,-5.4465,-5.4025,-5.3687,-5.3518,-5.3518,-5.3518,-5.3382,-5.2841,-5.2503,-5.2029,-5.1048,-5.0439,-4.9932,-4.9458,-4.9187,-4.8849,-4.8376,-4.7229,-4.6312,-4.5771,-4.5297,-4.4891,-4.4649,-4.4615,-4.4615,-4.4615,-4.4615,-4.4378,-4.3876,-4.3842,-4.3606,-4.3132,-4.3125,-4.3125,-4.3125,-4.2828,-4.2692,-4.2692,-4.2692,-4.2692,-4.2692,-4.2692,-4.2861,-4.9369,-5.2536,-5.5344,-5.7476,-5.8524,-5.8998,-5.8964,-5.7814,-5.6494,-5.5649,-5.3653,-5.1758,0.0,0.0,-5.0101,-5.3754,-5.5175,-5.7103,-6.0791,-6.0689,-5.9945,0.0,0.0,0.0,0.0,0.0,0.0,-6.1095,0.0,-6.2584,-6.3362,-6.2719,-6.2685,-6.3429,-6.2753,-6.2381,-6.2381,-6.2381,-6.2381,-6.2381,-6.2381,-6.2381,-6.2381,-6.2347,-6.1941,-6.1264,-6.0419,-5.9641,-5.8964,-5.8186,-5.7881,-5.7881,-5.7881,-5.7881,-5.7881,-5.7881,-5.7881,-5.7881,-5.7881,-5.7881,-5.7881,-5.7881,-5.7881,-5.7746,-5.707,-5.6867,-5.6697,-5.5987,-5.5243,-5.4702,-5.46,-5.4093,-5.3551,-5.3518,-5.3518,-5.3518,-5.3518,-5.2909,-5.2367,-5.23,-5.1116,-5.0101,-5.0101,-4.9492,-4.9018,-4.9018,-4.8379,-4.7462,-4.6007,-4.5805,-4.5466,-4.475,-4.4682,-4.4649,-4.4615,-4.4615,-4.4615,-4.4615,-4.4615,-4.4615,-4.4615,-4.4615,-4.4615,-4.4615,-4.3842,-4.3443,-4.3443,-4.3443,-4.3443,-4.3443,-4.3443,-4.3876,-5.3247,-5.6055,-5.8152,-5.9268,-5.9268,-5.8863,-5.8321,-5.7036,-5.531,-5.2875,-5.0135,-4.7631,0.0,0.0,0.0,-5.0811,-5.4668,0.0,-6.0926,-6.1603,0.0,-5.9979,0.0,-5.9979,-5.8829,-5.9776,0.0,0.0,-6.008,-6.0452,-6.1806,-6.167,-6.1907,-6.2651,-6.2482,-6.2381,-6.2381,-6.2381,-6.2381,-6.2381,-6.2381,-6.2381,-6.2381,-6.1839,-6.1467,-6.1231,-5.9877,-5.9167,-5.8964,-5.8186,-5.7881,-5.7881,-5.7881,-5.7881,-5.7881,-5.7881,-5.7881,-5.7881,-5.7881,-5.7881,-5.7881,-5.7881,-5.7881,-5.7848,-5.7679,-5.7611,-5.7476,-5.6731,-5.6393,-5.5987,-5.4871,-5.4465,-5.416,-5.3619,-5.3518,-5.3518,-5.3518,-5.3348,-5.301,-5.2435,-5.1116,-5.0101,-5.0101,-4.9492,-4.9018,-4.9018,-4.8849,-4.8409,-4.7432,-4.6853,-4.6244,-4.55,-4.5432,-4.5196,-4.4649,-4.4615,-4.4615,-4.4615,-4.4615,-4.4615,-4.4615,-4.4615,-4.4615,-4.4615,-4.4412,-4.4282,-4.4282,-4.4282,-4.4282,-4.4282,-4.4282,-4.4412,-5.5919,-5.8321,-6.0114,-6.052,-6.0047,-5.9032,-5.7306,-5.5513,-5.3078,-4.912,-4.6177,-4.3741,-4.1813,-4.2794,-4.5026,0.0,0.0,0.0,-6.0317,-6.1434,-6.1603,0.0,-6.1028,0.0,-6.0114,-6.0486,-6.0588,0.0,-6.0047,-6.0385,-6.1264,-6.1298,-6.1637,-6.2381,-6.2381,-6.2381,-6.2381,-6.2381,-6.2381,-6.2381,-6.2381,-6.2212,-6.1907,-6.1501,-6.0926,-6.025,0.0,-5.8829,-5.849,-5.8051,-5.7881,-5.7881,-5.7881,-5.7881,-5.7881,-5.7881,-5.7881,-5.7881,-5.7881,-5.7881,-5.7881,-5.7881,-5.7881,-5.7881,-5.7881,-5.7881,-5.7814,-5.7408,-5.7036,-5.6596,-5.5784,-5.5074,-5.4499,-5.4093,-5.3754,-5.3518,-5.3518,-5.3518,-5.3281,-5.2469,-5.1623,-5.0947,-5.0642,-4.9965,-4.9492,-4.9492,-4.9221,-4.8849,-4.8443,-4.7733,-4.6989,-4.6244,-4.6177,-4.6007,-4.5596,-4.5263,-4.506,-4.506,-4.4784,-4.4615,-4.4615,-4.4615,-4.4615,-4.4615,-4.4615,-4.4615,-4.4615,-4.4615,-4.4615,-4.4615,-4.4615,-4.4615,-5.7915,-5.9877,-6.1434,-6.1332,-6.0622,-5.9167,-5.6122,-5.3518,-5.027,-4.5162,-4.2252,-4.0223,-3.8937,-3.9478,-4.182,-4.7027,0.0,-5.504,-5.9471,-6.0791,-6.1332,-6.1434,-6.1467,-6.14,-6.1332,-6.0655,-6.0182,-5.9979,-6.0791,-6.1264,-6.1163,-6.1332,-6.1738,-6.2381,-6.2381,-6.2381,-6.2381,-6.2381,-6.2381,-6.2381,-6.2381,-6.2042,-6.1434,-6.1332,-6.052,-5.9167,0.0,0.0,-5.7881,-5.7881,-5.7881,-5.7881,-5.7881,-5.7881,-5.7881,-5.7881,-5.7881,-5.7881,-5.7881,-5.7881,-5.7881,-5.7881,-5.7881,-5.7881,-5.7881,-5.7881,-5.7881,-5.7881,-5.7442,-5.6934,-5.6833,-5.5852,-5.4871,-5.4769,-5.4194,-5.3653,-5.3653,-5.3585,-5.3281,-5.2604,-5.2367,-5.2097,-5.1488,-5.0744,-5.0202,-5.0101,-4.956,-4.912,-4.9018,-4.8443,-4.7767,-4.7022,-4.6955,-4.6921,-4.6819,-4.621,-4.5838,-4.5838,-4.5229,-4.4886,-4.4886,-4.4886,-4.4886,-4.4886,-4.4886,-4.4886,-4.4886,-4.4886,-4.4852,-4.475,-4.475,-4.4716,-6.0114,-6.1434,-6.2042,-6.1467,-6.025,-5.8254,-5.4702,-5.1183,0.0,-4.2726,-3.9546,-3.7472,-3.7235,-3.8768,-4.182,-4.7027,-5.1048,-5.504,-5.9471,-6.0791,-6.1535,0.0,-6.2212,-6.1975,-6.1366,-6.1163,0.0,0.0,0.0,-6.1028,-6.0351,-6.1501,-6.2245,-6.2381,-6.2381,-6.2381,-6.2381,-6.2381,-6.2381,-6.2381,-6.2381,-6.2313,-6.2178,-6.1569,-6.0791,-5.9877,-5.9268,0.0,-5.7881,-5.7881,-5.7881,-5.7881,-5.7881,-5.7881,-5.7881,-5.7881,-5.7881,-5.7881,-5.7881,-5.7881,-5.7881,-5.7881,-5.7881,-5.7881,-5.7881,-5.7881,-5.7881,-5.7881,-5.7814,-5.7577,-5.6968,-5.6596,-5.6258,-5.5649,-5.4938,-5.4397,-5.4397,-5.3923,-5.345,-5.3315,-5.2739,-5.2266,-5.2131,-5.1522,-5.0811,-5.0168,-4.9965,-4.9695,-4.9086,-4.8883,-4.8545,-4.78,-4.7733,-4.7462,-4.6853,-4.6684,-4.6616,-4.6616,-4.6481,-4.6413,-4.6413,-4.6413,-4.6413,-4.6413,-4.6413,-4.6413,-4.6413,-4.6413,-4.6109,-4.55,-4.55,-4.5162,-6.0892,-6.1839,-6.2212,-6.1467,-5.9844,-5.7137,-5.2266,0.0,0.0,-3.887,-3.6265,-3.4912,-3.4527,-3.6626,-3.9715,-4.3775,-4.7564,-5.1691,-5.6562,-5.822,-5.9674,-6.1603,-6.2144,-6.211,0.0,-6.0926,0.0,0.0,0.0,-6.052,-6.0114,-6.1569,-6.2381,-6.2381,-6.2381,-6.2381,-6.2381,-6.2381,-6.2381,-6.2381,-6.2381,-6.2178,-6.1806,-6.1467,-6.0858,-6.008,-5.9742,0.0,-5.8457,-5.8457,-5.8254,-5.7881,-5.7881,-5.7881,-5.7881,-5.7881,-5.7881,-5.7881,-5.7881,-5.7881,-5.7881,-5.7881,-5.7881,-5.7881,-5.7881,-5.7881,-5.7881,-5.7881,-5.7881,-5.7814,-5.7442,-5.7103,-5.6697,-5.6359,-5.5716,-5.5074,-5.4668,-5.4329,-5.3957,-5.3585,-5.3179,-5.2909,-5.2909,-5.23,-5.1657,-5.1285,-5.0913,-5.0405,-4.9661,-4.956,-4.9289,-4.8578,-4.8477,-4.8342,-4.797,-4.7597,-4.7361,-4.7361,-4.7022,-4.6786,-4.6786,-4.6786,-4.6786,-4.6786,-4.6786,-4.6786,-4.6786,-4.6786,-4.6616,-4.6278,-4.6278,-4.6075,-6.0994,-6.1839,-6.2178,-6.1264,-5.9235,-5.5919,-5.0101,-4.6075,-4.1847,-3.5757,-3.366,-3.2848,-3.2598,-3.4493,-3.7246,0.0,-4.391,-4.7868,-5.3754,-5.5716,-5.7746,0.0,-6.1941,0.0,-6.1129,-6.0486,0.0,0.0,0.0,0.0,-6.0588,-6.1738,-6.2381,-6.2381,-6.2381,-6.2381,-6.2381,-6.2381,-6.2381,-6.2381,-6.2381,-6.2076,-6.1535,-6.1535,-6.1095,-6.0351,-6.0351,0.0,0.0,-5.9032,-5.8558,-5.7881,-5.7881,-5.7983,-5.8118,-5.8118,-5.8118,-5.8118,-5.8118,-5.8017,-5.7881,-5.7881,-5.7881,-5.7881,-5.7881,-5.7881,-5.7881,-5.7881,-5.7881,-5.7881,-5.7881,-5.7476,-5.7002,-5.6833,-5.6359,-5.575,-5.5006,-5.4702,-5.4431,-5.3856,-5.3619,-5.3518,-5.3518,-5.2976,-5.2503,-5.2334,-5.1826,-5.1183,-5.0439,-5.0338,-5.0101,-4.9526,-4.9187,-4.9018,-4.9018,-4.8477,-4.8142,-4.8142,-4.7597,-4.7259,-4.7259,-4.7259,-4.7259,-4.7259,-4.7259,-4.7259,-4.7259,-4.7259,-4.7192,-4.7022,-4.7022,-4.6955,-6.0723,-6.1839,-6.2042,-6.0588,-5.8051,-5.4532,-4.919,0.0,-3.9368,-3.5318,-3.2848,-3.1799,-3.3051,-3.3525,-3.5588,-4.1271,-4.2489,-4.55,-5.3484,-5.531,-5.7171,-6.0858,0.0,0.0,-6.0351,-6.0148,0.0,0.0,0.0,0.0,-6.211,-6.2313,-6.2381,-6.2381,-6.2381,-6.2381,-6.2381,-6.2381,-6.2381,-6.2381,-6.2381,-6.2347,-6.2279,-6.2279,-6.1873,-6.1197,-6.1197,0.0,0.0,-5.9032,-5.8558,-5.7881,-5.7881,-5.8321,-5.893,-5.893,-5.893,-5.893,-5.893,-5.8457,-5.7881,-5.7881,-5.7881,-5.7881,-5.7881,-5.7881,-5.7881,-5.7881,-5.7881,-5.7881,-5.7881,-5.7848,-5.7611,-5.6968,-5.6765,-5.6494,-5.5784,-5.5074,-5.4566,-5.4499,-5.3957,-5.3518,-5.3518,-5.345,-5.3145,-5.2401,-5.2232,-5.1928,-5.1217,-5.1083,-5.1082,-5.1014,-4.9796,-4.9018,-4.9018,-4.8951,-4.8917,-4.8917,-4.8849,-4.8815,-4.8815,-4.8815,-4.8815,-4.8815,-4.8815,-4.8815,-4.8815,-4.8815,-4.8443,-4.7804,-4.7804,-4.7462,-5.9844,-6.1467,-6.2009,-6.0486,-5.7543,-5.3687,-4.8443,-4.32,-3.8362,-3.4607,-3.2442,-3.1393,-3.1968,-3.2442,-3.3931,-3.7652,-3.8667,0.0,-4.7022,-4.9661,-5.2536,-5.6765,-5.9099,0.0,0.0,0.0,0.0,0.0,0.0,0.0,-6.2313,-6.2381,-6.2381,-6.2381,-6.2381,-6.2381,-6.2381,-6.2381,-6.2381,-6.2381,-6.2381,-6.2381,-6.2381,-6.2381,-6.2245,-6.1941,-6.1501,0.0,0.0,-5.9201,-5.8558,-5.7881,-5.7881,-5.8355,-5.9032,-5.9032,-5.9032,-5.9032,-5.9032,-5.8524,-5.7881,-5.7881,-5.7881,-5.7881,-5.7881,-5.7881,-5.7881,-5.7881,-5.7881,-5.7881,-5.7881,-5.7881,-5.7814,-5.7509,-5.7442,-5.7273,-5.6528,-5.6122,-5.5784,-5.5344,-5.4668,-5.416,-5.416,-5.3788,-5.3382,-5.3078,-5.301,-5.2739,-5.1961,-5.186,-5.1691,-5.1219,-5.0676,-5.0135,-4.9695,-4.9661,-4.9458,-4.9052,-4.9018,-4.9018,-4.9018,-4.9018,-4.9018,-4.9018,-4.9018,-4.9018,-4.9018,-4.9018,-4.8849,-4.8578,-4.8578,-4.8409,-5.8592,-6.0554,-6.1332,-5.981,-5.6494,-5.23,-4.7293,-4.2083,-3.7347,-3.3795,-3.207,-3.119,-3.119,-3.1819,-3.297,-3.4945,-3.5926,-3.8159,-4.3064,-4.5568,-4.8609,-5.3044,0.0,-5.7679,0.0,0.0,0.0,0.0,0.0,0.0,0.0,-6.1704,-6.1806,-6.2076,-6.1839,-6.1704,-6.1704,-6.1704,-6.1704,-6.1704,-6.1704,-6.1704,-6.1704,-6.1704,-6.1704,-6.167,0.0,0.0,0.0,-5.9235,-5.8558,-5.7881,-5.7881,-5.8355,-5.9032,-5.9032,-5.9032,-5.9032,-5.9032,-5.8524,-5.7881,-5.7881,-5.7881,-5.7881,-5.7881,-5.7881,-5.7881,-5.7881,-5.7881,-5.7881,-5.7881,-5.7881,-5.7881,-5.7881,-5.7881,-5.7746,-5.7239,-5.6934,-5.6664,-5.6156,-5.5446,-5.4871,-5.4634,-5.416,-5.3754,-5.3551,-5.3518,-5.3315,-5.2739,-5.2672,-5.2469,-5.1961,-5.1894,-5.1488,-5.0507,-5.0439,-5.0202,-4.9695,-4.9661,-4.956,-4.9323,-4.9323,-4.9221,-4.9018,-4.9018,-4.9018,-4.9018,-4.9018,-4.9018,-4.9018,-4.9018,-4.9018,-5.69,-5.8998,-5.9776,-5.8287,-5.4566,-5.0067,-4.563,-4.0587,-3.5949,-3.2936,-3.1718,-3.119,-3.119,-3.1819,-3.2801,-3.429,-3.5148,0.0,-4.3735,-4.4615,-4.6278,0.0,0.0,-5.3856,0.0,0.0,0.0,0.0,0.0,0.0,0.0,-6.0114,-6.0486,-6.1298,-6.0554,-6.0114,-6.0114,-6.0114,-6.0114,-6.0114,-6.0114,-6.0114,-6.0114,-6.0114,-6.0114,0.0,0.0,0.0,0.0,-5.9032,-5.8558,-5.7881,-5.7881,-5.8355,-5.9032,-5.9032,-5.9032,-5.9032,-5.9032,-5.8524,-5.7881,-5.7881,-5.7881,-5.7881,-5.7881,-5.7881,-5.7881,-5.7881,-5.7881,-5.7881,-5.7881,-5.7881,-5.7881,-5.7881,-5.7881,-5.7881,-5.7881,-5.7306,-5.6799,-5.6799,-5.619,-5.548,-5.4735,-5.4566,-5.4329,-5.3619,-5.3518,-5.3518,-5.3484,-5.3484,-5.3484,-5.3484,-5.3484,-5.2875,-5.132,-5.1217,-5.1217,-5.1151,-5.1151,-5.0845,-5.0101,-5.0067,-4.9729,-4.9018,-4.9018,-4.9018,-4.9018,-4.9018,-4.9018,-4.9018,-4.9018,-4.9018,-5.1082,-5.3247,-5.4397,-5.2942,-5.0338,-4.7158,-4.3166,-3.9436,-3.5949,-3.2936,-3.1718,-3.119,-3.119,-3.1413,-3.2713,-3.6265,-3.7043,0.0,0.0,0.0,0.0,-4.8751,-5.3416,0.0,0.0,0.0,0.0,0.0,0.0,0.0,0.0,-5.9641,-5.9708,-6.0452,-6.0216,-6.0114,-6.0114,-6.0114,-6.0114,-6.0114,-6.0114,-6.0114,-6.0114,-6.0114,0.0,0.0,0.0,0.0,0.0,-5.8457,-5.8084,-5.7881,-5.7881,-5.8355,-5.9032,-5.9032,-5.9032,-5.9032,-5.9032,-5.8524,-5.7881,-5.7881,-5.7881,-5.7881,-5.7881,-5.7881,-5.7881,-5.7881,-5.7881,-5.7881,-5.7881,-5.7881,-5.7881,-5.7881,-5.7881,-5.7881,-5.7881,-5.7712,-5.7543,-5.7543,-5.6968,-5.6393,-5.6122,-5.5683,-5.5108,-5.4363,-5.4262,-5.4059,-5.3551,-5.3518,-5.3518,-5.3518,-5.3518,-5.3078,-5.2063,-5.1961,-5.1758,-5.1219,-5.1185,-5.1116,-5.0879,-5.0845,-5.0744,-5.0507,-5.0507,-5.027,-4.9729,-4.9729,-4.9492,-4.9018,-4.9018,-4.9018,-4.7022,-4.9593,-5.0777,-4.956,-4.7394,-4.4621,-4.117,-3.8058,-3.517,-3.2462,-3.1515,-3.119,-3.119,-3.1447,-3.251,-3.5318,-3.6265,0.0,0.0,0.0,0.0,-4.8818,0.0,0.0,0.0,0.0,0.0,0.0,0.0,0.0,0.0,-5.8829,-5.8795,-5.9268,-5.9268,-5.9268,-5.9268,-5.9268,-5.9268,-5.9268,-5.9268,-5.9268,-5.9268,-5.9268,0.0,0.0,0.0,0.0,0.0,-5.8084,-5.7881,-5.7881,-5.7881,-5.8186,-5.8592,-5.8592,-5.8592,-5.8592,-5.8592,-5.8287,-5.7881,-5.7881,-5.7881,-5.7881,-5.7881,-5.7881,-5.7881,-5.7881,-5.7881,-5.7881,-5.7881,-5.7881,-5.7881,-5.7881,-5.7881,-5.7881,-5.7881,-5.7881,-5.7881,-5.7881,-5.7509,-5.7137,-5.6867,-5.6427,-5.5886,-5.5141,-5.5006,-5.4735,-5.4025,-5.3923,-5.3822,-5.3551,-5.3518,-5.3315,-5.2807,-5.2739,-5.257,-5.2097,-5.2097,-5.1928,-5.1623,-5.1623,-5.1488,-5.1217,-5.1185,-5.098,-5.0507,-5.0507,-5.027,-4.983,-4.983,-4.983,0.0,-4.6989,-4.797,-4.7196,-4.4897,-4.2091,-3.9242,-3.6434,0.0,-3.163,-3.119,-3.1224,-3.1326,-3.1853,-3.2327,-3.2733,-3.3952,0.0,0.0,-4.073,0.0,0.0,0.0,0.0,0.0,0.0,0.0,0.0,0.0,0.0,0.0,-5.7881,-5.7881,-5.7881,-5.7881,-5.7881,-5.7881,-5.7881,-5.7881,-5.7881,-5.7881,-5.7881,-5.7881,-5.7881,0.0,0.0,0.0,0.0,0.0,-5.7881,-5.7881,-5.7881,-5.7881,-5.7881,-5.7881,-5.7881,-5.7881,-5.7881,-5.7881,-5.7881,-5.7881,-5.7881,-5.7881,-5.7881,-5.7881,-5.7881,-5.7881,-5.7881,-5.7881,-5.7881,-5.7881,-5.7881,-5.7881,-5.7881,-5.7881,-5.7881,-5.7881,-5.7881,-5.7881,-5.7881,-5.7881,-5.7679,-5.7002,-5.6867,-5.663,-5.5919,-5.5784,-5.5513,-5.4769,-5.4668,-5.4397,-5.3653,-5.3585,-5.3551,-5.3518,-5.3518,-5.3518,-5.3518,-5.3518,-5.3179,-5.2435,-5.2401,-5.2063,-5.1386,-5.1319,-5.1285,-5.1285,-5.1251,-5.1185,-5.1185,-5.1185,-5.1185,-3.6738,0.0,-3.9478,-3.8676,-3.7966,-3.6952,0.0,-3.4167,-3.3186,-3.1529,-3.119,-3.1529,-3.2679,-3.2104,-3.2747,-3.6772,0.0,0.0,-4.117,0.0,0.0,-5.5649,0.0,0.0,0.0,0.0,0.0,0.0,0.0,0.0,0.0,-5.7881,-5.7881,-5.7881,-5.7881,-5.7881,-5.7881,-5.7881,-5.7881,-5.7881,-5.7881,-5.7881,-5.7881,-5.7881,0.0,0.0,0.0,0.0,-5.7881,-5.7881,-5.7881,-5.7881,-5.7881,-5.7881,-5.7881,-5.7881,-5.7881,-5.7881,-5.7881,-5.7881,-5.7881,-5.7881,-5.7881,-5.7881,-5.7881,-5.7881,-5.7881,-5.7881,-5.7881,-5.7881,-5.7881,-5.7881,-5.7881,-5.7881,-5.7881,-5.7881,-5.7881,-5.7881,-5.7881,-5.7881,-5.7881,-5.7814,-5.7679,-5.7645,-5.7374,-5.6664,-5.6562,-5.6292,-5.5547,-5.5446,-5.5175,-5.4431,-5.4329,-5.4093,-5.3551,-5.3518,-5.3518,-5.3518,-5.3518,-5.3416,-5.3247,-5.3213,-5.3145,-5.2976,-5.2367,-5.2063,-5.2063,-5.1488,-5.1185,-5.1185,-5.1185,-5.1185,-3.2882,-3.5081,-3.7212,-3.6772,-3.64,-3.5859,-3.4687,-3.3626,-3.2476,-3.0987,-3.0954,-3.1326,-3.1799,-3.207,-3.3152,-3.596,-3.7584,0.0,0.0,0.0,-5.3078,-5.8287,0.0,0.0,0.0,0.0,0.0,0.0,0.0,0.0,0.0,-5.822,-5.8254,-5.7915,-5.7881,-5.7881,-5.7881,-5.7881,-5.7881,-5.7881,-5.7881,-5.7881,-5.7881,-5.7881,-5.7881,0.0,0.0,0.0,-5.7881,-5.7881,-5.7881,-5.7881,-5.7881,-5.7881,-5.7881,-5.7881,-5.7881,-5.7881,-5.7881,-5.7881,-5.7881,-5.7881,-5.7881,-5.7881,-5.7881,-5.7881,-5.7881,-5.7881,-5.7881,-5.7881,-5.7881,-5.7881,-5.7881,-5.7881,-5.7881,-5.7881,-5.7881,-5.7881,-5.7881,-5.7881,-5.7881,-5.7881,-5.7881,-5.7881,-5.7746,-5.734,-5.7306,-5.7036,-5.6325,-5.6224,-5.5919,-5.5175,-5.5108,-5.4938,-5.4532,-5.4194,-5.3856,-5.3518,-5.3518,-5.3518,-5.3518,-5.3518,-5.3518,-5.3518,-5.3078,-5.2841,-5.2841,-5.2469,-5.2266,-5.2266,-5.2266,-5.2266,-3.1456,-3.4452,-3.7449,-3.7009,-3.6637,-3.6186,-3.516,-3.3558,-3.1921,-3.0548,-3.0852,-3.1292,-3.0987,-3.2476,-3.3964,-3.4641,0.0,0.0,-4.8883,-5.1589,-5.4735,0.0,0.0,0.0,0.0,0.0,0.0,0.0,0.0,0.0,0.0,-5.8558,-5.8558,-5.7915,-5.7881,-5.7881,-5.7881,-5.7881,-5.7881,-5.7881,-5.7881,-5.7881,-5.7881,-5.7881,-5.7881,0.0,0.0,0.0,-5.7881,-5.7881,-5.7881,-5.7881,-5.7881,-5.7881,-5.7881,-5.7881,-5.7881,-5.7881,-5.7881,-5.7881,-5.7881,-5.7881,-5.7881,-5.7881,-5.7881,-5.7881,-5.7881,-5.7881,-5.7881,-5.7881,-5.7881,-5.7881,-5.7881,-5.7881,-5.7881,-5.7881,-5.7881,-5.7881,-5.7881,-5.7881,-5.7881,-5.7881,-5.7881,-5.7881,-5.7881,-5.7881,-5.7881,-5.7679,-5.7036,-5.6968,-5.6697,-5.5953,-5.5886,-5.5817,-5.5681,-5.5141,-5.4499,-5.389,-5.3619,-5.3518,-5.3518,-5.3518,-5.3518,-5.3518,-5.3518,-5.3518,-5.3518,-5.3518,-5.3518,-5.3518,-5.3518,-5.3518,-3.2584,-3.4395,-3.5329,-3.2848,-3.3558,-3.4336,-3.2341,-3.209,-3.2056,-3.119,-3.1616,-3.2645,-3.4416,-3.5025,-3.6512,-4.0324,0.0,-4.8105,0.0,0.0,0.0,0.0,0.0,0.0,0.0,0.0,0.0,0.0,0.0,0.0,0.0,-5.8355,-5.8017,-5.7881,-5.7881,-5.7881,-5.7881,-5.7881,-5.7881,-5.7881,-5.7881,-5.7881,-5.7881,-5.7881,-5.7881,0.0,0.0,-5.7881,-5.7881,-5.7881,-5.7881,-5.7881,-5.7881,-5.7881,-5.7881,-5.7881,-5.7881,-5.7881,-5.7881,-5.7881,-5.7881,-5.7881,-5.7881,-5.7881,-5.7881,-5.7881,-5.7881,-5.7881,-5.7881,-5.7881,-5.7881,-5.7881,-5.7881,-5.7881,-5.7881,-5.7881,-5.7881,-5.7881,-5.7881,-5.7881,-5.7881,-5.7881,-5.7881,-5.7881,-5.7881,-5.7881,-5.7881,-5.7848,-5.7746,-5.7712,-5.7442,-5.6697,-5.663,-5.6393,-5.5749,-5.5615,-5.5513,-5.5378,-5.4194,-5.3518,-5.3518,-5.3518,-5.3518,-5.3518,-5.3518,-5.3518,-5.3518,-5.3518,-5.3518,-5.3518,-5.3518,-5.3518,-3.1451,-3.3038,-3.4196,-3.2827,-3.4421,-3.5971,-3.4507,-3.3839,-3.3284,-3.253,-3.2984,-3.3818,-3.4812,-3.7009,-4.0257,-4.5128,0.0,-5.1589,0.0,0.0,0.0,0.0,0.0,0.0,0.0,0.0,0.0,0.0,0.0,0.0,0.0,0.0,-5.8321,-5.7915,-5.7881,-5.7881,-5.7881,-5.7881,-5.7881,-5.7881,-5.7881,-5.7881,-5.7881,-5.7881,-5.7881,-5.7881,0.0,-5.7881,-5.7881,-5.7881,-5.7881,-5.7881,-5.7881,-5.7881,-5.7881,-5.7881,-5.7881,-5.7881,-5.7881,-5.7881,-5.7881,-5.7881,-5.7881,-5.7881,-5.7881,-5.7881,-5.7881,-5.7881,-5.7881,-5.7881,-5.7881,-5.7881,-5.7881,-5.7881,-5.7881,-5.7881,-5.7881,-5.7881,-5.7881,-5.7881,-5.7881,-5.7881,-5.7881,-5.7881,-5.7881,-5.7881,-5.7881,-5.7881,-5.7881,-5.7881,-5.7746,-5.7408,-5.7374,-5.7273,-5.6934,-5.6528,-5.5953,-5.5175,-5.4465,-5.3923,-5.3518,-5.3518,-5.3518,-5.3518,-5.3518,-5.3518,-5.3518,-5.3518,-5.3518,-5.3518,-5.3518,-5.3518,-3.0965,-3.2181,-3.3429,-3.3787,-3.5765,-3.7494,-3.7041,-3.6224,-3.5382,-3.4767,-3.5407,-3.6056,-3.6072,-3.9884,0.0,-4.8578,-5.1725,-5.4465,0.0,0.0,0.0,0.0,0.0,0.0,0.0,0.0,0.0,0.0,0.0,0.0,0.0,0.0,-5.849,-5.7915,-5.7881,-5.7881,-5.7881,-5.7881,-5.7881,-5.7881,-5.7881,-5.7881,-5.7881,-5.7881,-5.7881,-5.7881,-5.7881,-5.7881,-5.7881,-5.7881,-5.7881,-5.7881,-5.7881,-5.7881,-5.7881,-5.7881,-5.7881,-5.7881,-5.7881,-5.7881,-5.7881,-5.7881,-5.7881,-5.7881,-5.7881,-5.7881,-5.7881,-5.7881,-5.8017,-5.8118,-5.7915,-5.7881,-5.7881,-5.7881,-5.7881,-5.7881,-5.7881,-5.7881,-5.7881,-5.7881,-5.7881,-5.7881,-5.7881,-5.7881,-5.7881,-5.7881,-5.7881,-5.7881,-5.7881,-5.7881,-5.7881,-5.7881,-5.7881,-5.7881,-5.7881,-5.7374,-5.6494,-5.5175,-5.4938,-5.4532,-5.3788,-5.3754,-5.3687,-5.3518,-5.3518,-5.3518,-5.3518,-5.3518,-5.3518,-5.3518,-5.3518,-5.3518,-3.2859,-3.2926,-3.298,-3.4305,-3.5766,-3.6989,-3.7406,-3.8143,-3.8606,-3.8366,-3.9601,-4.0713,-4.0704,-4.4959,-4.8781,-4.983,-5.4228,0.0,0.0,0.0,0.0,0.0,0.0,0.0,0.0,0.0,0.0,0.0,0.0,0.0,0.0,0.0,0.0,-5.7881,-5.7881,-5.7881,-5.7881,-5.7881,-5.7881,-5.7881,-5.7881,-5.7881,-5.7881,-5.7881,-5.7881,-5.7881,-5.7881,-5.7881,-5.7881,-5.7881,-5.7881,-5.7881,-5.7881,-5.7881,-5.7881,-5.7881,-5.7881,-5.7881,-5.7881,-5.7881,-5.7881,-5.7881,-5.7881,-5.7881,-5.7881,-5.7881,-5.7881,-5.7881,-5.8389,-5.8761,-5.8084,-5.7881,-5.7881,-5.7881,-5.7881,-5.7881,-5.7881,-5.7881,-5.7881,-5.7881,-5.7881,-5.7881,-5.7881,-5.7881,-5.7881,-5.7881,-5.7881,-5.7881,-5.7881,-5.7881,-5.7881,-5.7881,-5.7881,-5.7881,-5.7881,-5.7848,-5.7476,-5.6697,-5.6021,-5.531,-5.4532,-5.4499,-5.4194,-5.3518,-5.3518,-5.3518,-5.3518,-5.3518,-5.3518,-5.3518,-5.3518,-5.3518,-3.0927,-3.1697,-3.2829,-3.4505,-3.6405,-3.8093,-3.8954,-4.0307,-4.1636,-4.2492,-4.3167,-4.3955,-4.5163,0.0,-4.9161,-5.0888,-5.5185,0.0,0.0,0.0,0.0,0.0,0.0,0.0,0.0,0.0,0.0,0.0,0.0,0.0,0.0,0.0,0.0,-5.7881,-5.7881,-5.7881,-5.7881,-5.7881,-5.7881,-5.7881,-5.7881,-5.7881,-5.7881,-5.7881,-5.7881,-5.7881,-5.7881,-5.7881,-5.7881,-5.7881,-5.7881,-5.7881,-5.7881,-5.7881,-5.7881,-5.7881,-5.7881,-5.7881,-5.7881,-5.7881,-5.7881,-5.7881,-5.7881,-5.7881,-5.7881,-5.7881,-5.7983,-5.8457,-5.8795,-5.8964,-5.866,-5.8592,-5.8592,-5.8592,-5.822,-5.7881,-5.7881,-5.7881,-5.7881,-5.7881,-5.7881,-5.7881,-5.7881,-5.7881,-5.7881,-5.7881,-5.7881,-5.7881,-5.7881,-5.7881,-5.7881,-5.7881,-5.7881,-5.7881,-5.7881,-5.7881,-5.778,-5.7476,-5.6799,-5.6055,-5.531,-5.5277,-5.4938,-5.4194,-5.416,-5.3957,-5.3518,-5.3518,-5.3518,-5.3518,-5.3518,-5.3518,-2.9791,-3.0627,-3.2114,-3.3583,-3.6292,-3.9019,-4.061,-4.2424,-4.4204,-4.5642,-4.6039,-4.6544,-4.789,-4.8663,0.0,0.0,0.0,0.0,0.0,0.0,0.0,0.0,0.0,0.0,0.0,0.0,0.0,0.0,0.0,0.0,0.0,0.0,0.0,0.0,-5.7881,-5.7881,-5.7881,-5.7881,-5.7881,-5.7881,-5.7881,-5.7881,-5.7881,-5.7881,-5.7881,-5.7881,-5.7881,-5.7881,-5.7881,-5.7881,-5.7881,-5.7881,-5.7881,-5.7881,-5.7881,-5.7881,-5.7881,-5.7881,-5.7881,-5.7881,-5.7881,-5.7881,-5.7881,-5.7881,-5.7881,-5.7881,-5.8051,-5.8795,-5.9167,-5.9404,-5.9674,-5.9539,-5.9302,-5.9066,-5.8626,-5.8186,-5.7949,-5.7881,-5.7881,-5.7881,-5.7881,-5.7881,-5.7881,-5.7881,-5.7881,-5.7881,-5.7881,-5.7881,-5.7881,-5.7881,-5.7881,-5.7881,-5.7881,-5.7881,-5.7881,-5.7881,-5.7881,-5.7881,-5.7408,-5.6833,-5.6089,-5.6055,-5.5716,-5.4972,-5.4938,-5.4702,-5.4194,-5.4194,-5.4194,-5.4194,-5.4194,-5.4194,-3.0138,-3.009,-3.0763,-3.1409,-3.5203,-3.9562,-4.231,-4.4512,-4.6271,-4.7494,-4.811,-4.8456,-4.8591,-4.9774,0.0,0.0,0.0,0.0,0.0,0.0,0.0,0.0,0.0,0.0,0.0,0.0,0.0,0.0,0.0,0.0,0.0,0.0,0.0,0.0,-5.7881,-5.7881,-5.7881,-5.7881,-5.7881,-5.7881,-5.7881,-5.7881,-5.7881,-5.7881,-5.7881,-5.7881,-5.7881,-5.7881,-5.7881,-5.7881,-5.7881,-5.7881,-5.7881,-5.7881,-5.7881,-5.7881,-5.7881,-5.7881,-5.7881,-5.7881,-5.7881,-5.7881,-5.7881,-5.7881,-5.7881,-5.7881,-5.8051,-5.8795,-5.9539,-6.0283,-6.1095,-6.0723,-5.9945,-5.9201,-5.9032,-5.8795,-5.8051,-5.7881,-5.7881,-5.7881,-5.7881,-5.7881,-5.7881,-5.7881,-5.7881,-5.7881,-5.7881,-5.7881,-5.7881,-5.7881,-5.7881,-5.7881,-5.7881,-5.7881,-5.7881,-5.7881,-5.7881,-5.7881,-5.7881,-5.7577,-5.6833,-5.6799,-5.6461,-5.575,-5.5681,-5.5716,-5.5681,-5.5681,-5.5681,-5.5681,-5.5681,-5.5681,-2.9352,-3.0268,-3.2334,-3.4613,-3.8269,-4.2193,-4.5457,-4.6648,-4.7997,-5.1132,-5.0443,-4.9582,-5.0638,-5.032,0.0,0.0,0.0,0.0,0.0,0.0,0.0,0.0,0.0,0.0,0.0,0.0,0.0,0.0,0.0,0.0,0.0,0.0,0.0,0.0,-5.7881,-5.7881,-5.7881,-5.7881,-5.7881,-5.7881,-5.7881,-5.7881,-5.7881,-5.7881,-5.7881,-5.7881,-5.7881,-5.7881,-5.7881,-5.7881,-5.7881,-5.7881,-5.7881,-5.7881,-5.7881,-5.7881,-5.7881,-5.7881,-5.7881,-5.7881,-5.7881,-5.7881,-5.7881,-5.7881,-5.7881,-5.7881,-5.8051,-5.8795,-5.9539,-6.0283,-6.1095,-6.1501,-6.1535,-6.0791,-5.981,-5.8964,-5.8727,-5.8254,-5.7881,-5.7881,-5.7881,-5.7881,-5.7881,-5.7881,-5.7881,-5.7881,-5.7881,-5.7881,-5.7881,-5.7881,-5.7881,-5.7881,-5.7881,-5.7881,-5.7881,-5.7881,-5.7881,-5.7881,-5.7881,-5.778,-5.7577,-5.7577,-5.7239,-5.6494,-5.6461,-5.6224,-5.5681,-5.5681,-5.5681,-5.5681,-5.5681,-5.5681,-3.0003,-3.1594,-3.4118,-3.6413,-3.9699,-4.3437,-4.738,-4.8468,-4.9512,-5.2607,-5.1568,-5.0403,-5.1637,-5.0847,0.0,0.0,0.0,0.0,0.0,0.0,0.0,0.0,0.0,0.0,0.0,0.0,0.0,0.0,0.0,0.0,0.0,0.0,0.0,0.0,-5.7036,-5.7036,-5.7036,-5.7036,-5.7036,-5.7036,-5.7036,-5.7036,-5.7036,-5.7611,-5.7881,-5.7881,-5.7881,-5.7881,-5.7881,-5.7881,-5.7881,-5.7881,-5.7881,-5.7881,-5.7881,-5.7881,-5.7881,-5.7881,-5.7881,-5.7881,-5.7881,-5.7881,-5.7881,-5.7881,-5.7881,-5.7881,-5.8051,-5.8795,-5.9336,-5.9911,-6.1028,-6.14,-6.1434,-6.1332,-6.0588,-5.9844,-5.9505,-5.9099,-5.8761,-5.8761,-5.8761,-5.866,-5.8389,-5.8355,-5.822,-5.7915,-5.7881,-5.7881,-5.7881,-5.7881,-5.7881,-5.7881,-5.7881,-5.7881,-5.7881,-5.7881,-5.7881,-5.7881,-5.7881,-5.7881,-5.7881,-5.7881,-5.7679,-5.7239,-5.7239,-5.7036,-5.6562,-5.6562,-5.6562,-5.6562,-5.6562,-5.6562,-3.1447,-3.3515,-3.5998,-3.7473,-4.0471,-4.4178,-4.852,-4.9912,-5.0773,-5.251,0.0,-5.0999,-5.1834,-5.1302,0.0,0.0,0.0,0.0,0.0,0.0,0.0,0.0,0.0,0.0,0.0,0.0,0.0,0.0,0.0,0.0,0.0,0.0,0.0,0.0,-5.5681,-5.5681,-5.5681,-5.5681,-5.5681,0.0,-5.5681,-5.5681,-5.5749,-5.7171,-5.7814,-5.7881,-5.7881,-5.7881,-5.7881,-5.7881,-5.7881,-5.7881,-5.7881,-5.7881,-5.7881,-5.7881,-5.7881,-5.7881,-5.7881,-5.7881,-5.7881,-5.7881,-5.7881,-5.7881,-5.7881,-5.7881,-5.8017,-5.8727,-5.8964,-5.9336,-6.0723,-6.0588,-6.0283,-6.1028,-6.1197,-6.0994,-6.025,-6.0114,-6.0114,-6.0114,-6.0114,-5.9877,-5.9235,-5.9099,-5.8863,-5.8084,-5.7915,-5.7881,-5.7881,-5.7881,-5.7881,-5.7881,-5.7881,-5.7881,-5.7881,-5.7881,-5.7881,-5.7881,-5.7881,-5.7881,-5.7881,-5.7881,-5.7881,-5.7881,-5.7881,-5.7881,-5.7881,-5.7881,-5.7881,-5.7881,-5.7881,-5.7881,-3.0876,-3.3789,-3.7691,-4.0507,-4.4539,-4.8371,-5.0331,-5.09,-5.1345,-5.2634,-5.191,-5.1425,-5.2507,0.0,0.0,0.0,0.0,0.0,0.0,0.0,0.0,0.0,0.0,0.0,0.0,0.0,0.0,0.0,0.0,0.0,0.0,0.0,0.0,-5.5681,-5.5681,-5.5681,-5.5681,-5.5681,-5.5681,0.0,-5.5681,-5.5681,-5.5715,-5.663,-5.734,-5.7881,-5.7881,-5.7881,-5.7881,-5.7881,-5.7881,-5.7881,-5.7881,-5.7881,-5.7881,-5.7881,-5.7881,-5.7881,-5.7881,-5.7881,-5.7881,-5.7881,-5.7881,-5.7881,-5.7881,-5.7881,-5.7915,-5.8084,-5.8558,-5.9099,-5.9438,-5.981,-6.0148,-6.0317,-6.0351,-6.0317,-6.0148,-6.0114,-6.0114,-6.0114,-6.0114,-6.0047,-5.9911,-5.9877,-5.9607,-5.8863,-5.8254,-5.7881,-5.7881,-5.7881,-5.7881,-5.7881,-5.7881,-5.7881,-5.7881,-5.7881,-5.7881,-5.7881,-5.7881,-5.7881,-5.7881,-5.7881,-5.7881,-5.7881,-5.7881,-5.7881,-5.7881,-5.7881,-5.7881,-5.7881,-5.7881,-5.7881,-3.1604,-3.5055,-3.9451,-4.4004,-4.728,-4.9613,-5.093,-5.1229,-5.1386,-5.1972,-5.1588,-5.1386,0.0,0.0,0.0,0.0,0.0,0.0,0.0,0.0,0.0,0.0,0.0,0.0,0.0,0.0,0.0,0.0,0.0,0.0,0.0,-5.4668,-5.4668,-5.4668,-5.4668,-5.4668,-5.4668,-5.4668,-5.4668,-5.4668,-5.4668,-5.4837,-5.5209,-5.5953,-5.6697,-5.7374,-5.7374,-5.7577,-5.7881,-5.7881,-5.7881,-5.7881,-5.7881,-5.7881,-5.7881,-5.7881,-5.7881,-5.7881,-5.7881,-5.7881,-5.7881,-5.7881,-5.7881,-5.7881,-5.7881,-5.7881,-5.7881,-5.7881,-5.8186,-5.8558,-5.893,-5.9032,-5.9201,-5.9945,-6.0385,-6.0689,-6.0689,-6.096,-6.1197,-6.1197,-6.1197,-6.1095,-6.0757,-6.0351,-5.9844,-5.9133,-5.8693,-5.8287,-5.7949,-5.7881,-5.7881,-5.7881,-5.7881,-5.7881,-5.7881,-5.7881,-5.7881,-5.7881,-5.7881,-5.7881,-5.7881,-5.7881,-5.7881,-5.7881,-5.7881,-5.7881,-5.7881,-5.7881,-5.7881,-5.7881,-5.7881,-5.7881,-3.2048,-3.6207,-4.1115,-4.6711,-4.873,-4.9629,-5.078,-5.1139,-5.1229,-5.1229,-5.1229,0.0,0.0,0.0,0.0,0.0,0.0,0.0,0.0,0.0,0.0,0.0,0.0,0.0,0.0,0.0,0.0,0.0,0.0,0.0,-5.3518,-5.3518,-5.3518,-5.3518,-5.3518,-5.3518,-5.3518,-5.3518,-5.3518,-5.3518,-5.3518,-5.3822,-5.4431,-5.504,-5.5818,-5.663,-5.663,-5.7036,-5.7712,-5.7712,-5.778,-5.7881,-5.7881,-5.7881,-5.7881,-5.7881,-5.7881,-5.7881,-5.7881,-5.7881,-5.7881,-5.7881,-5.7881,-5.7881,-5.7881,-5.7881,-5.7881,-5.7881,-5.7881,-5.8017,-5.866,-5.8457,-5.8389,-5.9607,-6.0622,-6.1298,-6.1298,-6.1873,-6.2381,-6.2381,-6.2381,-6.2212,-6.1603,-6.0825,-6.0114,-5.9505,-5.9302,-5.893,-5.8186,-5.8084,-5.8017,-5.7915,-5.7881,-5.7881,-5.7881,-5.7881,-5.7881,-5.7881,-5.7881,-5.7881,-5.7881,-5.7881,-5.7881,-5.7881,-5.7881,-5.7881,-5.7881,-5.7881,-5.7881,-5.7881,-5.7881,-5.7881,-2.9861,-3.5489,-4.2132,-4.6381,-4.8356,-4.9464,-5.0212,0.0,-5.1229,0.0,0.0,0.0,0.0,0.0,0.0,0.0,0.0,0.0,0.0,0.0,0.0,0.0,0.0,0.0,0.0,0.0,0.0,0.0,0.0,0.0,-5.3518,-5.3518,-5.3518,-5.3518,-5.3518,-5.3518,-5.3518,-5.3518,-5.3518,-5.3518,-5.3518,-5.3551,-5.3653,-5.3754,-5.4532,-5.5852,-5.5852,-5.6292,-5.6934,-5.6934,-5.7306,-5.7881,-5.7881,-5.7881,-5.7881,-5.7881,-5.7881,-5.7881,-5.7881,-5.7881,-5.7881,-5.7881,-5.7881,-5.7881,-5.7881,-5.7881,-5.7881,-5.7881,-5.7881,-5.7915,-5.8017,-5.8457,-5.893,-5.9099,-6.025,-6.1298,-6.1298,-6.1873,-6.2381,-6.2381,-6.2381,-6.2347,-6.2245,-6.1637,-6.1129,-6.1028,-6.0419,-5.9708,-5.8964,-5.8863,-5.8626,-5.7949,-5.7881,-5.7881,-5.7881,-5.7881,-5.7881,-5.7881,-5.7881,-5.7881,-5.7881,-5.7881,-5.7881,-5.7881,-5.7881,-5.7881,-5.7881,-5.7881,-5.7881,-5.7881,-5.7881,-5.7881,-3.2258,-3.7075,-4.1863,-4.6232,-4.7728,-4.8446,-4.9464,-4.9912,-5.0212,-5.0601,0.0,0.0,0.0,0.0,0.0,0.0,0.0,0.0,0.0,0.0,0.0,0.0,0.0,0.0,0.0,0.0,0.0,0.0,0.0,-5.3518,-5.3518,-5.3518,-5.3518,-5.3518,-5.3518,-5.3518,-5.3518,-5.3518,-5.3518,-5.3518,-5.3518,-5.3518,-5.3518,-5.3518,-5.4093,-5.5074,-5.5074,-5.5513,-5.6224,-5.663,-5.7002,-5.7306,-5.7712,-5.7881,-5.7881,-5.7881,-5.7881,-5.7881,-5.7881,-5.7881,-5.7881,-5.7881,-5.7881,-5.7881,-5.7881,-5.7881,-5.7881,-5.7881,-5.7881,-5.7983,-5.8423,-5.8761,-5.9235,-6.008,-6.0825,-6.14,-6.1839,-6.2178,-6.2381,-6.2381,-6.2381,-6.2381,-6.2381,-6.211,-6.1772,-6.1366,-6.0994,-6.0486,-5.9708,-5.9268,-5.8896,-5.8558,-5.8152,-5.7881,-5.7881,-5.7881,-5.7881,-5.7881,-5.7881,-5.7881,-5.7881,-5.7881,-5.7881,-5.7881,-5.7881,-5.7881,-5.7881,-5.7881,-5.7881,-5.7881,-5.7881,-5.7881,-3.2976,-3.6656,-3.9709,-4.4197,-4.5933,-4.689,0.0,0.0,-4.9194,0.0,0.0,0.0,0.0,0.0,0.0,0.0,0.0,0.0,0.0,0.0,0.0,0.0,0.0,0.0,0.0,0.0,0.0,0.0,0.0,-5.3518,-5.3518,-5.3518,-5.3518,-5.3518,-5.3518,-5.3518,-5.3518,-5.3518,-5.3518,-5.3518,-5.3518,-5.3518,-5.3518,-5.3518,-5.3788,-5.4329,-5.4329,-5.4735,-5.548,-5.6021,-5.6461,-5.6867,-5.7408,-5.7712,-5.7881,-5.7881,-5.7881,-5.7881,-5.7881,-5.7881,-5.7881,-5.7881,-5.7881,-5.7881,-5.7881,-5.7881,-5.7881,-5.7881,-5.7881,-5.8051,-5.8829,-5.9167,-5.9641,-6.0994,-6.1434,-6.1738,-6.2279,-6.2381,-6.2381,-6.2381,-6.2381,-6.2381,-6.2381,-6.2381,-6.2212,-6.167,-6.1569,-6.1298,-6.052,-5.9945,-5.9505,-5.9302,-5.8795,-5.8457,-5.8457,-5.8287,-5.8186,-5.8186,-5.7983,-5.7881,-5.7881,-5.7881,-5.7881,-5.7881,-5.7881,-5.7881,-5.7881,-5.7881,-5.7881,-5.7881,-5.7881,-5.7881,-2.8843,-3.1869,-3.4831,-3.8841,-4.2162,-4.4825,0.0,0.0,0.0,0.0,0.0,0.0,0.0,0.0,0.0,0.0,0.0,0.0,0.0,0.0,0.0,0.0,0.0,0.0,0.0,0.0,0.0,0.0,0.0,-5.3518,-5.3518,-5.3518,-5.3518,-5.3518,-5.3518,-5.3518,-5.3518,-5.3518,-5.3518,-5.3518,-5.3518,-5.3518,-5.3518,-5.3518,-5.3518,-5.3551,-5.3551,-5.3991,-5.4668,-5.4702,-5.5547,-5.6799,-5.6833,-5.7273,-5.7881,-5.7881,-5.7881,-5.7881,-5.7881,-5.7881,-5.7881,-5.7881,-5.7881,-5.7881,-5.7881,-5.7881,-5.7881,-5.7881,-5.7881,-5.8051,-5.8829,-5.9539,-6.025,-6.1095,-6.1839,-6.2347,-6.2381,-6.2381,-6.2381,-6.2381,-6.2381,-6.2381,-6.2381,-6.2381,-6.2381,-6.2347,-6.2347,-6.2076,-6.1332,-6.1197,-6.0892,-6.0114,-6.0013,-5.9979,-5.9979,-5.9336,-5.8964,-5.8964,-5.8287,-5.7881,-5.7881,-5.7881,-5.7881,-5.7881,-5.7881,-5.7881,-5.7881,-5.7881,-5.7881,-5.7881,-5.7881,-5.7881,-2.7705,-3.0522,-3.3604,-3.6746,-3.9379,-4.1624,-4.3389,-4.5125,0.0,0.0,0.0,0.0,0.0,0.0,0.0,0.0,0.0,0.0,0.0,0.0,0.0,0.0,0.0,0.0,0.0,0.0,0.0,0.0,0.0,0.0,-5.3518,-5.3518,-5.3518,-5.3518,-5.3518,-5.3518,-5.3518,-5.3518,-5.3518,-5.3518,-5.3518,-5.3518,-5.3518,-5.3518,-5.3518,-5.3518,-5.3518,-5.3653,-5.3923,-5.4397,-5.5175,-5.6156,-5.663,-5.7239,-5.7881,-5.7881,-5.7881,-5.7881,-5.7881,-5.7881,-5.7772,-5.7039,-5.7297,-5.7628,-5.6237,-5.6276,-5.6816,-5.6816,-5.6645,-5.6934,-5.9131,-5.9717,-6.0104,-6.1649,-6.2212,-6.2381,-6.2381,-6.2381,-6.2381,-6.2381,-6.2381,-6.2381,-6.2381,-6.2381,-6.2245,-6.1772,-6.2076,-6.211,-6.14,-6.1298,-6.1197,-6.0892,-6.0419,-6.0114,-6.0114,-5.9877,-5.9708,-5.9708,-5.9032,-5.8626,-5.8626,-5.8152,-5.7881,-5.7881,-5.7881,-5.7881,-5.7881,-5.7881,-5.7881,-5.7881,-5.7881,-5.7881,-2.5698,-2.8364,-3.1539,0.0,-3.6148,-3.7973,-4.1302,0.0,0.0,0.0,0.0,0.0,0.0,0.0,0.0,0.0,0.0,0.0,0.0,0.0,0.0,0.0,0.0,0.0,0.0,0.0,0.0,0.0,0.0,0.0,-5.2739,-5.2739,-5.2841,-5.3078,-5.3112,-5.3247,-5.3518,-5.3518,-5.3518,-5.3518,-5.3518,-5.3518,-5.3518,-5.3518,-5.3518,-5.3518,-5.3518,-5.3518,-5.3551,-5.4025,-5.4803,-5.5749,-5.6258,-5.7036,-5.7881,-5.7881,-5.7881,-5.7881,-5.7881,-5.7628,-5.7189,-5.6437,-5.647,-5.6619,-5.549,-5.5377,-5.5763,-5.6382,-5.6092,-5.626,-5.9145,-6.0178,-6.0798,-6.2088,-6.2381,-6.2381,-6.2381,-6.2381,-6.2381,-6.2381,-6.2381,-6.2381,-6.2381,-6.2381,-6.2212,-6.1738,-6.2076,-6.2212,-6.1738,-6.167,-6.167,-6.167,-6.1197,-6.0858,-6.0858,-6.0655,-6.0486,-6.0486,-5.981,-5.937,-5.937,-5.866,-5.8254,-5.8254,-5.8017,-5.7881,-5.7881,-5.7881,-5.7881,-5.7881,-5.7881,-5.7881,0.0,0.0,0.0,0.0,0.0,0.0,-3.9798,0.0,0.0,0.0,0.0,0.0,0.0,0.0,0.0,0.0,0.0,0.0,0.0,0.0,0.0,0.0,0.0,0.0,0.0,0.0,0.0,0.0,0.0,-5.1185,-5.1185,-5.1185,-5.1555,-5.2232,-5.2266,-5.2672,-5.345,-5.345,-5.3484,-5.3518,-5.3518,-5.3518,-5.3518,-5.3518,-5.3518,-5.3518,-5.3518,-5.3518,-5.3518,-5.3518,-5.4363,-5.5683,-5.5716,-5.6596,-5.7848,-5.7881,-5.7881,-5.7881,-5.7881,-5.7185,-5.6243,-5.6204,-5.5498,-5.4879,-5.585,-5.545,-5.4957,-5.6653,-5.6358,-5.6167,-5.8805,-6.0905,-6.2341,-6.2381,-6.2381,-6.2381,-6.2381,-6.2381,-6.2381,-6.2381,-6.2381,-6.2381,-6.2381,-6.2381,-6.2381,-6.2347,-6.2347,-6.2347,-6.2347,-6.2347,-6.2381,-6.2381,-6.2381,-6.2381,-6.2381,-6.1738,-6.1332,-6.1332,-6.0588,-6.0148,-6.0148,-5.9438,-5.9032,-5.9032,-5.8287,-5.7915,-5.7881,-5.7881,-5.7881,-5.7881,-5.7881,-5.7881,-2.349,0.0,0.0,0.0,0.0,0.0,0.0,0.0,0.0,0.0,0.0,0.0,0.0,0.0,0.0,0.0,0.0,0.0,0.0,0.0,0.0,0.0,0.0,0.0,0.0,0.0,0.0,0.0,-4.9208,-5.046,-5.1153,-5.1185,-5.1286,-5.1522,-5.1522,-5.1894,-5.2638,-5.2638,-5.2909,-5.3518,-5.3518,-5.3518,-5.3518,-5.3518,-5.3518,-5.3518,-5.3518,-5.3518,-5.3518,-5.3518,-5.4059,-5.4972,-5.5513,-5.6292,-5.7171,-5.7679,-5.7881,-5.7881,-5.7881,-5.7665,-5.7297,-5.6437,-5.6547,-5.6734,-5.545,-5.4838,-5.48,-5.5757,-5.4995,-5.4653,-5.8096,-6.004,-6.1317,-6.2189,-6.2381,-6.2381,-6.2381,-6.2381,-6.2381,-6.2381,-6.2381,-6.2381,-6.2381,-6.2381,-6.2212,-6.167,-6.1603,-6.1603,-6.1603,-6.1603,-6.1806,-6.2347,-6.2381,-6.2381,-6.2381,-6.2212,-6.2076,-6.2076,-6.14,-6.096,-6.096,-6.0216,-5.9539,-5.9032,-5.8795,-5.8423,-5.7881,-5.7881,-5.7881,-5.7881,-5.7881,-5.7881,-2.4777,-2.5884,-2.756,0.0,0.0,0.0,0.0,-3.3395,0.0,0.0,0.0,0.0,0.0,0.0,0.0,0.0,0.0,0.0,0.0,0.0,0.0,0.0,0.0,0.0,0.0,0.0,0.0,-4.626,-4.7907,-4.9261,-5.0207,-5.0304,-5.0439,-5.0744,-5.0744,-5.1116,-5.1826,-5.2164,-5.2536,-5.301,-5.3348,-5.3518,-5.3518,-5.3518,-5.3518,-5.3518,-5.3518,-5.3518,-5.3518,-5.3518,-5.4126,-5.5108,-5.5547,-5.6359,-5.7306,-5.7712,-5.7881,-5.7881,-5.7881,-5.7591,-5.7076,-5.6398,-5.6047,-5.5651,-5.4838,-5.4253,-5.4189,-5.5676,-5.5781,-5.5922,-5.7587,-5.9346,-6.0787,-6.148,-6.203,-6.2381,-6.2381,-6.2381,-6.2381,-6.2381,-6.2381,-6.2381,-6.2381,-6.2381,-6.2245,-6.1806,-6.1772,-6.1772,-6.1772,-6.1772,-6.1907,-6.2347,-6.2381,-6.2381,-6.2381,-6.2381,-6.2381,-6.2381,-6.2009,-6.1772,-6.1772,-6.1028,-6.025,-5.9471,-5.9167,-5.866,-5.7881,-5.7881,-5.7881,-5.7881,-5.7881,-5.7881,-2.6542,-2.741,-2.9056,-3.0043,0.0,0.0,-3.3365,-3.3185,0.0,0.0,0.0,0.0,0.0,0.0,0.0,0.0,0.0,0.0,0.0,0.0,0.0,0.0,0.0,0.0,0.0,-4.412,-4.4662,-4.4774,-4.6555,-4.7901,-4.8639,-4.8892,-4.9258,-4.9805,-4.9934,-5.0338,-5.1082,-5.1725,-5.2131,-5.23,-5.301,-5.3416,-5.3518,-5.3518,-5.3518,-5.3518,-5.3518,-5.3518,-5.3518,-5.3518,-5.4329,-5.5615,-5.5683,-5.6562,-5.778,-5.7848,-5.7881,-5.7881,-5.7881,-5.726,-5.636,-5.6243,-5.4888,-5.3439,-5.4337,-5.3785,-5.3357,-5.5664,-5.7414,-5.8405,-5.7434,-5.878,-6.0459,-6.0745,-6.1554,-6.2263,-6.2381,-6.2381,-6.2381,-6.2381,-6.2381,-6.2381,-6.2381,-6.2381,-6.2381,-6.2381,-6.2313,-6.2313,-6.2381,-6.2313,-6.2313,-6.2381,-6.2381,-6.2381,-6.2381,-6.2381,-6.2381,-6.2381,-6.2381,-6.2381,-6.2381,-6.1772,-6.0994,-6.0114,-5.9302,-5.8558,-5.7881,-5.7881,-5.7881,-5.7881,-5.7881,-5.7881,-2.9056,-2.9445,-2.9953,-2.9175,0.0,0.0,-2.8427,-2.8453,0.0,0.0,0.0,0.0,0.0,0.0,0.0,0.0,0.0,0.0,0.0,0.0,0.0,0.0,0.0,0.0,0.0,-4.3488,-4.3927,-4.4737,-4.6555,-4.734,-4.6765,-4.8193,-4.8707,-4.81,-4.881,-4.956,-5.0304,-5.0439,-5.1116,-5.23,-5.2469,-5.2875,-5.3518,-5.3518,-5.3518,-5.3518,-5.3518,-5.3518,-5.3518,-5.3518,-5.4025,-5.4871,-5.548,-5.6258,-5.7103,-5.7679,-5.7881,-5.7881,-5.7881,-5.7772,-5.7409,-5.6509,-5.5896,-5.5417,-5.4764,-5.3785,-5.3032,-5.3678,-5.5561,-5.7527,-5.8268,-5.8812,-5.9653,-6.1595,-6.148,-6.1235,-6.2189,-6.2381,-6.2381,-6.2381,-6.2381,-6.2381,-6.2381,-6.2381,-6.2381,-6.2381,-6.1873,-6.1738,-6.2313,-6.1873,-6.1738,-6.2347,-6.2381,-6.2381,-6.2381,-6.2381,-6.2381,-6.2381,-6.2381,-6.2381,-6.2381,-6.2245,-6.1535,-6.0148,-5.8795,-5.8017,-5.7881,-5.7881,-5.7881,-5.7881,-5.7881,-5.7881,-3.0911,-3.1031,-3.142,-3.112,0.0,0.0,0.0,0.0,0.0,0.0,0.0,0.0,0.0,0.0,0.0,0.0,0.0,0.0,0.0,0.0,0.0,0.0,0.0,0.0,0.0,-4.315,-4.3732,-4.4737,-4.567,-4.6205,-4.6208,-4.7104,-4.7572,-4.7572,-4.8064,-4.8713,-4.956,-4.9898,-5.0642,-5.1758,-5.2131,-5.2739,-5.3518,-5.3518,-5.3518,-5.3518,-5.3518,-5.3518,-5.3518,-5.3518,-5.3923,-5.4668,-5.5412,-5.6156,-5.69,-5.7611,-5.7881,-5.7881,-5.7881,-5.7554,-5.6963,-5.636,-5.5458,-5.4473,-5.3913,-5.3853,-5.3942,-5.4032,-5.5497,-5.7134,-5.7761,-5.836,-5.9125,-6.0332,-6.0586,-6.0787,-6.1358,-6.148,-6.1676,-6.2302,-6.2381,-6.2381,-6.2381,-6.2381,-6.2381,-6.2381,-6.2076,-6.1975,-6.2347,-6.2076,-6.1975,-6.2347,-6.2381,-6.2381,-6.2381,-6.2381,-6.2381,-6.2381,-6.2381,-6.2381,-6.2381,-6.2381,-6.167,-6.0148,-5.8998,-5.8254,-5.7881,-5.7881,-5.7591,-5.7076,-5.7628,-5.7591,0.0,0.0,0.0,0.0,0.0,-3.0851,0.0,0.0,0.0,0.0,0.0,0.0,0.0,0.0,0.0,0.0,0.0,0.0,0.0,0.0,0.0,0.0,0.0,0.0,0.0,-4.2432,-4.3051,-4.4257,-4.4019,-4.4299,-4.5417,-4.5981,-4.6601,-4.7306,-4.7704,-4.8225,-4.8984,-4.9593,-5.0338,-5.1217,-5.1826,-5.257,-5.3518,-5.3518,-5.3518,-5.3518,-5.3518,-5.3518,-5.3518,-5.3518,-5.3856,-5.4465,-5.5378,-5.6156,-5.69,-5.7611,-5.7881,-5.7881,-5.7881,-5.7297,-5.6476,-5.6282,-5.4723,-5.2856,-5.2664,-5.3575,-5.4653,-5.456,-5.5703,-5.6991,-5.6991,-5.7714,-5.8587,-5.9036,-5.9522,-6.0043,-6.0501,-6.0586,-6.0912,-6.1837,-6.2263,-6.2381,-6.2381,-6.2381,-6.2381,-6.2381,-6.2381,-6.2381,-6.2381,-6.2381,-6.2381,-6.2381,-6.2381,-6.2381,-6.2381,-6.2381,-6.2381,-6.2381,-6.215,-6.215,-6.2381,-6.2015,-6.1144,-5.9667,-5.8988,-5.8362,-5.7756,-5.7876,-5.7297,-5.6243,-5.7372,-5.7297,0.0,0.0,0.0,0.0,-3.3724,0.0,0.0,0.0,0.0,0.0,0.0,0.0,0.0,0.0,0.0,0.0,0.0,0.0,0.0,0.0,0.0,0.0,0.0,0.0,0.0,0.0,-4.0613,-4.2535,-4.1264,-4.1102,-4.2735,-4.5176,-4.6518,-4.6384,-4.7966,-4.8892,-4.9018,-4.9086,-4.983,-5.1185,-5.1252,-5.2097,-5.3518,-5.3518,-5.3518,-5.3518,-5.3518,-5.3518,-5.3518,-5.3518,-5.3551,-5.3754,-5.5175,-5.6156,-5.69,-5.7611,-5.7881,-5.7881,-5.7881,-5.7808,-5.7554,-5.6547,-5.4723,-5.2678,-5.1681,-5.2365,-5.3417,-5.3417,-5.5114,-5.6991,-5.6991,-5.7134,-5.7761,-5.987,-5.887,-5.7993,-6.0128,-6.0586,-6.0628,-6.0787,-6.1676,-6.2381,-6.2381,-6.2381,-6.2381,-6.2381,-6.2381,-6.2381,-6.2381,-6.2381,-6.2381,-6.2381,-6.2381,-6.2381,-6.2381,-6.2381,-6.2381,-6.2381,-6.1399,-6.1276,-6.2341,-6.0765,-5.924,-5.8022,-5.7609,-5.7371,-5.7272,-5.7708,-5.7297,-5.6243,-5.7372,-5.7297,0.0,0.0,0.0,0.0,0.0,0.0,-2.9714,0.0,-2.8513,0.0,0.0,0.0,0.0,0.0,0.0,0.0,0.0,0.0,0.0,0.0,0.0,0.0,0.0,0.0,0.0,0.0,0.0,0.0,0.0,-3.9814,-4.1692,-4.3285,-4.461,-4.56,-4.6774,-4.7901,-4.9018,-4.9018,-4.9763,-5.1185,-5.1185,-5.2029,-5.3518,-5.3518,-5.3518,-5.3518,-5.3518,-5.3518,-5.3518,-5.3518,-5.3518,-5.3653,-5.5141,-5.5919,-5.6325,-5.7476,-5.7881,-5.7881,-5.7881,-5.748,-5.6624,-5.4847,-5.3221,-5.188,-5.179,-5.2456,-5.3264,-5.3653,-5.4797,-5.6134,-5.68,-5.6991,-5.7245,-5.8282,-5.8237,-5.8314,-5.9346,-6.0118,-6.0828,-6.148,-6.207,-6.2381,-6.2381,-6.2381,-6.2381,-6.2381,-6.2381,-6.2381,-6.2381,-6.2381,-6.2381,-6.2381,-6.2381,-6.2381,-6.2381,-6.2381,-6.2381,-6.2381,-6.1951,-6.1554,-6.1358,-6.0572,-5.9347,-5.7712,-5.7539,-5.7116,-5.6275,-5.6474,-5.5759,-5.4348,-5.6773,-5.7297,-3.7883,0.0,0.0,0.0,0.0,0.0,0.0,0.0,0.0,0.0,0.0,0.0,0.0,0.0,0.0,0.0,0.0,0.0,0.0,0.0,0.0,0.0,0.0,0.0,0.0,0.0,0.0,0.0,0.0,0.0,-4.0965,-4.2017,-4.3353,-4.5152,-4.6099,-4.7373,-4.8954,-4.8733,-4.9347,-5.0792,-5.0825,-5.1598,-5.3076,-5.3382,-5.3518,-5.3518,-5.3518,-5.3518,-5.3518,-5.3518,-5.3619,-5.3923,-5.5209,-5.5817,-5.6156,-5.7408,-5.7881,-5.7881,-5.7881,-5.7151,-5.5889,-5.3967,-5.262,-5.1709,-5.2072,-5.2665,-5.3324,-5.4012,-5.467,-5.5431,-5.628,-5.6493,-5.659,-5.6943,-5.7418,-5.7993,-5.8677,-5.9214,-5.9957,-6.116,-6.1676,-6.1911,-6.1911,-6.215,-6.2381,-6.2381,-6.2381,-6.2381,-6.2381,-6.2381,-6.2381,-6.2381,-6.2381,-6.2381,-6.2381,-6.2381,-6.2263,-6.1951,-6.2223,-6.1561,-5.9697,-5.9913,-5.9132,-5.7084,-5.7137,-5.6715,-5.57,-5.5623,-5.4931,-5.3678,-5.6264,-5.6849,0.0,0.0,0.0,-3.4861,0.0,0.0,0.0,0.0,-3.1032,0.0,0.0,0.0,0.0,0.0,0.0,0.0,0.0,0.0,0.0,0.0,0.0,0.0,0.0,0.0,0.0,0.0,0.0,0.0,0.0,0.0,-4.0187,-4.1924,-4.3545,-4.5152,-4.6713,-4.7998,-4.8984,-4.8096,-4.8364,-4.978,-4.9816,-5.0575,-5.1993,-5.3041,-5.3518,-5.3518,-5.3518,-5.3518,-5.3518,-5.3518,-5.3923,-5.4634,-5.5412,-5.6156,-5.6867,-5.7611,-5.7881,-5.7881,-5.7881,-5.7151,-5.6047,-5.492,-5.3785,-5.2788,-5.2356,-5.2665,-5.3324,-5.4012,-5.467,-5.5179,-5.5229,-5.5229,-5.5551,-5.6704,-5.6134,-5.5967,-5.8314,-5.79,-5.748,-5.8677,-5.9827,-6.0661,-6.0661,-6.1635,-6.2381,-6.2381,-6.2381,-6.2381,-6.2381,-6.2381,-6.2381,-6.2381,-6.2381,-6.2381,-6.2381,-6.2381,-6.1877,-6.0745,-6.1756,-6.0795,-5.7245,-5.8223,-5.7714,-5.535,-5.5752,-5.5922,-5.5891,-5.5708,-5.557,-5.5538,-5.6025,-5.5691,0.0,0.0,-4.2162,-3.7285,0.0,0.0,0.0,0.0,0.0,0.0,0.0,0.0,0.0,0.0,0.0,0.0,0.0,0.0,0.0,0.0,0.0,0.0,0.0,0.0,0.0,0.0,0.0,0.0,-3.4268,0.0,0.0,-4.0004,-4.1469,-4.3549,-4.4559,-4.5728,-4.7138,-4.6833,-4.7405,-4.876,-4.9468,-5.054,-5.1921,-5.3008,-5.3518,-5.3518,-5.3518,-5.3518,-5.3518,-5.3518,-5.3923,-5.4668,-5.5412,-5.6156,-5.69,-5.7611,-5.7881,-5.7808,-5.7039,-5.6047,-5.4929,-5.3828,-5.2987,-5.2513,-5.278,-5.3324,-5.4012,-5.467,-5.5029,-5.5179,-5.5179,-5.5179,-5.528,-5.572,-5.6085,-5.6638,-5.7434,-5.851,-5.9258,-5.8857,-5.9784,-6.0586,-6.0586,-6.0953,-6.148,-6.2302,-6.2381,-6.2381,-6.2381,-6.2381,-6.2381,-6.2381,-6.2381,-6.207,-6.1276,-6.0459,-6.0204,-6.0586,-6.0247,-5.9125,-5.7055,-5.7386,-5.6848,-5.5229,-5.534,-5.5224,-5.4801,-5.426,-5.3791,-5.3331,-5.3796,-5.4598,-4.4317,-4.4197,0.0,-3.9439,-3.8003,0.0,-3.2587,0.0,0.0,0.0,0.0,0.0,0.0,0.0,0.0,0.0,0.0,0.0,0.0,0.0,0.0,0.0,0.0,0.0,0.0,0.0,-3.1024,-3.4001,-3.3096,0.0,0.0,0.0,-4.0328,-4.2368,-4.3335,-4.4548,-4.6173,-4.5885,-4.6402,-4.7763,-4.8796,-5.0011,-5.1414,-5.2835,-5.3518,-5.3518,-5.3518,-5.3518,-5.3518,-5.3518,-5.4093,-5.504,-5.5513,-5.6325,-5.7239,-5.7712,-5.7881,-5.7772,-5.6586,-5.5498,-5.4453,-5.3577,-5.2795,-5.2366,-5.3264,-5.3862,-5.4341,-5.4999,-5.5179,-5.5179,-5.5179,-5.5179,-5.5179,-5.5179,-5.5769,-5.6493,-5.6896,-5.79,-5.8722,-5.8767,-5.9081,-5.9478,-5.987,-5.9957,-6.0501,-6.215,-6.2381,-6.2381,-6.2381,-6.2381,-6.2381,-6.2381,-6.2381,-6.1911,-6.067,-5.987,-5.9566,-5.9946,-5.9214,-5.8268,-5.7039,-5.6991,-5.6445,-5.5229,-5.5179,-5.497,-5.4551,-5.3862,-5.3204,-5.2594,-5.2595,-5.3484]},{"header":{"parameterUnit":"m.s-1","parameterCategory":1,"la1":30.6,"la2":29.2853,"lo1":-89.7004,"lo2":-87.6739,"dy":0.0162,"dx":0.0183,"nx":112,"ny":82,"refTime":"2026-03-06T12:00:00:Z","depth":0,"parameterNumber":3,"parameterNumberName":"V-component_of_WINDS"},"data":[0.0,0.0,0.0,0.0,0.0,0.0,0.0,0.0,0.0,0.0,0.0,0.0,0.0,0.0,0.0,0.0,0.0,0.0,0.0,0.0,0.0,0.0,0.0,0.0,0.0,0.0,0.0,0.0,0.0,0.0,0.0,0.0,0.0,0.0,0.0,0.0,0.0,0.0,0.0,0.0,0.0,0.0,0.0,0.0,0.0,0.0,0.0,0.0,0.0,0.0,0.0,0.0,0.0,0.0,0.0,0.0,0.0,0.0,0.0,0.0,0.0,0.0,0.0,0.0,0.0,0.0,0.0,0.0,0.0,0.0,0.0,0.0,0.0,0.0,0.0,0.0,0.0,0.0,0.0,0.0,0.0,0.0,0.0,0.0,0.0,0.0,0.0,0.0,0.0,0.0,0.0,1.3601,1.4977,1.6024,1.666,1.7122,1.6066,1.3062,0.0,0.0,0.0,0.0,0.0,0.0,0.0,0.0,0.0,0.0,0.0,0.0,0.0,0.0,0.0,0.0,0.0,0.0,0.0,0.0,0.0,0.0,0.0,0.0,0.0,0.0,0.0,0.0,0.0,0.0,0.0,0.0,0.0,0.0,0.0,0.0,0.0,0.0,0.0,0.0,0.0,0.0,0.0,0.0,0.0,0.0,0.0,0.0,0.0,0.0,0.0,0.0,0.0,0.0,0.0,0.0,0.0,0.0,0.0,0.0,0.0,0.0,0.0,0.0,0.0,0.0,0.0,0.0,0.0,0.0,0.0,0.0,0.0,0.0,0.0,0.0,0.0,0.0,0.0,0.0,0.0,0.0,0.0,0.0,0.0,0.0,0.0,0.0,0.0,0.0,0.0,0.0,0.0,0.0,0.0,0.0,0.0,0.0,0.0,0.0,0.0,0.0,0.0,0.0,1.3025,1.5538,1.5818,1.6024,1.666,1.613,1.5011,1.324,0.0,0.0,0.0,0.0,0.0,0.0,0.0,0.0,0.0,0.0,0.0,0.0,0.0,0.0,0.0,0.0,0.0,0.0,0.0,0.0,0.0,0.0,0.0,0.0,0.0,0.0,0.0,0.0,0.0,0.0,0.0,0.0,0.0,0.0,0.0,0.0,0.0,0.0,0.0,0.0,0.0,0.0,0.0,0.0,0.0,0.0,0.0,0.0,0.0,0.0,0.0,0.0,0.0,0.0,0.0,0.0,0.0,0.0,0.0,0.0,0.0,0.0,0.0,0.0,0.0,0.0,0.0,0.0,0.0,0.0,0.0,0.0,0.0,0.0,0.0,0.0,0.0,0.0,0.0,0.0,0.0,0.0,0.0,0.0,0.0,0.0,0.0,0.0,0.0,0.0,0.0,0.0,0.0,0.0,0.0,0.0,0.0,0.0,0.0,0.0,0.0,0.0,0.0,1.2438,1.3547,1.6053,1.6005,1.6231,1.7351,1.7569,1.6624,1.4309,1.4762,0.0,0.0,0.0,0.0,0.0,0.0,0.0,0.0,0.0,0.0,0.0,0.0,0.0,0.0,0.0,0.0,0.0,0.0,0.0,0.0,0.0,0.0,0.0,0.0,0.0,0.0,0.0,0.0,0.0,0.0,0.0,0.0,0.0,0.0,0.0,0.0,0.0,0.0,0.0,0.0,0.0,0.0,0.0,0.0,0.0,0.0,0.0,0.0,0.0,0.0,0.0,0.0,0.0,0.0,0.0,0.0,0.0,0.0,0.0,0.0,0.0,0.0,0.0,0.0,0.0,0.0,0.0,0.0,0.0,0.0,0.0,0.0,0.0,0.0,0.0,0.0,0.0,0.0,0.0,0.0,0.0,0.0,0.0,0.0,0.0,0.0,0.0,0.0,0.0,0.0,0.0,0.0,0.0,0.0,0.0,0.0,0.0,0.0,0.0,0.0,0.0,0.0,1.3561,1.4376,1.6134,1.6005,1.632,1.7572,1.8026,1.718,1.4712,1.4808,0.0,0.0,0.0,0.0,0.0,0.0,0.0,0.0,0.0,0.0,0.0,0.0,0.0,0.0,0.0,0.0,0.0,0.0,0.0,0.0,0.0,0.0,0.0,0.0,0.0,0.0,0.0,0.0,0.0,0.0,0.0,0.0,0.0,0.0,0.0,0.0,0.0,0.0,0.0,0.0,0.0,0.0,0.0,0.0,0.0,0.0,0.0,0.0,0.0,0.0,0.0,0.0,0.0,0.0,0.0,0.0,0.0,0.0,0.0,0.0,0.0,0.0,0.0,0.0,0.0,0.0,0.0,0.0,0.0,0.0,0.0,0.0,0.0,0.0,0.0,0.0,0.0,0.0,0.0,0.0,0.0,0.0,0.0,0.0,0.0,0.0,0.0,0.0,0.0,0.0,0.0,0.0,0.0,0.0,0.0,0.0,0.0,0.0,0.0,0.0,0.0,0.0,1.4068,1.5511,1.6206,1.6005,1.5952,1.6392,1.5228,1.4171,1.3372,1.2427,0.0,0.0,0.0,0.0,0.0,0.0,0.0,0.0,0.0,0.0,0.0,0.0,0.0,0.0,0.0,0.0,0.0,0.0,0.0,0.0,0.0,0.0,0.0,0.0,0.0,0.0,0.0,0.0,0.0,0.0,0.0,0.0,0.0,0.0,0.0,0.0,0.0,0.0,0.0,0.0,0.0,0.0,0.0,0.0,0.0,0.0,0.0,0.0,0.0,0.0,0.0,0.0,0.0,0.0,0.0,0.0,0.0,0.0,0.0,0.0,0.0,0.0,0.0,0.0,0.0,0.0,0.0,0.0,0.0,0.0,0.0,0.0,0.0,0.0,0.0,0.0,0.0,0.0,0.0,0.0,0.0,0.0,0.0,0.0,0.0,0.0,0.0,0.0,0.0,0.0,0.0,0.0,0.0,0.0,0.0,0.0,0.0,0.0,0.0,0.0,0.0,0.0,1.3641,1.495,0.0,1.6597,1.7355,1.8209,1.8486,1.7795,1.5917,0.0,0.0,0.0,0.0,0.0,0.0,0.0,0.0,0.0,0.0,0.0,0.0,0.0,0.0,0.0,0.0,0.0,0.0,0.0,0.0,0.0,0.0,0.0,0.0,0.0,0.0,0.0,0.0,0.0,0.0,0.0,0.0,0.0,0.0,0.0,0.0,0.0,0.0,0.0,0.0,0.0,0.0,0.0,0.0,0.0,0.0,0.0,0.0,0.0,0.0,0.0,0.0,0.0,0.0,0.0,0.0,0.0,0.0,0.0,0.0,0.0,0.0,0.0,0.0,0.0,0.0,0.0,0.0,0.0,0.0,0.0,0.0,0.0,0.0,0.0,0.0,0.0,0.0,0.0,0.0,0.0,0.0,0.0,0.0,0.0,0.0,0.0,0.0,0.0,0.0,0.0,0.0,0.0,0.0,0.0,0.0,0.0,0.0,0.0,0.0,0.0,0.0,1.2198,1.3667,1.5071,0.0,1.7185,1.8149,1.9196,1.9694,1.9023,1.6775,0.0,0.0,0.0,0.0,0.0,0.0,0.0,0.0,0.0,0.0,0.0,0.0,0.0,0.0,0.0,0.0,0.0,0.0,0.0,0.0,0.0,0.0,0.0,0.0,0.0,0.0,0.0,0.0,0.0,0.0,0.0,0.0,0.0,0.0,0.0,0.0,0.0,0.0,0.0,0.0,0.0,0.0,0.0,0.0,0.0,0.0,0.0,0.0,0.0,0.0,0.0,0.0,0.0,0.0,0.0,0.0,0.0,0.0,0.0,0.0,0.0,0.0,0.0,0.0,0.0,0.0,0.0,0.0,0.0,0.0,0.0,0.0,0.0,0.0,0.0,0.0,0.0,0.0,0.0,0.0,0.0,0.0,0.0,0.0,0.0,0.0,0.0,0.0,0.0,0.0,0.0,0.0,0.0,0.0,0.0,0.0,0.0,0.0,0.0,0.0,0.0,0.0,1.2342,1.4362,1.6292,1.7544,1.7731,1.8041,1.8762,1.7813,1.6534,0.0,0.0,0.0,0.0,0.0,0.0,0.0,0.0,0.0,0.0,0.0,0.0,0.0,0.0,0.0,0.0,0.0,0.0,0.0,0.0,0.0,0.0,0.0,0.0,0.0,0.0,0.0,0.0,0.0,0.0,0.0,0.0,0.0,0.0,0.0,0.0,0.0,0.0,0.0,0.0,0.0,0.0,0.0,0.0,0.0,0.0,0.0,0.0,0.0,0.0,0.0,0.0,0.0,0.0,0.0,0.0,0.0,0.0,0.0,0.0,0.0,0.0,0.0,0.0,0.0,0.0,0.0,0.0,0.0,0.0,0.0,0.0,0.0,0.0,0.0,0.0,0.0,0.0,0.0,0.0,0.0,0.0,0.0,0.0,0.0,0.0,0.0,0.0,0.0,0.0,0.0,0.0,0.0,0.0,0.0,0.0,0.0,0.0,0.0,0.0,0.0,0.0,0.0,1.3448,1.5673,1.7279,1.7638,1.9222,1.9827,1.8879,2.0079,1.9708,1.6872,0.0,0.0,0.0,0.0,0.0,0.0,0.0,0.0,0.0,0.0,0.0,0.0,0.0,0.0,0.0,0.0,0.0,0.0,0.0,0.0,0.0,0.0,0.0,0.0,0.0,0.0,0.0,0.0,0.0,0.0,0.0,0.0,0.0,0.0,0.0,0.0,0.0,0.0,0.0,0.0,0.0,0.0,0.0,0.0,0.0,0.0,0.0,0.0,0.0,0.0,0.0,0.0,0.0,0.0,0.0,0.0,0.0,0.0,0.0,0.0,0.0,0.0,0.0,0.0,0.0,0.0,0.0,0.0,0.0,0.0,0.0,0.0,0.0,0.0,0.0,0.0,0.0,0.0,0.0,0.0,0.0,0.0,0.0,0.0,0.0,0.0,0.0,0.0,0.0,0.0,0.0,0.0,0.0,0.0,0.0,0.0,0.0,0.0,0.0,0.0,0.0,0.0,1.3954,1.6224,1.8056,1.9039,2.0432,2.0935,2.0095,2.1231,2.0684,1.7578,0.0,0.0,0.0,0.0,0.0,0.0,0.0,0.0,0.0,0.0,0.0,0.0,0.0,0.0,0.0,0.0,0.0,0.0,0.0,0.0,0.0,0.0,0.0,0.0,0.0,0.0,0.0,0.0,0.0,0.0,0.0,0.0,0.0,0.0,0.0,0.0,0.0,0.0,0.0,0.0,0.0,0.0,0.0,0.0,0.0,0.0,0.0,0.0,0.0,0.0,0.0,0.0,0.0,0.0,0.0,0.0,0.0,0.0,0.0,0.0,0.0,0.0,0.0,0.0,0.0,0.0,0.0,0.0,0.0,0.0,0.0,0.0,0.0,0.0,0.0,0.0,0.0,0.0,0.0,0.0,0.0,0.0,0.0,0.0,0.0,0.0,0.0,0.0,0.0,0.0,0.0,0.0,0.0,0.0,0.0,0.0,0.0,0.0,0.0,0.0,0.0,0.0,1.4135,1.6461,1.8856,2.1078,2.1391,2.154,2.1784,2.1461,2.0215,1.7656,0.0,0.0,0.0,0.0,0.0,0.0,0.0,0.0,0.0,0.0,0.0,0.0,0.0,0.0,0.0,0.0,0.0,0.0,0.0,0.0,0.0,0.0,0.0,0.0,0.0,0.0,0.0,0.0,0.0,0.0,0.0,0.0,0.0,0.0,0.0,0.0,0.0,0.0,0.0,0.0,0.0,0.0,0.0,0.0,0.0,0.0,0.0,0.0,0.0,0.0,0.0,0.0,0.0,0.0,0.0,0.0,0.0,0.0,0.0,0.0,2.1602,0.0,0.0,0.0,0.0,0.0,0.0,0.0,0.0,0.0,0.0,0.0,0.0,0.0,0.0,0.0,0.0,0.0,0.0,0.0,0.0,0.0,0.0,0.0,0.0,0.0,0.0,0.0,0.0,0.0,0.0,0.0,0.0,0.0,0.0,0.0,0.0,0.0,0.0,0.0,0.0,0.0,1.5438,1.848,2.0702,2.1239,2.2164,2.2239,2.1084,2.1453,2.0781,1.8481,1.6914,0.0,0.0,0.0,0.0,0.0,0.0,0.0,0.0,0.0,0.0,0.0,0.0,0.0,0.0,0.0,0.0,0.0,0.0,0.0,0.0,0.0,0.0,0.0,0.0,0.0,0.0,0.0,0.0,0.0,0.0,0.0,0.0,0.0,0.0,0.0,0.0,0.0,0.0,0.0,0.0,0.0,0.0,0.0,0.0,0.0,0.0,0.0,0.0,0.0,0.0,0.0,0.0,0.0,0.0,0.0,0.0,0.0,0.0,0.0,0.0,2.2617,0.0,0.0,0.0,0.0,0.0,0.0,0.0,0.0,0.0,0.0,0.0,0.0,0.0,0.0,0.0,0.0,0.0,0.0,0.0,0.0,0.0,0.0,0.0,0.0,0.0,0.0,0.0,0.0,0.0,0.0,0.0,0.0,0.0,0.0,0.0,0.0,0.0,0.0,0.0,0.0,1.5995,1.9199,2.1525,2.212,2.2731,2.2689,2.1644,2.154,2.082,1.9062,1.7539,0.0,0.0,0.0,0.0,0.0,0.0,0.0,0.0,0.0,0.0,0.0,0.0,0.0,0.0,0.0,0.0,0.0,0.0,0.0,0.0,0.0,0.0,0.0,0.0,0.0,0.0,0.0,0.0,0.0,0.0,0.0,0.0,0.0,0.0,0.0,0.0,0.0,0.0,0.0,0.0,0.0,0.0,0.0,0.0,0.0,0.0,0.0,0.0,0.0,0.0,0.0,0.0,0.0,2.6719,2.735,2.8027,2.832,2.8672,2.8965,2.6816,2.5742,2.5458,0.0,0.0,0.0,0.0,0.0,0.0,0.0,0.0,0.0,0.0,0.0,0.0,0.0,0.0,0.0,0.0,0.0,0.0,0.0,0.0,0.0,0.0,0.0,0.0,0.0,2.0376,2.0416,0.0,0.0,0.0,0.0,0.0,0.0,0.0,0.0,0.0,0.0,0.0,0.0,1.6538,1.9529,2.1913,2.2994,2.3101,2.2964,2.2656,2.1836,2.0859,1.9707,1.8281,1.6855,0.0,0.0,0.0,0.0,0.0,0.0,0.0,0.0,0.0,0.0,0.0,0.0,0.0,0.0,0.0,0.0,0.0,0.0,0.0,0.0,0.0,0.0,0.0,0.0,0.0,0.0,0.0,0.0,0.0,0.0,0.0,0.0,1.9199,2.0155,0.0,0.0,0.0,0.0,0.0,0.0,0.0,0.0,0.0,0.0,0.0,0.0,0.0,2.5156,2.6406,2.8769,2.9805,2.9551,3.1484,3.2266,3.2031,3.1719,3.1797,3.2187,3.1836,0.0,2.7297,2.6269,0.0,0.0,0.0,0.0,0.0,0.0,0.0,0.0,0.0,0.0,0.0,0.0,0.0,0.0,0.0,0.0,0.0,0.0,0.0,0.0,0.0,0.0,2.4617,2.4253,2.4365,2.4062,0.0,1.8999,1.5842,1.4473,0.0,0.0,0.0,0.0,0.0,0.0,0.0,0.0,1.7807,2.0569,2.2562,2.3062,2.3101,2.3081,2.3023,2.2285,2.1562,2.0976,1.9026,1.7832,1.7598,1.5284,0.0,0.0,0.0,0.0,0.0,0.0,0.0,0.0,0.0,0.0,0.0,0.0,0.0,0.0,0.0,0.0,0.0,0.0,0.0,0.0,0.0,0.0,0.0,0.0,0.0,0.0,0.0,0.0,0.0,1.8984,2.0703,2.0625,2.1055,2.0742,0.0,0.0,0.0,0.0,0.0,0.0,0.0,0.0,0.0,2.7441,2.7578,2.8223,2.9531,3.1152,3.1973,3.2031,3.3223,3.3809,3.3848,3.3672,3.3828,3.4238,3.3984,3.3008,3.1445,2.9121,2.7051,2.5176,0.0,0.0,0.0,0.0,2.3144,2.3633,2.4844,2.5234,0.0,0.0,0.0,0.0,0.0,0.0,0.0,0.0,0.0,0.0,0.0,0.0,0.0,2.5684,2.5625,2.5215,2.446,2.2298,1.9789,0.0,1.628,1.5221,1.3094,0.0,0.0,0.0,0.0,0.0,1.9079,2.1361,2.2886,2.3081,2.3101,2.3101,2.3101,2.2363,2.1699,2.1229,1.9883,1.8769,1.8047,1.6882,1.5644,0.0,0.0,0.0,0.0,0.0,0.0,0.0,0.0,0.0,0.0,0.0,0.0,0.0,0.0,0.0,0.0,0.0,0.0,0.0,0.0,0.0,0.0,0.0,0.0,0.0,0.0,0.0,0.0,2.0664,2.2051,2.1212,2.2402,2.248,0.0,0.0,0.0,0.0,0.0,0.0,2.625,2.6699,2.7857,3.0156,3.0449,3.1133,3.2324,3.3086,3.3672,3.4082,3.4531,3.4961,3.5371,3.5371,3.5488,3.5703,3.5351,3.5078,3.4648,3.1641,2.9453,2.7891,2.668,2.5879,2.5488,2.6152,2.6415,2.6746,2.8496,2.8887,2.8496,2.7773,0.0,2.4844,2.2738,0.0,0.0,0.0,0.0,2.3081,2.4941,2.5488,2.582,2.6797,2.6699,2.6211,2.5547,2.457,2.2949,0.0,1.8967,1.7842,1.5459,0.0,0.0,0.0,0.0,1.916,2.0323,2.1924,2.2984,2.3081,2.3101,2.3101,2.3101,2.2363,2.1758,2.1385,2.0469,1.9492,1.8535,1.8184,1.7207,1.5517,0.0,0.0,0.0,0.0,0.0,0.0,0.0,0.0,0.0,0.0,0.0,0.0,0.0,0.0,0.0,0.0,0.0,0.0,0.0,0.0,0.0,0.0,0.0,0.0,0.0,0.0,0.0,0.0,0.0,2.2519,2.4258,0.0,0.0,0.0,0.0,2.4793,2.5664,2.7266,2.9805,2.998,3.1172,3.373,3.3437,3.3652,3.4531,3.5019,3.5469,3.5898,3.6328,3.6758,3.7168,3.7168,3.6953,3.6601,3.6582,3.6113,3.5215,3.3379,3.1875,3.0605,2.9687,2.8828,2.8105,2.8144,2.8418,2.8828,2.9355,2.9531,2.9629,3.041,2.9238,2.7376,2.6387,2.5488,0.0,0.0,2.5742,2.6934,2.7851,2.8398,2.8711,2.8769,2.8476,2.7832,2.6582,2.5032,2.3592,0.0,2.1595,2.0349,1.8267,0.0,1.7568,1.7862,1.8156,1.9146,2.1498,2.2204,2.2695,2.3062,2.3101,2.3101,2.3101,2.2363,2.1875,2.1855,2.0625,1.9883,1.9824,1.8652,1.7773,1.7298,1.5147,0.0,0.0,0.0,0.0,0.0,0.0,0.0,0.0,0.0,0.0,0.0,0.0,0.0,0.0,0.0,0.0,0.0,0.0,0.0,0.0,0.0,0.0,0.0,0.0,0.0,0.0,0.0,0.0,2.5039,2.6894,0.0,2.5977,2.6026,2.6632,2.7924,2.8789,3.0156,3.2168,3.2559,3.3379,3.4883,3.5039,3.5371,3.5957,3.6406,3.6699,3.6836,3.6992,3.7148,3.7305,3.7305,3.7226,3.7051,3.6797,3.6504,3.6152,3.5234,3.4101,3.2871,3.2285,3.1699,3.1191,3.1191,3.1289,3.1426,3.1582,3.1641,3.1504,3.0703,2.9746,2.8726,2.7559,2.7043,2.6847,2.707,2.748,2.7969,2.8555,2.8613,2.8437,2.8184,2.7578,2.6934,2.6484,2.5508,2.4584,2.4251,2.2815,2.1459,2.069,2.0636,2.0598,2.0157,2.0598,2.1392,2.2535,2.2789,2.2925,2.3081,2.3101,2.3101,2.3101,2.2363,2.1894,2.1894,2.0644,1.9785,1.9512,1.9336,1.8652,1.7402,1.6621,1.5234,0.0,0.0,0.0,0.0,0.0,0.0,0.0,0.0,0.0,0.0,0.0,0.0,0.0,0.0,0.0,0.0,0.0,0.0,0.0,0.0,0.0,0.0,0.0,0.0,0.0,0.0,2.7187,2.7051,2.918,3.0098,2.8652,2.8926,2.9648,3.0781,3.1543,3.2578,3.4004,3.4355,3.4922,3.5801,3.6094,3.6445,3.6875,3.7168,3.7363,3.75,3.75,3.7578,3.7734,3.7734,3.7656,3.748,3.707,3.6797,3.6641,3.6191,3.5508,3.4687,3.4258,3.3828,3.3437,3.3437,3.3359,3.3203,3.3066,3.291,3.2598,3.1445,3.0781,3.0234,2.9101,2.8848,2.8926,2.8769,2.8828,2.8965,2.9101,2.8926,2.8613,2.8184,2.7559,2.6953,2.666,2.6035,2.5469,2.5312,2.3964,2.2715,2.2372,2.2539,2.248,2.1736,2.2148,2.2676,2.3042,2.3101,2.3101,2.3101,2.3101,2.3042,2.2906,2.2285,2.1816,2.168,2.0566,1.9727,1.9297,1.9414,1.8887,1.7617,1.7012,1.5859,1.4094,0.0,0.0,0.0,0.0,0.0,0.0,0.0,0.0,0.0,0.0,0.0,0.0,0.0,0.0,0.0,0.0,0.0,0.0,0.0,0.0,0.0,0.0,0.0,2.3867,2.6836,2.8867,2.8476,3.1055,3.2187,3.0527,3.1504,3.2598,3.3418,3.3867,3.4492,3.5391,3.543,3.582,3.666,3.6699,3.6894,3.7305,3.7324,3.7539,3.7949,3.7949,3.8164,3.8574,3.8574,3.834,3.791,3.748,3.707,3.666,3.6211,3.6016,3.5976,3.5566,3.5137,3.4726,3.4726,3.4453,3.4004,3.3594,3.3164,3.2812,3.2793,3.2519,3.2031,3.1172,3.1191,3.125,2.9961,2.9883,3.0098,2.9668,2.9551,2.9434,2.9004,2.8574,2.8047,2.7207,2.6699,2.6269,2.5791,2.5011,2.4199,2.3296,2.3184,2.309,2.2617,2.2539,0.0,2.3042,2.3101,2.3101,2.3101,2.3101,2.2925,2.2559,2.2148,2.1719,2.1249,2.0372,1.9727,1.9316,1.8851,1.8422,1.8066,1.6348,1.503,1.4172,0.0,0.0,0.0,0.0,0.0,0.0,0.0,0.0,0.0,0.0,0.0,0.0,0.0,0.0,0.0,0.0,0.0,0.0,0.0,0.0,0.0,2.4375,2.6016,2.5723,2.8633,3.0996,3.1504,3.3105,3.4121,3.3984,3.3984,3.4238,3.4805,3.4961,3.541,3.6269,3.6328,3.6562,3.7109,3.7422,3.7637,3.7754,3.8066,3.8281,3.8398,3.8398,3.8457,3.8574,3.8574,3.8516,3.8359,3.7617,3.7226,3.707,3.6328,3.6016,3.6016,3.5898,3.5586,3.5195,3.5195,3.4726,3.4062,3.3945,3.3613,3.3203,3.2891,3.2715,3.2461,3.1601,3.1426,3.1309,3.0312,3.0098,3.0019,2.9297,2.9101,2.8984,2.8574,2.8144,2.7826,2.7539,2.6914,2.6348,2.623,2.5762,2.5195,2.4629,2.4023,2.3574,2.3457,2.3164,0.0,2.3081,2.3101,2.3101,2.3101,2.3101,2.3042,2.2925,2.2578,2.2168,2.1738,2.0586,1.9863,1.9746,1.9336,1.9062,1.8945,1.7559,1.6406,0.0,0.0,0.0,0.0,0.0,0.0,0.0,0.0,0.0,0.0,0.0,0.0,0.0,0.0,0.0,0.0,0.0,0.0,0.0,0.0,0.0,0.0,2.6836,2.875,2.9023,3.0937,3.2695,3.375,3.4687,3.5351,3.5625,3.541,3.5371,3.5644,3.582,3.6152,3.6641,3.6836,3.7129,3.7539,3.7793,3.8008,3.8203,3.8457,3.8574,3.8574,3.8574,3.8574,3.8574,3.8574,3.8574,0.0,3.748,3.7129,3.7226,3.6191,3.5859,0.0,0.0,0.0,0.0,0.0,3.5059,3.457,3.4199,3.3906,3.3633,3.3203,3.3066,3.2891,3.2051,3.1797,3.1562,3.0488,3.0078,2.9785,2.9101,2.8789,2.8594,2.8359,2.8105,2.7943,2.7767,2.7129,2.6602,2.6426,0.0,0.0,2.5391,2.4785,2.4258,2.4082,2.3691,2.3418,2.3418,2.3198,2.3101,2.3101,2.3101,2.3023,2.2847,2.2613,0.0,0.0,0.0,2.0019,1.9668,1.9414,0.0,0.0,0.0,0.0,0.0,0.0,0.0,0.0,1.5117,1.498,0.0,0.0,0.0,0.0,0.0,0.0,0.0,0.0,0.0,0.0,0.0,0.0,0.0,0.0,0.0,0.0,2.9238,3.1562,3.291,3.3418,3.4082,3.5254,3.5801,3.6094,3.6094,3.6133,3.6172,3.6172,3.6523,3.6758,3.6816,0.0,0.0,0.0,0.0,3.8184,3.8574,3.8574,3.8574,3.8574,3.8535,3.8496,3.8496,3.8496,3.8476,3.8359,3.7187,3.6855,3.7051,3.582,3.5527,3.5879,3.5976,3.6016,3.5976,3.5605,3.543,0.0,0.0,0.0,0.0,3.3555,3.3379,3.3184,3.2344,3.209,3.1836,3.0547,2.9922,2.9531,2.9043,2.8633,2.8359,2.8301,2.8301,2.8184,2.7812,2.7383,2.6973,2.6543,2.6113,2.5752,2.5693,2.5371,2.4941,2.4551,2.4141,2.3867,2.3867,2.3477,2.3159,2.3159,0.0,0.0,2.2617,2.2578,2.2207,2.1327,2.084,2.0253,1.9453,1.9434,1.9434,1.9434,1.9004,1.8909,1.9297,1.8906,1.8695,1.8695,1.6726,1.625,0.0,0.0,0.0,0.0,0.0,0.0,0.0,0.0,0.0,0.0,0.0,0.0,0.0,0.0,0.0,2.9023,3.1133,3.3008,3.4668,3.4961,3.5117,3.5371,3.6074,3.6543,3.6543,3.6855,3.7051,3.7051,3.7129,3.7324,3.7656,3.7754,0.0,3.8437,3.8457,3.8496,3.8574,3.8574,3.8574,3.8574,0.0,0.0,3.8047,3.8047,3.7871,3.7519,3.6934,3.6523,3.6191,3.5234,3.4883,3.5019,3.5742,3.6016,3.6016,3.5937,3.5684,3.5371,3.5195,3.4668,3.4004,3.3555,3.3184,3.2754,3.1894,3.1641,0.0,3.0469,3.0137,2.9902,2.9121,2.8848,2.8711,2.8379,2.8301,2.8262,2.8184,2.7832,2.7422,2.6973,2.6543,2.6152,2.5752,2.5371,2.5086,2.5008,2.457,2.4297,2.4297,2.3926,2.3672,2.3672,2.334,2.3062,2.2984,2.2984,2.2656,2.1816,2.1055,2.0527,2.037,2.0351,2.0351,2.0351,1.9883,1.9531,1.9297,1.9199,1.9336,1.9648,1.8887,1.8437,0.0,0.0,0.0,0.0,0.0,0.0,0.0,0.0,0.0,0.0,0.0,2.3803,2.5134,0.0,2.9004,3.1152,3.2773,3.4141,3.5234,3.5566,3.5703,3.5703,3.6074,3.6348,3.6348,3.6738,3.6992,3.6992,3.7363,3.7695,3.791,3.8125,3.8359,3.8574,3.8574,3.8574,3.8574,3.8359,3.8242,3.8242,3.7812,3.7617,3.7617,3.7617,3.75,3.7246,3.6406,3.6035,3.5957,3.5059,3.4707,3.4746,3.5195,3.5508,3.5703,3.5703,3.5703,3.5684,3.5469,3.5098,3.459,3.3711,3.3281,3.291,3.1836,3.1523,3.1387,3.0723,3.0371,3.0098,2.9668,2.9238,2.8867,2.8652,2.8437,2.8301,2.8301,2.7969,2.765,2.7383,2.6836,2.6328,2.6094,2.5703,2.541,2.541,2.5019,2.4746,2.4746,2.4375,2.4023,2.3809,2.3594,2.3379,2.312,2.2906,2.2656,2.2227,2.1582,2.1271,2.1271,2.1271,2.1271,2.1271,2.0801,2.0586,2.0586,2.0371,2.0488,2.0898,2.0684,2.0117,0.0,0.0,0.0,0.0,0.0,0.0,0.0,0.0,2.3928,2.4698,2.5395,2.6389,2.8002,2.9629,3.125,3.2793,3.4043,3.5,3.5449,3.5801,3.6016,3.6016,3.6094,3.6152,3.6152,3.6543,3.6816,3.6914,3.7539,3.7969,3.8047,3.8379,3.8574,3.8574,3.8496,3.8457,3.8457,3.8008,3.7812,3.7793,3.7383,3.7168,3.7168,3.7168,3.7129,3.6992,3.5781,3.5351,3.5469,3.4746,3.4453,3.4453,3.4453,3.4726,3.5156,3.5234,3.5469,3.5723,3.5371,3.5195,3.4941,3.3711,3.3242,3.2949,3.1758,3.1406,3.1328,3.0996,3.0625,3.0312,3.0215,2.9687,2.9141,2.9062,2.873,2.8418,2.8418,2.8086,2.7806,2.7728,2.7109,2.6602,2.6523,2.6152,2.5791,2.5693,2.543,2.5195,2.5195,2.4824,2.4414,2.4082,2.3965,2.373,2.3257,2.2891,2.2598,2.2519,2.2109,2.1914,2.2012,2.1934,2.1934,2.2012,2.1582,2.1543,2.1894,2.1523,2.1543,2.1894,2.1894,2.1309,2.5254,2.3409,2.3375,2.402,2.3851,2.4497,0.0,0.0,2.8228,2.9007,3.0272,3.1119,3.064,3.1621,3.2812,3.3769,3.4707,3.5469,3.5898,3.5996,3.6016,3.6016,3.6367,3.6601,3.6601,3.6973,3.7383,3.7754,3.7871,3.8086,3.8476,3.8555,3.8574,3.8574,3.8203,3.7988,3.7988,3.7578,3.7363,3.7363,3.6953,3.6738,3.6738,3.6738,3.6523,3.6113,3.5176,3.4375,3.3711,3.3613,3.3574,3.3574,3.3574,3.3828,3.4258,3.4648,3.4805,3.4844,3.4785,3.4531,3.4062,3.3164,3.2617,3.2148,3.123,3.0957,3.0957,3.0898,3.0859,3.0723,3.0312,3.0137,2.9961,2.959,2.916,2.8848,2.8848,2.8516,2.8105,2.7787,2.765,2.7402,2.7012,2.6602,2.6191,2.5752,2.5635,2.5615,2.5615,2.5273,2.498,2.4969,2.457,2.418,2.375,2.334,2.293,2.2539,2.2109,2.2051,2.2422,2.209,2.207,2.2441,2.2031,2.1836,2.1894,2.1836,2.1836,2.1894,2.1894,2.1797,2.7838,2.7102,2.7274,2.6467,2.7479,2.8792,2.9225,2.9783,3.0193,3.0454,3.1354,3.2116,3.2035,3.3047,3.4023,0.0,3.5176,3.582,3.5996,3.6016,3.5937,3.5684,3.6035,3.6289,3.6289,3.668,3.7012,3.7187,3.7656,3.8008,3.8184,3.8437,3.8457,3.8203,3.8027,3.7812,3.7559,3.7148,3.6934,3.6934,3.6504,3.6289,3.6289,3.6289,3.6055,3.5625,3.498,3.4355,3.3789,3.3535,3.3418,3.3418,3.3418,3.3535,3.375,3.418,3.4492,3.4707,3.4707,3.459,3.4297,3.3437,3.2871,3.2363,3.1523,3.1094,3.0898,3.0898,3.0898,3.084,3.0644,3.0391,3.0156,2.998,2.9609,2.9219,2.8965,2.8789,2.8535,2.8105,2.7885,2.7669,2.7422,2.7031,2.6602,2.6172,2.5849,2.5693,2.5693,2.5518,2.5352,2.5145,2.4668,2.4355,2.418,2.4004,2.3711,2.3281,2.3086,2.2969,2.2847,2.2715,2.2695,2.2828,2.2652,2.2617,2.2617,2.2617,2.2617,2.2617,2.2617,2.2617,2.8584,2.9124,2.9809,2.8342,2.9961,3.1612,3.0096,3.0654,3.1499,3.1427,3.1992,3.2598,3.291,3.3828,3.457,3.4687,3.5351,3.5879,3.5996,3.5918,3.5684,3.5254,3.5371,3.5488,3.5488,3.6094,3.6543,3.666,3.7344,3.7812,3.791,3.8223,3.8242,3.793,3.7695,3.7441,3.7129,3.6699,3.6484,3.6484,3.6172,3.6016,3.6016,3.6016,3.5801,3.5371,3.4902,3.4453,3.4043,3.3594,3.3418,3.3418,3.3418,3.3418,3.3457,3.3769,3.4082,3.4336,3.4336,3.4336,3.4219,3.3496,3.3047,3.2637,3.1777,3.1309,3.1035,3.0918,3.0898,3.0898,3.0898,3.0644,3.0391,3.0391,3.0059,2.9648,2.9336,2.9082,2.8828,2.8516,2.8125,2.7885,2.7885,2.748,2.709,2.6797,2.6367,2.5947,2.5713,2.5693,2.5557,2.5293,2.4961,2.4727,2.4609,2.459,2.4414,2.3984,2.3965,2.3828,2.3452,2.3452,2.3452,2.3452,2.3335,2.3276,2.3276,2.3276,2.3276,2.3276,2.3276,2.3335,2.6368,2.7589,2.9014,2.8873,3.0054,3.1271,3.1387,3.1818,3.2268,3.2656,3.3086,3.3379,3.3398,3.3789,3.4219,3.4629,3.5098,3.5547,3.5957,3.5664,3.5234,3.4766,3.4375,3.4141,0.0,3.5293,3.6211,3.6641,3.707,3.75,3.791,3.793,3.793,3.793,3.7129,3.6699,3.668,3.625,3.6035,3.6035,3.6035,3.6016,3.6016,3.6016,3.5801,3.5371,3.4902,3.4453,3.4043,3.3594,3.3418,3.3418,3.3418,3.3418,3.3418,3.3437,3.3457,3.3457,3.3457,3.3457,3.3379,3.2949,3.2812,3.2637,3.1777,3.1504,3.1406,3.0996,3.0898,3.0898,3.0898,3.0879,3.0859,3.0859,3.0508,3.0176,3.0156,2.9512,2.8906,2.8906,2.8555,2.8281,2.8281,2.793,2.7689,2.7689,2.7266,2.668,2.5791,2.5693,2.5693,2.5674,2.5654,2.5527,2.5125,2.5106,2.4863,2.4414,2.4394,2.4394,2.4375,2.4375,2.4375,2.4375,2.3984,2.3769,2.3769,2.3769,2.3769,2.3769,2.3769,2.3984,2.7415,2.905,3.0658,2.9964,3.1466,3.3073,3.2491,3.2695,3.2969,3.2832,3.2461,3.207,3.1797,3.209,3.2617,3.332,3.4277,3.5195,3.5918,3.5898,3.543,3.4394,3.4668,0.0,0.0,0.0,0.0,3.5762,3.5957,3.6348,3.7051,3.709,3.709,3.709,3.6816,3.6543,3.623,3.6094,3.6016,3.6016,3.6016,3.6016,3.6016,3.6016,3.5937,3.5762,3.5019,3.4609,3.4434,3.3711,3.3418,3.3418,3.3418,3.3418,3.3418,3.3418,3.3418,3.3418,3.3418,3.3418,3.3398,3.3262,3.3027,3.2734,3.2461,3.2168,3.1855,3.1426,3.1309,3.125,3.0957,3.0898,3.0898,3.0898,3.0762,3.0566,3.0273,2.9961,2.959,2.9023,2.8809,2.8613,2.834,2.8184,2.7988,2.7767,2.7051,2.6504,2.6211,2.5869,2.5693,2.5693,2.5693,2.5635,2.5527,2.5508,2.5312,2.4883,2.4844,2.4727,2.4434,2.4414,2.4414,2.4414,2.4277,2.4199,2.4199,2.4199,2.4199,2.4199,2.4199,2.4277,2.8222,2.9973,3.1628,3.1425,3.2734,3.3983,3.3434,3.3223,3.3086,3.2656,3.1758,3.0918,3.0488,3.0391,3.0801,3.2129,3.3164,3.4258,3.5605,3.5644,3.5176,3.4199,3.4434,3.4355,0.0,0.0,0.0,3.5312,3.5527,3.5918,3.6641,3.6523,3.6504,3.666,3.6523,3.6309,3.6016,3.6016,3.6016,3.6016,3.6016,3.6016,3.6016,3.6016,3.5937,3.5762,3.5019,3.4609,3.4414,3.3711,3.3418,3.3418,3.3418,3.3418,3.3418,3.3418,3.3418,3.3418,3.3418,3.3418,3.3418,3.3418,3.3242,3.2988,3.2832,3.2598,3.2305,3.1875,3.1641,3.1445,3.1191,3.0996,3.0898,3.0898,3.0898,3.082,3.0508,3.0312,3.0039,2.9473,2.9121,2.8828,2.8555,2.8398,2.8203,2.793,2.7337,2.6738,2.6426,2.6152,2.5918,2.5713,2.5693,2.5693,2.5693,2.5693,2.5557,2.5332,2.5312,2.5176,2.4902,2.4836,2.4836,2.4836,2.4727,2.4648,2.4648,2.4648,2.4648,2.4648,2.4648,2.4746,2.8863,3.0332,3.1953,3.3184,3.3789,3.4062,3.4043,3.3379,3.2617,3.2129,3.0976,2.9883,0.0,0.0,2.8926,3.1035,3.1855,3.2969,3.5098,3.5039,3.4609,0.0,0.0,0.0,0.0,0.0,0.0,3.5273,0.0,3.6133,3.6582,3.6211,3.6191,3.6621,3.623,3.6016,3.6016,3.6016,3.6016,3.6016,3.6016,3.6016,3.6016,3.5996,3.5762,3.5371,3.4883,3.4434,3.4043,3.3594,3.3418,3.3418,3.3418,3.3418,3.3418,3.3418,3.3418,3.3418,3.3418,3.3418,3.3418,3.3418,3.3418,3.334,3.2949,3.2832,3.2734,3.2324,3.1894,3.1582,3.1523,3.123,3.0918,3.0898,3.0898,3.0898,3.0898,3.0547,3.0234,3.0195,2.9512,2.8926,2.8926,2.8574,2.8301,2.8301,2.8002,2.7402,2.6562,2.6445,2.625,2.5771,2.5732,2.5713,2.5693,2.5693,2.5693,2.5693,2.5693,2.5693,2.5693,2.5693,2.5693,2.5693,2.5312,2.5145,2.5145,2.5145,2.5145,2.5145,2.5145,2.5332,3.0897,3.2363,3.3574,3.4219,3.4219,3.3984,3.3672,3.293,3.1934,3.0527,2.8945,2.75,0.0,0.0,0.0,2.9336,3.1562,0.0,3.5176,3.5566,0.0,3.4629,0.0,3.4629,3.3965,3.4512,0.0,0.0,3.4687,3.4902,3.5684,3.5605,3.5742,3.6172,3.6074,3.6016,3.6016,3.6016,3.6016,3.6016,3.6016,3.6016,3.6016,3.5703,3.5488,3.5351,3.457,3.416,3.4043,3.3594,3.3418,3.3418,3.3418,3.3418,3.3418,3.3418,3.3418,3.3418,3.3418,3.3418,3.3418,3.3418,3.3418,3.3398,3.3301,3.3262,3.3184,3.2754,3.2559,3.2324,3.168,3.1445,3.1269,3.0957,3.0898,3.0898,3.0898,3.0801,3.0605,3.0273,2.9512,2.8926,2.8926,2.8574,2.8301,2.8301,2.8203,2.7949,2.7454,2.7051,2.6699,2.6269,2.623,2.6094,2.5713,2.5693,2.5693,2.5693,2.5693,2.5693,2.5693,2.5693,2.5693,2.5693,2.5577,2.5566,2.5566,2.5566,2.5566,2.5566,2.5566,2.5577,3.2285,3.3672,3.4707,3.4941,3.4668,3.4082,3.3086,3.2051,3.0644,2.8359,2.666,2.5254,2.4141,2.4707,2.5996,0.0,0.0,0.0,3.4824,3.5469,3.5566,0.0,3.5234,0.0,3.4707,3.4922,3.498,0.0,3.4668,3.4863,3.5371,3.5391,3.5586,3.6016,3.6016,3.6016,3.6016,3.6016,3.6016,3.6016,3.6016,3.5918,3.5742,3.5508,3.5176,3.4785,0.0,3.3965,3.3769,3.3516,3.3418,3.3418,3.3418,3.3418,3.3418,3.3418,3.3418,3.3418,3.3418,3.3418,3.3418,3.3418,3.3418,3.3418,3.3418,3.3418,3.3379,3.3144,3.293,3.2676,3.2207,3.1797,3.1465,3.123,3.1035,3.0898,3.0898,3.0898,3.0762,3.0293,2.9805,2.9414,2.9238,2.8848,2.8574,2.8574,2.8418,2.8203,2.7969,2.7559,2.7129,2.6699,2.666,2.6562,2.6259,2.6133,2.6016,2.6016,2.5791,2.5693,2.5693,2.5693,2.5693,2.5693,2.5693,2.5693,2.5693,2.5693,2.5693,2.5693,2.5693,2.5693,3.3437,3.457,3.5469,3.541,3.5,3.416,3.2402,3.0898,2.9023,2.6074,2.4394,2.3223,2.248,2.2793,2.4206,2.7219,0.0,3.1777,3.4336,3.5098,3.541,3.5469,3.5488,3.5449,3.541,3.5019,3.4746,3.4629,3.5098,3.5371,3.5312,3.541,3.5644,3.6016,3.6016,3.6016,3.6016,3.6016,3.6016,3.6016,3.6016,3.582,3.5469,3.541,3.4941,3.416,0.0,0.0,3.3418,3.3418,3.3418,3.3418,3.3418,3.3418,3.3418,3.3418,3.3418,3.3418,3.3418,3.3418,3.3418,3.3418,3.3418,3.3418,3.3418,3.3418,3.3418,3.3418,3.3164,3.2871,3.2812,3.2246,3.168,3.1621,3.1289,3.0976,3.0976,3.0937,3.0762,3.0371,3.0234,3.0078,2.9726,2.9297,2.8984,2.8926,2.8613,2.8359,2.8301,2.7969,2.7578,2.7148,2.7109,2.709,2.7031,2.668,2.6465,2.6465,2.6113,2.5849,2.5849,2.5849,2.5849,2.5849,2.5849,2.5849,2.5849,2.5849,2.583,2.5771,2.5771,2.5752,3.4707,3.5469,3.582,3.5488,3.4785,3.3633,3.1582,2.9551,0.0,2.4668,2.2832,2.158,2.1444,2.2383,2.4206,2.7219,2.9473,3.1777,3.4336,3.5098,3.5527,0.0,3.5918,3.5781,3.543,3.5312,0.0,0.0,0.0,3.5234,3.4844,3.5508,3.5937,3.6016,3.6016,3.6016,3.6016,3.6016,3.6016,3.6016,3.6016,3.5976,3.5898,3.5547,3.5098,3.457,3.4219,0.0,3.3418,3.3418,3.3418,3.3418,3.3418,3.3418,3.3418,3.3418,3.3418,3.3418,3.3418,3.3418,3.3418,3.3418,3.3418,3.3418,3.3418,3.3418,3.3418,3.3418,3.3379,3.3242,3.2891,3.2676,3.248,3.2129,3.1719,3.1406,3.1406,3.1133,3.0859,3.0781,3.0449,3.0176,3.0098,2.9746,2.9336,2.8965,2.8848,2.8691,2.834,2.8223,2.8027,2.7598,2.7559,2.7402,2.7051,2.6953,2.6914,2.6914,2.6836,2.6797,2.6797,2.6797,2.6797,2.6797,2.6797,2.6797,2.6797,2.6797,2.6621,2.6269,2.6269,2.6074,3.5156,3.5703,3.5918,3.5488,3.4551,3.2988,3.0176,0.0,0.0,2.2441,2.0937,2.0156,1.9884,2.1093,2.293,2.5273,2.7461,2.9844,3.2656,3.3613,3.4453,3.5566,3.5879,3.5859,0.0,3.5176,0.0,0.0,0.0,3.4941,3.4707,3.5547,3.6016,3.6016,3.6016,3.6016,3.6016,3.6016,3.6016,3.6016,3.6016,3.5898,3.5684,3.5488,3.5137,3.4687,3.4492,0.0,3.375,3.375,3.3633,3.3418,3.3418,3.3418,3.3418,3.3418,3.3418,3.3418,3.3418,3.3418,3.3418,3.3418,3.3418,3.3418,3.3418,3.3418,3.3418,3.3418,3.3418,3.3379,3.3164,3.2969,3.2734,3.2539,3.2168,3.1797,3.1562,3.1367,3.1152,3.0937,3.0703,3.0547,3.0547,3.0195,2.9824,2.9609,2.9394,2.9101,2.8672,2.8613,2.8457,2.8047,2.7988,2.791,2.7695,2.748,2.7344,2.7344,2.7148,2.7012,2.7012,2.7012,2.7012,2.7012,2.7012,2.7012,2.7012,2.7012,2.6914,2.6719,2.6719,2.6602,3.5215,3.5703,3.5898,3.5371,3.4199,3.2285,2.8926,2.6602,2.416,2.0644,1.9434,1.8965,1.8773,1.9865,2.1504,0.0,2.5352,2.7637,3.1035,3.2168,3.334,0.0,3.5762,0.0,3.5293,3.4922,0.0,0.0,0.0,0.0,3.498,3.5644,3.6016,3.6016,3.6016,3.6016,3.6016,3.6016,3.6016,3.6016,3.6016,3.584,3.5527,3.5527,3.5273,3.4844,3.4844,0.0,0.0,3.4082,3.3809,3.3418,3.3418,3.3476,3.3555,3.3555,3.3555,3.3555,3.3555,3.3496,3.3418,3.3418,3.3418,3.3418,3.3418,3.3418,3.3418,3.3418,3.3418,3.3418,3.3418,3.3184,3.291,3.2812,3.2539,3.2187,3.1758,3.1582,3.1426,3.1094,3.0957,3.0898,3.0898,3.0586,3.0312,3.0215,2.9922,2.9551,2.9121,2.9062,2.8926,2.8594,2.8398,2.8301,2.8301,2.7988,2.7865,2.7865,2.748,2.7285,2.7285,2.7285,2.7285,2.7285,2.7285,2.7285,2.7285,2.7285,2.7246,2.7148,2.7148,2.7109,3.5059,3.5703,3.582,3.498,3.3516,3.1484,2.8472,0.0,2.2672,2.0391,1.8965,1.8359,1.9082,1.9355,2.0547,2.3828,2.4531,2.6269,3.0879,3.1934,3.3008,3.5137,0.0,0.0,3.4844,3.4726,0.0,0.0,0.0,0.0,3.5859,3.5976,3.6016,3.6016,3.6016,3.6016,3.6016,3.6016,3.6016,3.6016,3.6016,3.5996,3.5957,3.5957,3.5723,3.5332,3.5332,0.0,0.0,3.4082,3.3809,3.3418,3.3418,3.3672,3.4023,3.4023,3.4023,3.4023,3.4023,3.375,3.3418,3.3418,3.3418,3.3418,3.3418,3.3418,3.3418,3.3418,3.3418,3.3418,3.3418,3.3398,3.3262,3.2891,3.2773,3.2617,3.2207,3.1797,3.1504,3.1465,3.1152,3.0898,3.0898,3.0859,3.0684,3.0254,3.0156,2.998,2.957,2.9567,2.9492,2.9453,2.875,2.8301,2.8301,2.8262,2.8242,2.8242,2.8203,2.8184,2.8184,2.8184,2.8184,2.8184,2.8184,2.8184,2.8184,2.8184,2.7969,2.7669,2.7669,2.7402,3.4551,3.5488,3.5801,3.4922,3.3223,3.0996,2.7969,2.4941,2.2148,1.998,1.873,1.8125,1.8457,1.873,1.959,2.1738,2.2324,0.0,2.7148,2.8672,3.0332,3.2773,3.4121,0.0,0.0,0.0,0.0,0.0,0.0,0.0,3.5976,3.6016,3.6016,3.6016,3.6016,3.6016,3.6016,3.6016,3.6016,3.6016,3.6016,3.6016,3.6016,3.6016,3.5937,3.5762,3.5508,0.0,0.0,3.418,3.3809,3.3418,3.3418,3.3691,3.4082,3.4082,3.4082,3.4082,3.4082,3.3789,3.3418,3.3418,3.3418,3.3418,3.3418,3.3418,3.3418,3.3418,3.3418,3.3418,3.3418,3.3418,3.3379,3.3203,3.3164,3.3066,3.2637,3.2402,3.2207,3.1953,3.1562,3.1269,3.1269,3.1055,3.082,3.0644,3.0605,3.0449,3.0,2.9941,2.9844,2.9646,2.9258,2.8945,2.8691,2.8672,2.8555,2.832,2.8301,2.8301,2.8301,2.8301,2.8301,2.8301,2.8301,2.8301,2.8301,2.8301,2.8203,2.8047,2.8047,2.7949,3.3828,3.4961,3.541,3.4531,3.2617,3.0195,2.7305,2.4297,2.1562,1.9512,1.8516,1.8008,1.8008,1.8325,1.8987,2.0176,2.0742,2.2031,2.4863,2.6309,2.7994,3.0625,0.0,3.3301,0.0,0.0,0.0,0.0,0.0,0.0,0.0,3.5625,3.5684,3.584,3.5703,3.5625,3.5625,3.5625,3.5625,3.5625,3.5625,3.5625,3.5625,3.5625,3.5625,3.5605,0.0,0.0,0.0,3.4199,3.3809,3.3418,3.3418,3.3691,3.4082,3.4082,3.4082,3.4082,3.4082,3.3789,3.3418,3.3418,3.3418,3.3418,3.3418,3.3418,3.3418,3.3418,3.3418,3.3418,3.3418,3.3418,3.3418,3.3418,3.3418,3.334,3.3047,3.2871,3.2715,3.2422,3.2012,3.168,3.1543,3.1269,3.1035,3.0918,3.0898,3.0781,3.0449,3.041,3.0293,3.0,2.9961,2.9726,2.916,2.9121,2.8984,2.8691,2.8672,2.8613,2.8476,2.8476,2.8418,2.8301,2.8301,2.8301,2.8301,2.8301,2.8301,2.8301,2.8301,2.8301,3.2851,3.4062,3.4512,3.3652,3.1504,2.8906,2.6278,2.3374,2.0703,1.8968,1.8266,1.8008,1.8008,1.8325,1.889,1.9748,2.0293,0.0,2.5187,2.5693,2.6719,0.0,0.0,3.1094,0.0,0.0,0.0,0.0,0.0,0.0,0.0,3.4707,3.4922,3.5391,3.4961,3.4707,3.4707,3.4707,3.4707,3.4707,3.4707,3.4707,3.4707,3.4707,3.4707,0.0,0.0,0.0,0.0,3.4082,3.3809,3.3418,3.3418,3.3691,3.4082,3.4082,3.4082,3.4082,3.4082,3.3789,3.3418,3.3418,3.3418,3.3418,3.3418,3.3418,3.3418,3.3418,3.3418,3.3418,3.3418,3.3418,3.3418,3.3418,3.3418,3.3418,3.3418,3.3086,3.2793,3.2793,3.2441,3.2031,3.1601,3.1504,3.1367,3.0957,3.0898,3.0898,3.0879,3.0879,3.0879,3.0879,3.0879,3.0527,2.9704,2.957,2.957,2.9607,2.9607,2.9355,2.8926,2.8906,2.8711,2.8301,2.8301,2.8301,2.8301,2.8301,2.8301,2.8301,2.8301,2.8301,2.9492,3.0742,3.1406,3.0566,2.9062,2.7226,2.4922,2.2711,2.0703,1.8968,1.8266,1.8008,1.8008,1.8091,1.8887,2.0937,2.1387,0.0,0.0,0.0,0.0,2.8217,3.084,0.0,0.0,0.0,0.0,0.0,0.0,0.0,0.0,3.4434,3.4473,3.4902,3.4766,3.4707,3.4707,3.4707,3.4707,3.4707,3.4707,3.4707,3.4707,3.4707,0.0,0.0,0.0,0.0,0.0,3.375,3.3535,3.3418,3.3418,3.3691,3.4082,3.4082,3.4082,3.4082,3.4082,3.3789,3.3418,3.3418,3.3418,3.3418,3.3418,3.3418,3.3418,3.3418,3.3418,3.3418,3.3418,3.3418,3.3418,3.3418,3.3418,3.3418,3.3418,3.332,3.3223,3.3223,3.2891,3.2559,3.2402,3.2148,3.1816,3.1387,3.1328,3.1211,3.0918,3.0898,3.0898,3.0898,3.0898,3.0644,3.0059,3.0,2.9883,2.9646,2.9626,2.9512,2.9375,2.9355,2.9297,2.916,2.916,2.9023,2.8711,2.8711,2.8574,2.8301,2.8301,2.8301,2.7148,2.8633,2.9316,2.8613,2.7363,2.5762,2.3769,2.1973,2.0255,1.8695,1.8149,1.8008,1.8008,1.811,1.8769,2.0391,2.0937,0.0,0.0,0.0,0.0,2.8256,0.0,0.0,0.0,0.0,0.0,0.0,0.0,0.0,0.0,3.3965,3.3945,3.4219,3.4219,3.4219,3.4219,3.4219,3.4219,3.4219,3.4219,3.4219,3.4219,3.4219,0.0,0.0,0.0,0.0,0.0,3.3535,3.3418,3.3418,3.3418,3.3594,3.3828,3.3828,3.3828,3.3828,3.3828,3.3652,3.3418,3.3418,3.3418,3.3418,3.3418,3.3418,3.3418,3.3418,3.3418,3.3418,3.3418,3.3418,3.3418,3.3418,3.3418,3.3418,3.3418,3.3418,3.3418,3.3418,3.3203,3.2988,3.2832,3.2578,3.2266,3.1836,3.1758,3.1601,3.1191,3.1133,3.1074,3.0918,3.0898,3.0781,3.0488,3.0449,3.0351,3.0078,3.0078,2.998,2.9805,2.9805,2.9726,2.957,2.9626,2.9434,2.916,2.916,2.9023,2.8769,2.8769,2.8769,0.0,2.7129,2.7695,2.7317,2.5986,2.4362,2.2656,2.1035,0.0,1.8262,1.8008,1.8027,1.8086,1.8344,1.8617,1.8851,1.9553,0.0,0.0,2.3516,0.0,0.0,0.0,0.0,0.0,0.0,0.0,0.0,0.0,0.0,0.0,3.3418,3.3418,3.3418,3.3418,3.3418,3.3418,3.3418,3.3418,3.3418,3.3418,3.3418,3.3418,3.3418,0.0,0.0,0.0,0.0,0.0,3.3418,3.3418,3.3418,3.3418,3.3418,3.3418,3.3418,3.3418,3.3418,3.3418,3.3418,3.3418,3.3418,3.3418,3.3418,3.3418,3.3418,3.3418,3.3418,3.3418,3.3418,3.3418,3.3418,3.3418,3.3418,3.3418,3.3418,3.3418,3.3418,3.3418,3.3418,3.3418,3.3301,3.291,3.2832,3.2695,3.2285,3.2207,3.2051,3.1621,3.1562,3.1406,3.0976,3.0937,3.0918,3.0898,3.0898,3.0898,3.0898,3.0898,3.0703,3.0273,3.0254,3.0059,2.9668,2.9629,2.9609,2.9609,2.959,2.9626,2.9626,2.9626,2.9626,2.1211,0.0,2.2793,2.2386,2.1975,2.1388,0.0,1.9727,1.916,1.8203,1.8008,1.8203,1.8867,1.8535,1.8906,2.123,0.0,0.0,2.3769,0.0,0.0,3.2129,0.0,0.0,0.0,0.0,0.0,0.0,0.0,0.0,0.0,3.3418,3.3418,3.3418,3.3418,3.3418,3.3418,3.3418,3.3418,3.3418,3.3418,3.3418,3.3418,3.3418,0.0,0.0,0.0,0.0,3.3418,3.3418,3.3418,3.3418,3.3418,3.3418,3.3418,3.3418,3.3418,3.3418,3.3418,3.3418,3.3418,3.3418,3.3418,3.3418,3.3418,3.3418,3.3418,3.3418,3.3418,3.3418,3.3418,3.3418,3.3418,3.3418,3.3418,3.3418,3.3418,3.3418,3.3418,3.3418,3.3418,3.3379,3.3301,3.3281,3.3125,3.2715,3.2656,3.25,3.207,3.2012,3.1855,3.1426,3.1367,3.123,3.0918,3.0898,3.0898,3.0898,3.0898,3.084,3.0742,3.0723,3.0684,3.0586,3.0234,3.0059,3.0059,2.9726,2.9626,2.9626,2.9626,2.9626,1.8984,2.0254,2.1484,2.123,2.1016,2.0703,2.0077,1.9414,1.875,1.7891,1.7871,1.8086,1.8359,1.8516,1.9141,2.0762,2.1699,0.0,0.0,0.0,3.0644,3.3652,0.0,0.0,0.0,0.0,0.0,0.0,0.0,0.0,0.0,3.3613,3.3633,3.3437,3.3418,3.3418,3.3418,3.3418,3.3418,3.3418,3.3418,3.3418,3.3418,3.3418,3.3418,0.0,0.0,0.0,3.3418,3.3418,3.3418,3.3418,3.3418,3.3418,3.3418,3.3418,3.3418,3.3418,3.3418,3.3418,3.3418,3.3418,3.3418,3.3418,3.3418,3.3418,3.3418,3.3418,3.3418,3.3418,3.3418,3.3418,3.3418,3.3418,3.3418,3.3418,3.3418,3.3418,3.3418,3.3418,3.3418,3.3418,3.3418,3.3418,3.334,3.3105,3.3086,3.293,3.2519,3.2461,3.2285,3.1855,3.1816,3.1719,3.1484,3.1289,3.1094,3.0898,3.0898,3.0898,3.0898,3.0898,3.0898,3.0898,3.0644,3.0508,3.0508,3.0293,3.0176,3.0176,3.0176,3.0176,1.8483,2.0092,2.1621,2.1367,2.1152,2.0839,2.0351,1.9375,1.8383,1.7637,1.7812,1.8066,1.7891,1.875,1.9609,2.0,0.0,0.0,2.8223,2.9785,3.1601,0.0,0.0,0.0,0.0,0.0,0.0,0.0,0.0,0.0,0.0,3.3809,3.3809,3.3437,3.3418,3.3418,3.3418,3.3418,3.3418,3.3418,3.3418,3.3418,3.3418,3.3418,3.3418,0.0,0.0,0.0,3.3418,3.3418,3.3418,3.3418,3.3418,3.3418,3.3418,3.3418,3.3418,3.3418,3.3418,3.3418,3.3418,3.3418,3.3418,3.3418,3.3418,3.3418,3.3418,3.3418,3.3418,3.3418,3.3418,3.3418,3.3418,3.3418,3.3418,3.3418,3.3418,3.3418,3.3418,3.3418,3.3418,3.3418,3.3418,3.3418,3.3418,3.3418,3.3418,3.3301,3.293,3.2891,3.2734,3.2305,3.2266,3.2307,3.2229,3.1836,3.1465,3.1113,3.0957,3.0898,3.0898,3.0898,3.0898,3.0898,3.0898,3.0898,3.0898,3.0898,3.0898,3.0898,3.0898,3.0898,2.0609,2.1026,2.0449,1.8965,1.9375,1.9824,1.8672,1.8481,1.8461,1.8008,1.8208,1.8848,1.992,2.0273,2.1134,2.3281,0.0,2.7773,0.0,0.0,0.0,0.0,0.0,0.0,0.0,0.0,0.0,0.0,0.0,0.0,0.0,3.3691,3.3496,3.3418,3.3418,3.3418,3.3418,3.3418,3.3418,3.3418,3.3418,3.3418,3.3418,3.3418,3.3418,0.0,0.0,3.3418,3.3418,3.3418,3.3418,3.3418,3.3418,3.3418,3.3418,3.3418,3.3418,3.3418,3.3418,3.3418,3.3418,3.3418,3.3418,3.3418,3.3418,3.3418,3.3418,3.3418,3.3418,3.3418,3.3418,3.3418,3.3418,3.3418,3.3418,3.3418,3.3418,3.3418,3.3418,3.3418,3.3418,3.3418,3.3418,3.3418,3.3418,3.3418,3.3418,3.3398,3.334,3.332,3.3164,3.2734,3.2695,3.2559,3.2268,3.2109,3.2051,3.1973,3.1289,3.0898,3.0898,3.0898,3.0898,3.0898,3.0898,3.0898,3.0898,3.0898,3.0898,3.0898,3.0898,3.0898,2.0133,2.0695,2.0751,1.992,2.0377,2.0977,2.0991,2.0737,2.0446,2.0032,2.0262,2.0471,2.0251,2.1367,2.3242,2.6055,0.0,2.9785,0.0,0.0,0.0,0.0,0.0,0.0,0.0,0.0,0.0,0.0,0.0,0.0,0.0,0.0,3.3672,3.3437,3.3418,3.3418,3.3418,3.3418,3.3418,3.3418,3.3418,3.3418,3.3418,3.3418,3.3418,3.3418,0.0,3.3418,3.3418,3.3418,3.3418,3.3418,3.3418,3.3418,3.3418,3.3418,3.3418,3.3418,3.3418,3.3418,3.3418,3.3418,3.3418,3.3418,3.3418,3.3418,3.3418,3.3418,3.3418,3.3418,3.3418,3.3418,3.3418,3.3418,3.3418,3.3418,3.3418,3.3418,3.3418,3.3418,3.3418,3.3418,3.3418,3.3418,3.3418,3.3418,3.3418,3.3418,3.3418,3.3418,3.334,3.3144,3.3125,3.3066,3.2871,3.2637,3.2305,3.1855,3.1445,3.1133,3.0898,3.0898,3.0898,3.0898,3.0898,3.0898,3.0898,3.0898,3.0898,3.0898,3.0898,3.0898,2.0593,2.0948,2.1246,2.2204,2.2078,2.2086,2.3428,2.2966,2.2324,2.2416,2.2503,2.2203,2.1036,2.3027,0.0,2.8047,2.9863,3.1445,0.0,0.0,0.0,0.0,0.0,0.0,0.0,0.0,0.0,0.0,0.0,0.0,0.0,0.0,3.3769,3.3437,3.3418,3.3418,3.3418,3.3418,3.3418,3.3418,3.3418,3.3418,3.3418,3.3418,3.3418,3.3418,3.3418,3.3418,3.3418,3.3418,3.3418,3.3418,3.3418,3.3418,3.3418,3.3418,3.3418,3.3418,3.3418,3.3418,3.3418,3.3418,3.3418,3.3418,3.3418,3.3418,3.3418,3.3418,3.3496,3.3555,3.3437,3.3418,3.3418,3.3418,3.3418,3.3418,3.3418,3.3418,3.3418,3.3418,3.3418,3.3418,3.3418,3.3418,3.3418,3.3418,3.3418,3.3418,3.3418,3.3418,3.3418,3.3418,3.3418,3.3418,3.3418,3.3125,3.2617,3.1855,3.1719,3.1484,3.1055,3.1035,3.0996,3.0898,3.0898,3.0898,3.0898,3.0898,3.0898,3.0898,3.0898,3.0898,2.4481,2.3055,2.1367,2.5154,2.3673,2.1788,2.3945,2.3432,2.2968,2.4619,2.4268,2.3624,2.356,2.5957,2.8164,2.8769,3.1309,0.0,0.0,0.0,0.0,0.0,0.0,0.0,0.0,0.0,0.0,0.0,0.0,0.0,0.0,0.0,0.0,3.3418,3.3418,3.3418,3.3418,3.3418,3.3418,3.3418,3.3418,3.3418,3.3418,3.3418,3.3418,3.3418,3.3418,3.3418,3.3418,3.3418,3.3418,3.3418,3.3418,3.3418,3.3418,3.3418,3.3418,3.3418,3.3418,3.3418,3.3418,3.3418,3.3418,3.3418,3.3418,3.3418,3.3418,3.3418,3.3711,3.3926,3.3535,3.3418,3.3418,3.3418,3.3418,3.3418,3.3418,3.3418,3.3418,3.3418,3.3418,3.3418,3.3418,3.3418,3.3418,3.3418,3.3418,3.3418,3.3418,3.3418,3.3418,3.3418,3.3418,3.3418,3.3418,3.3398,3.3184,3.2734,3.2344,3.1934,3.1484,3.1465,3.1289,3.0898,3.0898,3.0898,3.0898,3.0898,3.0898,3.0898,3.0898,3.0898,2.3411,2.3029,2.251,2.4273,2.4962,2.5393,2.6213,2.6932,2.7755,2.9,2.8979,2.8205,2.6537,0.0,3.0496,3.1491,3.39,0.0,0.0,0.0,0.0,0.0,0.0,0.0,0.0,0.0,0.0,0.0,0.0,0.0,0.0,0.0,0.0,3.3418,3.3418,3.3418,3.3418,3.3418,3.3418,3.3418,3.3418,3.3418,3.3418,3.3418,3.3418,3.3418,3.3418,3.3418,3.3418,3.3418,3.3418,3.3418,3.3418,3.3418,3.3418,3.3418,3.3418,3.3418,3.3418,3.3418,3.3418,3.3418,3.3418,3.3418,3.3418,3.3418,3.3476,3.375,3.3945,3.4043,3.3867,3.3828,3.3828,3.3828,3.3613,3.3418,3.3418,3.3418,3.3418,3.3418,3.3418,3.3418,3.3418,3.3418,3.3418,3.3418,3.3418,3.3418,3.3418,3.3418,3.3418,3.3418,3.3418,3.3418,3.3418,3.3418,3.3359,3.3184,3.2793,3.2363,3.1934,3.1914,3.1719,3.1289,3.1269,3.1152,3.0898,3.0898,3.0898,3.0898,3.0898,3.0898,2.3223,2.329,2.3386,2.4288,2.6007,2.7768,2.89,3.0191,3.153,3.3009,3.2387,3.1026,2.9132,3.0408,0.0,0.0,0.0,0.0,0.0,0.0,0.0,0.0,0.0,0.0,0.0,0.0,0.0,0.0,0.0,0.0,0.0,0.0,0.0,0.0,3.3418,3.3418,3.3418,3.3418,3.3418,3.3418,3.3418,3.3418,3.3418,3.3418,3.3418,3.3418,3.3418,3.3418,3.3418,3.3418,3.3418,3.3418,3.3418,3.3418,3.3418,3.3418,3.3418,3.3418,3.3418,3.3418,3.3418,3.3418,3.3418,3.3418,3.3418,3.3418,3.3516,3.3945,3.416,3.4297,3.4453,3.4375,3.4238,3.4101,3.3848,3.3594,3.3457,3.3418,3.3418,3.3418,3.3418,3.3418,3.3418,3.3418,3.3418,3.3418,3.3418,3.3418,3.3418,3.3418,3.3418,3.3418,3.3418,3.3418,3.3418,3.3418,3.3418,3.3418,3.3144,3.2812,3.2383,3.2363,3.2168,3.1738,3.1719,3.1582,3.1289,3.1289,3.1289,3.1289,3.1289,3.1289,2.4789,2.4042,2.3819,2.5949,2.6952,2.8284,3.1738,3.2637,3.354,3.6279,3.3922,3.1317,3.118,3.1939,0.0,0.0,0.0,0.0,0.0,0.0,0.0,0.0,0.0,0.0,0.0,0.0,0.0,0.0,0.0,0.0,0.0,0.0,0.0,0.0,3.3418,3.3418,3.3418,3.3418,3.3418,3.3418,3.3418,3.3418,3.3418,3.3418,3.3418,3.3418,3.3418,3.3418,3.3418,3.3418,3.3418,3.3418,3.3418,3.3418,3.3418,3.3418,3.3418,3.3418,3.3418,3.3418,3.3418,3.3418,3.3418,3.3418,3.3418,3.3418,3.3516,3.3945,3.4375,3.4805,3.5273,3.5059,3.4609,3.418,3.4082,3.3945,3.3516,3.3418,3.3418,3.3418,3.3418,3.3418,3.3418,3.3418,3.3418,3.3418,3.3418,3.3418,3.3418,3.3418,3.3418,3.3418,3.3418,3.3418,3.3418,3.3418,3.3418,3.3418,3.3418,3.3242,3.2812,3.2793,3.2598,3.2187,3.2229,3.2168,3.2229,3.2229,3.2229,3.2229,3.2229,3.2229,2.3087,2.3755,2.498,2.5788,2.9565,3.3487,3.5276,3.5714,3.6004,3.715,3.6902,3.5694,3.3121,3.4989,0.0,0.0,0.0,0.0,0.0,0.0,0.0,0.0,0.0,0.0,0.0,0.0,0.0,0.0,0.0,0.0,0.0,0.0,0.0,0.0,3.3418,3.3418,3.3418,3.3418,3.3418,3.3418,3.3418,3.3418,3.3418,3.3418,3.3418,3.3418,3.3418,3.3418,3.3418,3.3418,3.3418,3.3418,3.3418,3.3418,3.3418,3.3418,3.3418,3.3418,3.3418,3.3418,3.3418,3.3418,3.3418,3.3418,3.3418,3.3418,3.3516,3.3945,3.4375,3.4805,3.5273,3.5508,3.5527,3.5098,3.4531,3.4043,3.3906,3.3633,3.3418,3.3418,3.3418,3.3418,3.3418,3.3418,3.3418,3.3418,3.3418,3.3418,3.3418,3.3418,3.3418,3.3418,3.3418,3.3418,3.3418,3.3418,3.3418,3.3418,3.3418,3.3359,3.3242,3.3242,3.3047,3.2617,3.2598,3.2461,3.2229,3.2229,3.2229,3.2229,3.2229,3.2229,2.4026,2.5414,2.7261,2.7878,3.1791,3.6046,3.8197,3.89,3.9032,3.8838,3.8859,3.8327,3.6241,3.7539,0.0,0.0,0.0,0.0,0.0,0.0,0.0,0.0,0.0,0.0,0.0,0.0,0.0,0.0,0.0,0.0,0.0,0.0,0.0,0.0,3.293,3.293,3.293,3.293,3.293,3.293,3.293,3.293,3.293,3.3262,3.3418,3.3418,3.3418,3.3418,3.3418,3.3418,3.3418,3.3418,3.3418,3.3418,3.3418,3.3418,3.3418,3.3418,3.3418,3.3418,3.3418,3.3418,3.3418,3.3418,3.3418,3.3418,3.3516,3.3945,3.4258,3.459,3.5234,3.5449,3.5469,3.541,3.498,3.4551,3.4355,3.4121,3.3926,3.3926,3.3926,3.3867,3.3711,3.3691,3.3613,3.3437,3.3418,3.3418,3.3418,3.3418,3.3418,3.3418,3.3418,3.3418,3.3418,3.3418,3.3418,3.3418,3.3418,3.3418,3.3418,3.3418,3.3301,3.3047,3.3047,3.293,3.2656,3.2656,3.2656,3.2656,3.2656,3.2656,2.6271,2.806,3.0206,3.1304,3.3809,3.6987,4.0623,4.1882,4.1947,4.0841,0.0,3.9666,3.9864,3.9722,0.0,0.0,0.0,0.0,0.0,0.0,0.0,0.0,0.0,0.0,0.0,0.0,0.0,0.0,0.0,0.0,0.0,0.0,0.0,0.0,3.2229,3.2229,3.2229,3.2229,3.2229,0.0,3.2229,3.2229,3.2268,3.3008,3.3379,3.3418,3.3418,3.3418,3.3418,3.3418,3.3418,3.3418,3.3418,3.3418,3.3418,3.3418,3.3418,3.3418,3.3418,3.3418,3.3418,3.3418,3.3418,3.3418,3.3418,3.3418,3.3496,3.3906,3.4043,3.4258,3.5059,3.498,3.4805,3.5234,3.5332,3.5215,3.4785,3.4707,3.4707,3.4707,3.4707,3.457,3.4199,3.4121,3.3984,3.3535,3.3437,3.3418,3.3418,3.3418,3.3418,3.3418,3.3418,3.3418,3.3418,3.3418,3.3418,3.3418,3.3418,3.3418,3.3418,3.3418,3.3418,3.3418,3.3418,3.3418,3.3418,3.3418,3.3418,3.3418,3.3418,3.3418,2.456,2.7545,3.1347,3.2656,3.6552,4.0498,4.2233,4.271,4.242,4.0937,4.1476,4.1829,4.0655,0.0,0.0,0.0,0.0,0.0,0.0,0.0,0.0,0.0,0.0,0.0,0.0,0.0,0.0,0.0,0.0,0.0,0.0,0.0,0.0,3.2229,3.2229,3.2229,3.2229,3.2229,3.2229,0.0,3.2229,3.2229,3.2248,3.2695,3.3105,3.3418,3.3418,3.3418,3.3418,3.3418,3.3418,3.3418,3.3418,3.3418,3.3418,3.3418,3.3418,3.3418,3.3418,3.3418,3.3418,3.3418,3.3418,3.3418,3.3418,3.3418,3.3437,3.3535,3.3809,3.4121,3.4316,3.4531,3.4726,3.4824,3.4844,3.4824,3.4726,3.4707,3.4707,3.4707,3.4707,3.4668,3.459,3.457,3.4414,3.3984,3.3633,3.3418,3.3418,3.3418,3.3418,3.3418,3.3418,3.3418,3.3418,3.3418,3.3418,3.3418,3.3418,3.3418,3.3418,3.3418,3.3418,3.3418,3.3418,3.3418,3.3418,3.3418,3.3418,3.3418,3.3418,3.3418,2.565,2.8897,3.2957,3.6033,3.9061,4.163,4.2735,4.2986,4.2737,4.1899,4.2432,4.2737,0.0,0.0,0.0,0.0,0.0,0.0,0.0,0.0,0.0,0.0,0.0,0.0,0.0,0.0,0.0,0.0,0.0,0.0,0.0,3.1562,3.1562,3.1562,3.1562,3.1562,3.1562,3.1562,3.1562,3.1562,3.1562,3.166,3.1875,3.2305,3.2734,3.3125,3.3125,3.3242,3.3418,3.3418,3.3418,3.3418,3.3418,3.3418,3.3418,3.3418,3.3418,3.3418,3.3418,3.3418,3.3418,3.3418,3.3418,3.3418,3.3418,3.3418,3.3418,3.3418,3.3594,3.3809,3.4023,3.4082,3.418,3.4609,3.4863,3.5039,3.5039,3.5195,3.5332,3.5332,3.5332,3.5273,3.5078,3.4844,3.4551,3.4141,3.3887,3.3652,3.3457,3.3418,3.3418,3.3418,3.3418,3.3418,3.3418,3.3418,3.3418,3.3418,3.3418,3.3418,3.3418,3.3418,3.3418,3.3418,3.3418,3.3418,3.3418,3.3418,3.3418,3.3418,3.3418,3.3418,2.6892,3.0382,3.45,3.9195,4.0799,4.1551,4.261,4.2911,4.2986,4.2986,4.2986,0.0,0.0,0.0,0.0,0.0,0.0,0.0,0.0,0.0,0.0,0.0,0.0,0.0,0.0,0.0,0.0,0.0,0.0,0.0,3.0898,3.0898,3.0898,3.0898,3.0898,3.0898,3.0898,3.0898,3.0898,3.0898,3.0898,3.1074,3.1426,3.1777,3.2226,3.2695,3.2695,3.293,3.332,3.332,3.3359,3.3418,3.3418,3.3418,3.3418,3.3418,3.3418,3.3418,3.3418,3.3418,3.3418,3.3418,3.3418,3.3418,3.3418,3.3418,3.3418,3.3418,3.3418,3.3496,3.3867,3.375,3.3711,3.4414,3.5,3.5391,3.5391,3.5723,3.6016,3.6016,3.6016,3.5918,3.5566,3.5117,3.4707,3.4355,3.4238,3.4023,3.3594,3.3535,3.3496,3.3437,3.3418,3.3418,3.3418,3.3418,3.3418,3.3418,3.3418,3.3418,3.3418,3.3418,3.3418,3.3418,3.3418,3.3418,3.3418,3.3418,3.3418,3.3418,3.3418,3.3418,2.5001,2.9779,3.5353,3.8919,4.0576,4.1505,4.2133,0.0,4.2986,0.0,0.0,0.0,0.0,0.0,0.0,0.0,0.0,0.0,0.0,0.0,0.0,0.0,0.0,0.0,0.0,0.0,0.0,0.0,0.0,0.0,3.0898,3.0898,3.0898,3.0898,3.0898,3.0898,3.0898,3.0898,3.0898,3.0898,3.0898,3.0918,3.0976,3.1035,3.1484,3.2246,3.2246,3.25,3.2871,3.2871,3.3086,3.3418,3.3418,3.3418,3.3418,3.3418,3.3418,3.3418,3.3418,3.3418,3.3418,3.3418,3.3418,3.3418,3.3418,3.3418,3.3418,3.3418,3.3418,3.3437,3.3496,3.375,3.4023,3.4121,3.4785,3.5391,3.5391,3.5723,3.6016,3.6016,3.6016,3.5996,3.5937,3.5586,3.5293,3.5234,3.4883,3.4473,3.4043,3.3984,3.3848,3.3457,3.3418,3.3418,3.3418,3.3418,3.3418,3.3418,3.3418,3.3418,3.3418,3.3418,3.3418,3.3418,3.3418,3.3418,3.3418,3.3418,3.3418,3.3418,3.3418,3.3418,2.7067,3.111,3.5127,3.8793,4.0049,4.0651,4.1505,4.1882,4.2133,4.2459,0.0,0.0,0.0,0.0,0.0,0.0,0.0,0.0,0.0,0.0,0.0,0.0,0.0,0.0,0.0,0.0,0.0,0.0,0.0,3.0898,3.0898,3.0898,3.0898,3.0898,3.0898,3.0898,3.0898,3.0898,3.0898,3.0898,3.0898,3.0898,3.0898,3.0898,3.123,3.1797,3.1797,3.2051,3.2461,3.2695,3.291,3.3086,3.332,3.3418,3.3418,3.3418,3.3418,3.3418,3.3418,3.3418,3.3418,3.3418,3.3418,3.3418,3.3418,3.3418,3.3418,3.3418,3.3418,3.3476,3.373,3.3926,3.4199,3.4687,3.5117,3.5449,3.5703,3.5898,3.6016,3.6016,3.6016,3.6016,3.6016,3.5859,3.5664,3.543,3.5215,3.4922,3.4473,3.4219,3.4004,3.3809,3.3574,3.3418,3.3418,3.3418,3.3418,3.3418,3.3418,3.3418,3.3418,3.3418,3.3418,3.3418,3.3418,3.3418,3.3418,3.3418,3.3418,3.3418,3.3418,3.3418,2.767,3.0758,3.3319,3.7086,3.8542,3.9346,0.0,0.0,4.1279,0.0,0.0,0.0,0.0,0.0,0.0,0.0,0.0,0.0,0.0,0.0,0.0,0.0,0.0,0.0,0.0,0.0,0.0,0.0,0.0,3.0898,3.0898,3.0898,3.0898,3.0898,3.0898,3.0898,3.0898,3.0898,3.0898,3.0898,3.0898,3.0898,3.0898,3.0898,3.1055,3.1367,3.1367,3.1601,3.2031,3.2344,3.2598,3.2832,3.3144,3.332,3.3418,3.3418,3.3418,3.3418,3.3418,3.3418,3.3418,3.3418,3.3418,3.3418,3.3418,3.3418,3.3418,3.3418,3.3418,3.3516,3.3965,3.416,3.4434,3.5215,3.5469,3.5644,3.5957,3.6016,3.6016,3.6016,3.6016,3.6016,3.6016,3.6016,3.5918,3.5605,3.5547,3.5391,3.4941,3.4609,3.4355,3.4238,3.3945,3.375,3.375,3.3652,3.3594,3.3594,3.3476,3.3418,3.3418,3.3418,3.3418,3.3418,3.3418,3.3418,3.3418,3.3418,3.3418,3.3418,3.3418,3.3418,2.4148,2.6741,2.9227,3.2591,3.5378,3.7613,0.0,0.0,0.0,0.0,0.0,0.0,0.0,0.0,0.0,0.0,0.0,0.0,0.0,0.0,0.0,0.0,0.0,0.0,0.0,0.0,0.0,0.0,0.0,3.0898,3.0898,3.0898,3.0898,3.0898,3.0898,3.0898,3.0898,3.0898,3.0898,3.0898,3.0898,3.0898,3.0898,3.0898,3.0898,3.0918,3.0918,3.1172,3.1562,3.1582,3.207,3.2793,3.2812,3.3066,3.3418,3.3418,3.3418,3.3418,3.3418,3.3418,3.3418,3.3418,3.3418,3.3418,3.3418,3.3418,3.3418,3.3418,3.3418,3.3516,3.3965,3.4375,3.4785,3.5273,3.5703,3.5996,3.6016,3.6016,3.6016,3.6016,3.6016,3.6016,3.6016,3.6016,3.6016,3.5996,3.5996,3.584,3.541,3.5332,3.5156,3.4707,3.4648,3.4629,3.4629,3.4258,3.4043,3.4043,3.3652,3.3418,3.3418,3.3418,3.3418,3.3418,3.3418,3.3418,3.3418,3.3418,3.3418,3.3418,3.3418,3.3418,2.3195,2.5611,2.8197,3.0834,3.3043,3.4926,3.6408,3.7864,0.0,0.0,0.0,0.0,0.0,0.0,0.0,0.0,0.0,0.0,0.0,0.0,0.0,0.0,0.0,0.0,0.0,0.0,0.0,0.0,0.0,0.0,3.0898,3.0898,3.0898,3.0898,3.0898,3.0898,3.0898,3.0898,3.0898,3.0898,3.0898,3.0898,3.0898,3.0898,3.0898,3.0898,3.0898,3.0976,3.1133,3.1406,3.1855,3.2422,3.2695,3.3047,3.3418,3.3418,3.3418,3.3418,3.3418,3.3418,3.3607,3.4612,3.4258,3.3776,3.5827,3.5766,3.4902,3.4902,3.5913,3.6621,3.4918,3.5616,3.6562,3.5953,3.5918,3.6016,3.6016,3.6016,3.6016,3.6016,3.6016,3.6016,3.6016,3.6016,3.5937,3.5664,3.584,3.5859,3.5449,3.5391,3.5332,3.5156,3.4883,3.4707,3.4707,3.457,3.4473,3.4473,3.4082,3.3848,3.3848,3.3574,3.3418,3.3418,3.3418,3.3418,3.3418,3.3418,3.3418,3.3418,3.3418,3.3418,2.1515,2.3747,2.6465,0.0,3.0331,3.1863,3.458,0.0,0.0,0.0,0.0,0.0,0.0,0.0,0.0,0.0,0.0,0.0,0.0,0.0,0.0,0.0,0.0,0.0,0.0,0.0,0.0,0.0,0.0,0.0,3.0449,3.0449,3.0508,3.0644,3.0664,3.0742,3.0898,3.0898,3.0898,3.0898,3.0898,3.0898,3.0898,3.0898,3.0898,3.0898,3.0898,3.0898,3.0918,3.1191,3.1641,3.2268,3.248,3.293,3.3418,3.3418,3.3418,3.3418,3.3418,3.3776,3.4363,3.5437,3.5458,3.5294,3.6902,3.7002,3.656,3.6179,3.7479,3.8486,3.6333,3.6517,3.7075,3.6209,3.6016,3.6016,3.6016,3.6016,3.6016,3.6016,3.6016,3.6016,3.6016,3.6016,3.5918,3.5644,3.584,3.5918,3.5644,3.5605,3.5605,3.5605,3.5332,3.5137,3.5137,3.5019,3.4922,3.4922,3.4531,3.4277,3.4277,3.3867,3.3633,3.3633,3.3496,3.3418,3.3418,3.3418,3.3418,3.3418,3.3418,3.3418,0.0,0.0,0.0,0.0,0.0,0.0,3.3395,0.0,0.0,0.0,0.0,0.0,0.0,0.0,0.0,0.0,0.0,0.0,0.0,0.0,0.0,0.0,0.0,0.0,0.0,0.0,0.0,0.0,0.0,2.9626,2.9626,2.9626,2.9766,3.0156,3.0176,3.041,3.0859,3.0859,3.0879,3.0898,3.0898,3.0898,3.0898,3.0898,3.0898,3.0898,3.0898,3.0898,3.0898,3.0898,3.1387,3.2148,3.2168,3.2676,3.3398,3.3418,3.3418,3.3418,3.3418,3.4445,3.5745,3.5806,3.682,3.7805,3.6356,3.6963,3.8036,3.7055,3.7924,3.8965,3.8188,3.7049,3.6084,3.6016,3.6016,3.6016,3.6016,3.6016,3.6016,3.6016,3.6016,3.6016,3.6016,3.6016,3.6016,3.5996,3.5996,3.5996,3.5996,3.5996,3.6016,3.6016,3.6016,3.6016,3.6016,3.5644,3.541,3.541,3.498,3.4726,3.4726,3.4316,3.4082,3.4082,3.3652,3.3437,3.3418,3.3418,3.3418,3.3418,3.3418,3.3418,1.971,0.0,0.0,0.0,0.0,0.0,0.0,0.0,0.0,0.0,0.0,0.0,0.0,0.0,0.0,0.0,0.0,0.0,0.0,0.0,0.0,0.0,0.0,0.0,0.0,0.0,0.0,0.0,3.188,3.062,2.9682,2.9626,2.9685,2.9746,2.9746,2.9961,3.0391,3.0391,3.0547,3.0898,3.0898,3.0898,3.0898,3.0898,3.0898,3.0898,3.0898,3.0898,3.0898,3.0898,3.1211,3.1738,3.2051,3.25,3.3008,3.3301,3.3418,3.3418,3.3418,3.3713,3.4258,3.5437,3.5335,3.5108,3.6963,3.7865,3.8194,3.8321,4.0602,4.2604,4.0774,3.9084,3.7575,3.6268,3.6016,3.6016,3.6016,3.6016,3.6016,3.6016,3.6016,3.6016,3.6016,3.6016,3.5918,3.5605,3.5566,3.5566,3.5566,3.5566,3.5684,3.5996,3.6016,3.6016,3.6016,3.5918,3.584,3.584,3.5449,3.5195,3.5195,3.4766,3.4375,3.4082,3.3945,3.373,3.3418,3.3418,3.3418,3.3418,3.3418,3.3418,2.079,2.1719,2.3125,0.0,0.0,0.0,0.0,2.8021,0.0,0.0,0.0,0.0,0.0,0.0,0.0,0.0,0.0,0.0,0.0,0.0,0.0,0.0,0.0,0.0,0.0,0.0,0.0,3.3687,3.201,3.0483,2.9133,2.9043,2.9121,2.9297,2.9297,2.9512,2.9922,3.0117,3.0332,3.0605,3.0801,3.0898,3.0898,3.0898,3.0898,3.0898,3.0898,3.0898,3.0898,3.0898,3.125,3.1816,3.207,3.2539,3.3086,3.332,3.3418,3.3418,3.3418,3.3839,3.455,3.5499,3.6051,3.666,3.7865,3.8698,3.919,3.9257,4.1182,4.3007,4.2418,4.0408,3.8353,3.7307,3.6539,3.6016,3.6016,3.6016,3.6016,3.6016,3.6016,3.6016,3.6016,3.6016,3.5937,3.5684,3.5664,3.5664,3.5664,3.5664,3.5742,3.5996,3.6016,3.6016,3.6016,3.6016,3.6016,3.6016,3.5801,3.5664,3.5664,3.5234,3.4785,3.4336,3.416,3.3867,3.3418,3.3418,3.3418,3.3418,3.3418,3.3418,2.2272,2.3,2.4381,2.5209,0.0,0.0,2.7996,2.7846,0.0,0.0,0.0,0.0,0.0,0.0,0.0,0.0,0.0,0.0,0.0,0.0,0.0,0.0,0.0,0.0,0.0,3.5331,3.4581,3.4434,3.1847,2.9859,2.8794,2.8441,2.8511,2.9046,2.8902,2.9062,2.9492,2.9863,3.0098,3.0195,3.0605,3.084,3.0898,3.0898,3.0898,3.0898,3.0898,3.0898,3.0898,3.0898,3.1367,3.2109,3.2148,3.2656,3.3359,3.3398,3.3418,3.3418,3.3418,3.432,3.556,3.5745,3.7723,3.9814,3.858,3.9347,4.0574,4.0349,4.0859,4.1756,4.3083,4.1158,3.8795,3.842,3.726,3.6219,3.6016,3.6016,3.6016,3.6016,3.6016,3.6016,3.6016,3.6016,3.6016,3.6016,3.5976,3.5976,3.6016,3.5976,3.5976,3.6016,3.6016,3.6016,3.6016,3.6016,3.6016,3.6016,3.6016,3.6016,3.6016,3.5664,3.5215,3.4707,3.4238,3.3809,3.3418,3.3418,3.3418,3.3418,3.3418,3.3418,2.4381,2.4707,2.5134,2.4481,0.0,0.0,2.3853,2.3822,0.0,0.0,0.0,0.0,0.0,0.0,0.0,0.0,0.0,0.0,0.0,0.0,0.0,0.0,0.0,0.0,0.0,3.6168,3.5571,3.4483,3.1847,3.0669,3.1469,2.946,2.8834,2.9983,2.8967,2.8613,2.9043,2.9121,2.9512,3.0195,3.0293,3.0527,3.0898,3.0898,3.0898,3.0898,3.0898,3.0898,3.0898,3.0898,3.1191,3.168,3.2031,3.248,3.2969,3.3301,3.3418,3.3418,3.3418,3.3607,3.407,3.5396,3.6213,3.6941,3.7903,3.9347,4.1062,4.3081,4.3409,4.2958,4.1947,4.1181,3.9953,3.7193,3.7307,3.7709,3.6268,3.6016,3.6016,3.6016,3.6016,3.6016,3.6016,3.6016,3.6016,3.6016,3.5723,3.5644,3.5976,3.5723,3.5644,3.5996,3.6016,3.6016,3.6016,3.6016,3.6016,3.6016,3.6016,3.6016,3.6016,3.5937,3.5527,3.4726,3.3945,3.3496,3.3418,3.3418,3.3418,3.3418,3.3418,3.3418,2.5937,2.6038,2.6364,2.6113,0.0,0.0,0.0,0.0,0.0,0.0,0.0,0.0,0.0,0.0,0.0,0.0,0.0,0.0,0.0,0.0,0.0,0.0,0.0,0.0,0.0,3.6207,3.581,3.4483,3.3105,3.2353,3.228,3.103,3.0307,3.0307,2.967,2.9053,2.8613,2.8809,2.9238,2.9883,3.0098,3.0449,3.0898,3.0898,3.0898,3.0898,3.0898,3.0898,3.0898,3.0898,3.1133,3.1562,3.1992,3.2422,3.2851,3.3262,3.3418,3.3418,3.3418,3.3902,3.4736,3.556,3.6881,3.832,3.917,4.0305,4.1672,4.3076,4.3554,4.3544,4.2643,4.182,4.0731,3.8993,3.8597,3.8353,3.7508,3.7307,3.7059,3.6152,3.6016,3.6016,3.6016,3.6016,3.6016,3.6016,3.584,3.5781,3.5996,3.584,3.5781,3.5996,3.6016,3.6016,3.6016,3.6016,3.6016,3.6016,3.6016,3.6016,3.6016,3.6016,3.5605,3.4726,3.4062,3.3633,3.3418,3.3418,3.3839,3.455,3.3776,3.3839,0.0,0.0,0.0,0.0,0.0,2.5887,0.0,0.0,0.0,0.0,0.0,0.0,0.0,0.0,0.0,0.0,0.0,0.0,0.0,0.0,0.0,0.0,0.0,0.0,0.0,3.5604,3.5409,3.4655,3.4007,3.3382,3.2921,3.2196,3.1433,3.0721,3.0172,2.9408,2.8281,2.8633,2.9062,2.957,2.9922,3.0351,3.0898,3.0898,3.0898,3.0898,3.0898,3.0898,3.0898,3.0898,3.1094,3.1445,3.1973,3.2422,3.2851,3.3262,3.3418,3.3418,3.3418,3.4258,3.5376,3.5683,3.7963,4.065,4.0961,4.1763,4.2604,4.2723,4.3227,4.3731,4.3731,4.2706,4.1501,4.086,4.0148,3.9366,3.8729,3.8597,3.8154,3.6789,3.6219,3.6016,3.6016,3.6016,3.6016,3.6016,3.6016,3.6016,3.6016,3.6016,3.6016,3.6016,3.6016,3.6016,3.6016,3.6016,3.6016,3.6016,3.6336,3.6336,3.6016,3.6257,3.6196,3.5851,3.5007,3.4378,3.4021,3.3583,3.4258,3.5745,3.4133,3.4258,0.0,0.0,0.0,0.0,2.8298,0.0,0.0,0.0,0.0,0.0,0.0,0.0,0.0,0.0,0.0,0.0,0.0,0.0,0.0,0.0,0.0,0.0,0.0,0.0,0.0,0.0,3.4003,3.5298,3.2457,3.1968,3.4994,3.178,3.0499,3.2028,2.9755,2.8441,2.8301,2.834,2.8769,2.9626,2.9665,3.0078,3.0898,3.0898,3.0898,3.0898,3.0898,3.0898,3.0898,3.0898,3.0918,3.1035,3.1855,3.2422,3.2851,3.3262,3.3418,3.3418,3.3418,3.3544,3.3902,3.5335,3.7963,4.088,4.2319,4.3455,4.4328,4.4328,4.4037,4.3731,4.3731,4.3544,4.2643,3.9627,4.103,4.2328,3.9235,3.8597,3.8531,3.8353,3.7059,3.6016,3.6016,3.6016,3.6016,3.6016,3.6016,3.6016,3.6016,3.6016,3.6016,3.6016,3.6016,3.6016,3.6016,3.6016,3.6016,3.6016,3.7441,3.7642,3.6084,3.7055,3.8379,3.9784,3.7591,3.6373,3.6311,3.4332,3.4258,3.5745,3.4133,3.4258,0.0,0.0,0.0,0.0,0.0,0.0,2.4933,0.0,2.3873,0.0,0.0,0.0,0.0,0.0,0.0,0.0,0.0,0.0,0.0,0.0,0.0,0.0,0.0,0.0,0.0,0.0,0.0,0.0,0.0,3.2457,3.4906,3.3742,3.2635,3.1855,3.1033,2.9859,2.8301,2.8301,2.873,2.9626,2.9626,3.0039,3.0898,3.0898,3.0898,3.0898,3.0898,3.0898,3.0898,3.0898,3.0898,3.0976,3.1836,3.2285,3.2519,3.3184,3.3418,3.3418,3.3418,3.4027,3.5211,3.7783,4.0105,4.2199,4.3169,4.4016,4.4694,4.502,4.5171,4.4951,4.3979,4.3731,4.3333,4.1861,4.1924,4.1884,4.0408,3.9322,3.8287,3.7307,3.6471,3.6016,3.6016,3.6016,3.6016,3.6016,3.6016,3.6016,3.6016,3.6016,3.6016,3.6016,3.6016,3.6016,3.6016,3.6016,3.6016,3.6016,3.6674,3.726,3.7508,3.8034,3.9002,4.0505,3.9453,3.8616,3.8047,3.7114,3.7345,3.8498,3.5046,3.4258,3.1788,0.0,0.0,0.0,0.0,0.0,0.0,0.0,0.0,0.0,0.0,0.0,0.0,0.0,0.0,0.0,0.0,0.0,0.0,0.0,0.0,0.0,0.0,0.0,0.0,0.0,0.0,0.0,0.0,0.0,3.4374,3.4636,3.3719,3.1542,3.1683,3.0618,2.8335,2.8635,2.9286,3.0218,3.0163,3.0621,3.1498,3.1054,3.0898,3.0898,3.0898,3.0898,3.0898,3.0898,3.0957,3.1133,3.1875,3.2307,3.2422,3.3144,3.3418,3.3418,3.3418,3.4425,3.6295,3.903,4.1019,4.2531,4.3501,4.4192,4.4744,4.5321,4.5874,4.5999,4.4767,4.4436,4.4312,4.3793,4.3169,4.2328,4.1373,4.0602,3.9497,3.7755,3.7059,3.6742,3.6742,3.6336,3.6016,3.6016,3.6016,3.6016,3.6016,3.6016,3.6016,3.6016,3.6016,3.6016,3.6016,3.6016,3.6219,3.6674,3.6287,3.7173,3.9888,3.9562,4.0167,4.2047,4.1512,4.0829,4.0099,3.9401,3.9363,4.0083,3.593,3.4922,0.0,0.0,0.0,2.9252,0.0,0.0,0.0,0.0,2.6097,0.0,0.0,0.0,0.0,0.0,0.0,0.0,0.0,0.0,0.0,0.0,0.0,0.0,0.0,0.0,0.0,0.0,0.0,0.0,0.0,0.0,3.3721,3.3198,3.2369,3.1542,3.0772,2.9702,2.8281,2.9618,3.0737,3.1713,3.1584,3.2065,3.2964,3.1556,3.0898,3.0898,3.0898,3.0898,3.0898,3.0898,3.1133,3.1543,3.1992,3.2422,3.2832,3.3262,3.3418,3.3418,3.3418,3.4425,3.6051,3.7746,3.9347,4.1057,4.3159,4.4192,4.4744,4.5321,4.5874,4.6301,4.624,4.624,4.5793,4.4103,4.4951,4.522,4.1884,4.2454,4.302,4.1373,3.9693,3.8552,3.8552,3.7126,3.6016,3.6016,3.6016,3.6016,3.6016,3.6016,3.6016,3.6016,3.6016,3.6016,3.6016,3.6016,3.6722,3.842,3.6924,3.8266,4.3333,4.2011,4.2706,4.6035,4.405,4.3007,4.2983,4.0289,3.9001,3.8979,3.6731,3.6599,0.0,0.0,3.5378,3.1286,0.0,0.0,0.0,0.0,0.0,0.0,0.0,0.0,0.0,0.0,0.0,0.0,0.0,0.0,0.0,0.0,0.0,0.0,0.0,0.0,0.0,0.0,0.0,0.0,2.8438,0.0,0.0,3.2903,3.2765,3.2298,3.2374,3.1945,3.0979,3.1367,3.2126,3.3121,3.2125,3.212,3.3077,3.1536,3.0898,3.0898,3.0898,3.0898,3.0898,3.0898,3.1133,3.1562,3.1992,3.2422,3.2851,3.3262,3.3418,3.3544,3.4612,3.6051,3.7664,3.9288,4.1119,4.2905,4.3994,4.4744,4.5321,4.5874,4.6175,4.6301,4.6301,4.6301,4.618,4.5525,4.5013,4.4251,4.3083,4.1542,4.0537,4.1117,3.9758,3.8597,3.8597,3.8088,3.7307,3.6152,3.6016,3.6016,3.6016,3.6016,3.6016,3.6016,3.6016,3.6471,3.7642,3.8795,3.919,3.8597,3.9125,4.0731,4.3583,4.3146,4.3917,4.624,4.5619,4.502,4.4674,4.3354,4.25,4.2137,3.9989,3.8141,3.7186,3.7086,0.0,3.3093,3.1888,0.0,2.7344,0.0,0.0,0.0,0.0,0.0,0.0,0.0,0.0,0.0,0.0,0.0,0.0,0.0,0.0,0.0,0.0,0.0,0.0,0.0,2.5802,2.7718,2.7465,0.0,0.0,0.0,3.2876,3.2437,3.3102,3.3115,3.2331,3.2805,3.3559,3.4543,3.3068,3.2866,3.3789,3.1825,3.0898,3.0898,3.0898,3.0898,3.0898,3.0898,3.123,3.1777,3.2051,3.2519,3.3047,3.332,3.3418,3.3607,3.5273,3.682,3.8484,4.0282,4.2184,4.394,4.4694,4.5196,4.5598,4.615,4.6301,4.6301,4.6301,4.6301,4.6301,4.6301,4.5464,4.4436,4.3855,4.2454,4.1309,4.1245,4.0795,4.0213,3.9627,3.9497,3.8729,3.6336,3.6016,3.6016,3.6016,3.6016,3.6016,3.6016,3.6016,3.6742,3.8465,3.9627,4.0083,3.9583,4.0602,4.1947,4.3669,4.3731,4.4497,4.624,4.6301,4.6125,4.5773,4.5196,4.4644,4.4034,4.2495,4.0211]}]]